<?xml version='1.0' encoding='UTF-8'?><gpx version="1.1" creator="JPX - https://github.com/jenetics/jpx" xmlns="http://www.topografix.com/GPX/1/1"><trk><trkseg><trkpt lat="39.5530901" lon="-121.4303145"><ele>317.0</ele><time>2026-04-20T22:41:25.166Z</time></trkpt><trkpt lat="39.5530231" lon="-121.4302775"><ele>317.0</ele><time>2026-04-20T22:41:28.164Z</time></trkpt><trkpt lat="39.5529633" lon="-121.4302127"><ele>317.0</ele><time>2026-04-20T22:41:35.055Z</time></trkpt><trkpt lat="39.5528798" lon="-121.4301506"><ele>317.0</ele><time>2026-04-20T22:41:38.054Z</time></trkpt><trkpt lat="39.5527662" lon="-121.4301077"><ele>317.0</ele><time>2026-04-20T22:41:40.055Z</time></trkpt><trkpt lat="39.5527058" lon="-121.430083"><ele>317.0</ele><time>2026-04-20T22:41:41.055Z</time></trkpt><trkpt lat="39.5526378" lon="-121.4300467"><ele>308.6666666666667</ele><time>2026-04-20T22:41:42.054Z</time></trkpt><trkpt lat="39.5525743" lon="-121.4300002"><ele>300.33333333333337</ele><time>2026-04-20T22:41:43.054Z</time></trkpt><trkpt lat="39.5525053" lon="-121.4299495"><ele>292.0</ele><time>2026-04-20T22:41:44.055Z</time></trkpt><trkpt lat="39.5524312" lon="-121.429898"><ele>283.6666666666667</ele><time>2026-04-20T22:41:45.055Z</time></trkpt><trkpt lat="39.5523541" lon="-121.4298465"><ele>275.3333333333333</ele><time>2026-04-20T22:41:46.055Z</time></trkpt><trkpt lat="39.5522682" lon="-121.4298029"><ele>267.0</ele><time>2026-04-20T22:41:47.055Z</time></trkpt><trkpt lat="39.5521791" lon="-121.4297648"><ele>267.0</ele><time>2026-04-20T22:41:48.054Z</time></trkpt><trkpt lat="39.5520872" lon="-121.4297335"><ele>267.0</ele><time>2026-04-20T22:41:49.055Z</time></trkpt><trkpt lat="39.5519843" lon="-121.4297144"><ele>267.0</ele><time>2026-04-20T22:41:50.055Z</time></trkpt><trkpt lat="39.5518825" lon="-121.4297078"><ele>267.0</ele><time>2026-04-20T22:41:51.055Z</time></trkpt><trkpt lat="39.5517774" lon="-121.4297174"><ele>267.0</ele><time>2026-04-20T22:41:52.055Z</time></trkpt><trkpt lat="39.551678" lon="-121.429734"><ele>264.4</ele><time>2026-04-20T22:41:53.055Z</time></trkpt><trkpt lat="39.5515772" lon="-121.4297543"><ele>261.79999999999995</ele><time>2026-04-20T22:41:54.054Z</time></trkpt><trkpt lat="39.5514761" lon="-121.4297777"><ele>259.2</ele><time>2026-04-20T22:41:55.054Z</time></trkpt><trkpt lat="39.5513742" lon="-121.4297937"><ele>256.59999999999997</ele><time>2026-04-20T22:41:56.054Z</time></trkpt><trkpt lat="39.5512732" lon="-121.4298138"><ele>254.0</ele><time>2026-04-20T22:41:57.054Z</time></trkpt><trkpt lat="39.5511636" lon="-121.4298315"><ele>254.0</ele><time>2026-04-20T22:41:58.054Z</time></trkpt><trkpt lat="39.551047" lon="-121.4298481"><ele>254.0</ele><time>2026-04-20T22:41:59.054Z</time></trkpt><trkpt lat="39.5509278" lon="-121.4298695"><ele>254.0</ele><time>2026-04-20T22:42:00.055Z</time></trkpt><trkpt lat="39.5508056" lon="-121.4298934"><ele>254.0</ele><time>2026-04-20T22:42:01.055Z</time></trkpt><trkpt lat="39.5506785" lon="-121.4299128"><ele>254.0</ele><time>2026-04-20T22:42:02.055Z</time></trkpt><trkpt lat="39.5505433" lon="-121.4299338"><ele>254.0</ele><time>2026-04-20T22:42:03.054Z</time></trkpt><trkpt lat="39.5504072" lon="-121.4299572"><ele>254.0</ele><time>2026-04-20T22:42:04.055Z</time></trkpt><trkpt lat="39.5502634" lon="-121.4299822"><ele>254.0</ele><time>2026-04-20T22:42:05.055Z</time></trkpt><trkpt lat="39.5501232" lon="-121.4300077"><ele>254.0</ele><time>2026-04-20T22:42:06.055Z</time></trkpt><trkpt lat="39.5499776" lon="-121.4300354"><ele>254.0</ele><time>2026-04-20T22:42:07.054Z</time></trkpt><trkpt lat="39.5498341" lon="-121.4300621"><ele>254.0</ele><time>2026-04-20T22:42:08.054Z</time></trkpt><trkpt lat="39.5496854" lon="-121.4300851"><ele>254.0</ele><time>2026-04-20T22:42:09.054Z</time></trkpt><trkpt lat="39.5495386" lon="-121.4301113"><ele>254.0</ele><time>2026-04-20T22:42:10.054Z</time></trkpt><trkpt lat="39.5493883" lon="-121.430134"><ele>254.0</ele><time>2026-04-20T22:42:11.055Z</time></trkpt><trkpt lat="39.5492373" lon="-121.4301521"><ele>254.0</ele><time>2026-04-20T22:42:12.055Z</time></trkpt><trkpt lat="39.5490882" lon="-121.4301809"><ele>254.0</ele><time>2026-04-20T22:42:13.054Z</time></trkpt><trkpt lat="39.5489379" lon="-121.430207"><ele>254.0</ele><time>2026-04-20T22:42:14.055Z</time></trkpt><trkpt lat="39.5487854" lon="-121.4302342"><ele>254.0</ele><time>2026-04-20T22:42:15.055Z</time></trkpt><trkpt lat="39.548629" lon="-121.4302663"><ele>254.0</ele><time>2026-04-20T22:42:16.054Z</time></trkpt><trkpt lat="39.5484738" lon="-121.4302919"><ele>254.0</ele><time>2026-04-20T22:42:17.054Z</time></trkpt><trkpt lat="39.5483241" lon="-121.4303238"><ele>254.0</ele><time>2026-04-20T22:42:18.055Z</time></trkpt><trkpt lat="39.5481823" lon="-121.4303792"><ele>254.0</ele><time>2026-04-20T22:42:19.055Z</time></trkpt><trkpt lat="39.5480573" lon="-121.4304629"><ele>254.0</ele><time>2026-04-20T22:42:20.054Z</time></trkpt><trkpt lat="39.5479385" lon="-121.4305616"><ele>254.0</ele><time>2026-04-20T22:42:21.055Z</time></trkpt><trkpt lat="39.5478418" lon="-121.4306783"><ele>254.0</ele><time>2026-04-20T22:42:22.055Z</time></trkpt><trkpt lat="39.5477461" lon="-121.4307901"><ele>266.75</ele><time>2026-04-20T22:42:23.054Z</time></trkpt><trkpt lat="39.5476721" lon="-121.4309078"><ele>279.5</ele><time>2026-04-20T22:42:24.054Z</time></trkpt><trkpt lat="39.5476213" lon="-121.4310413"><ele>292.25</ele><time>2026-04-20T22:42:25.055Z</time></trkpt><trkpt lat="39.5475797" lon="-121.43117"><ele>305.0</ele><time>2026-04-20T22:42:26.055Z</time></trkpt><trkpt lat="39.5475406" lon="-121.4313065"><ele>304.6</ele><time>2026-04-20T22:42:27.055Z</time></trkpt><trkpt lat="39.5475092" lon="-121.4314443"><ele>304.2</ele><time>2026-04-20T22:42:28.055Z</time></trkpt><trkpt lat="39.5474854" lon="-121.431587"><ele>303.8</ele><time>2026-04-20T22:42:29.055Z</time></trkpt><trkpt lat="39.5474608" lon="-121.4317274"><ele>303.4</ele><time>2026-04-20T22:42:30.055Z</time></trkpt><trkpt lat="39.5474368" lon="-121.4318703"><ele>303.0</ele><time>2026-04-20T22:42:31.055Z</time></trkpt><trkpt lat="39.5474106" lon="-121.4320092"><ele>301.5</ele><time>2026-04-20T22:42:32.054Z</time></trkpt><trkpt lat="39.5473853" lon="-121.4321552"><ele>300.0</ele><time>2026-04-20T22:42:33.054Z</time></trkpt><trkpt lat="39.5473542" lon="-121.4323052"><ele>298.5</ele><time>2026-04-20T22:42:34.054Z</time></trkpt><trkpt lat="39.5473129" lon="-121.4324433"><ele>297.0</ele><time>2026-04-20T22:42:35.054Z</time></trkpt><trkpt lat="39.5472577" lon="-121.4325801"><ele>297.0</ele><time>2026-04-20T22:42:36.054Z</time></trkpt><trkpt lat="39.547188" lon="-121.432707"><ele>297.0</ele><time>2026-04-20T22:42:37.054Z</time></trkpt><trkpt lat="39.5471117" lon="-121.4328271"><ele>297.0</ele><time>2026-04-20T22:42:38.055Z</time></trkpt><trkpt lat="39.547025" lon="-121.4329417"><ele>297.0</ele><time>2026-04-20T22:42:39.055Z</time></trkpt><trkpt lat="39.5469251" lon="-121.4330414"><ele>301.25</ele><time>2026-04-20T22:42:40.054Z</time></trkpt><trkpt lat="39.5468121" lon="-121.4331345"><ele>305.5</ele><time>2026-04-20T22:42:41.055Z</time></trkpt><trkpt lat="39.5467004" lon="-121.4332013"><ele>309.75</ele><time>2026-04-20T22:42:42.055Z</time></trkpt><trkpt lat="39.5465804" lon="-121.4332534"><ele>314.0</ele><time>2026-04-20T22:42:43.054Z</time></trkpt><trkpt lat="39.546452" lon="-121.4332935"><ele>314.0</ele><time>2026-04-20T22:42:44.055Z</time></trkpt><trkpt lat="39.546308" lon="-121.4333248"><ele>314.0</ele><time>2026-04-20T22:42:45.054Z</time></trkpt><trkpt lat="39.5461645" lon="-121.4333612"><ele>314.0</ele><time>2026-04-20T22:42:46.054Z</time></trkpt><trkpt lat="39.5460174" lon="-121.4334015"><ele>314.0</ele><time>2026-04-20T22:42:47.054Z</time></trkpt><trkpt lat="39.5458601" lon="-121.4334343"><ele>313.6666666666667</ele><time>2026-04-20T22:42:48.054Z</time></trkpt><trkpt lat="39.5457086" lon="-121.4334787"><ele>313.3333333333333</ele><time>2026-04-20T22:42:49.054Z</time></trkpt><trkpt lat="39.5455564" lon="-121.4335236"><ele>313.0</ele><time>2026-04-20T22:42:50.055Z</time></trkpt><trkpt lat="39.5454012" lon="-121.4335661"><ele>317.0</ele><time>2026-04-20T22:42:51.055Z</time></trkpt><trkpt lat="39.545246" lon="-121.4336053"><ele>321.0</ele><time>2026-04-20T22:42:52.054Z</time></trkpt><trkpt lat="39.5450857" lon="-121.4336497"><ele>325.0</ele><time>2026-04-20T22:42:53.055Z</time></trkpt><trkpt lat="39.5449314" lon="-121.4336923"><ele>325.0</ele><time>2026-04-20T22:42:54.054Z</time></trkpt><trkpt lat="39.5447786" lon="-121.4337365"><ele>325.0</ele><time>2026-04-20T22:42:55.055Z</time></trkpt><trkpt lat="39.5446287" lon="-121.4337808"><ele>325.0</ele><time>2026-04-20T22:42:56.054Z</time></trkpt><trkpt lat="39.5444787" lon="-121.4338201"><ele>323.0</ele><time>2026-04-20T22:42:57.055Z</time></trkpt><trkpt lat="39.5443236" lon="-121.4338616"><ele>321.0</ele><time>2026-04-20T22:42:58.054Z</time></trkpt><trkpt lat="39.5441613" lon="-121.4339034"><ele>319.0</ele><time>2026-04-20T22:42:59.054Z</time></trkpt><trkpt lat="39.5439987" lon="-121.4339467"><ele>319.0</ele><time>2026-04-20T22:43:00.055Z</time></trkpt><trkpt lat="39.5438363" lon="-121.4339894"><ele>319.0</ele><time>2026-04-20T22:43:01.055Z</time></trkpt><trkpt lat="39.5436693" lon="-121.4340278"><ele>319.0</ele><time>2026-04-20T22:43:02.054Z</time></trkpt><trkpt lat="39.5435026" lon="-121.4340724"><ele>320.0</ele><time>2026-04-20T22:43:03.055Z</time></trkpt><trkpt lat="39.543337" lon="-121.4341183"><ele>321.0</ele><time>2026-04-20T22:43:04.055Z</time></trkpt><trkpt lat="39.5431675" lon="-121.434158"><ele>322.0</ele><time>2026-04-20T22:43:05.054Z</time></trkpt><trkpt lat="39.5429991" lon="-121.4342015"><ele>324.0</ele><time>2026-04-20T22:43:06.055Z</time></trkpt><trkpt lat="39.542831" lon="-121.4342486"><ele>326.0</ele><time>2026-04-20T22:43:07.054Z</time></trkpt><trkpt lat="39.5426641" lon="-121.4342931"><ele>328.0</ele><time>2026-04-20T22:43:08.054Z</time></trkpt><trkpt lat="39.542496" lon="-121.4343369"><ele>328.0</ele><time>2026-04-20T22:43:09.055Z</time></trkpt><trkpt lat="39.5423256" lon="-121.4343861"><ele>328.0</ele><time>2026-04-20T22:43:10.054Z</time></trkpt><trkpt lat="39.5421616" lon="-121.4344285"><ele>328.0</ele><time>2026-04-20T22:43:11.054Z</time></trkpt><trkpt lat="39.5419967" lon="-121.4344724"><ele>329.66666666666663</ele><time>2026-04-20T22:43:12.054Z</time></trkpt><trkpt lat="39.5418308" lon="-121.4345076"><ele>331.3333333333333</ele><time>2026-04-20T22:43:13.055Z</time></trkpt><trkpt lat="39.541664" lon="-121.4345493"><ele>333.0</ele><time>2026-04-20T22:43:14.054Z</time></trkpt><trkpt lat="39.5414962" lon="-121.4345869"><ele>333.0</ele><time>2026-04-20T22:43:15.055Z</time></trkpt><trkpt lat="39.5413321" lon="-121.434631"><ele>333.0</ele><time>2026-04-20T22:43:16.055Z</time></trkpt><trkpt lat="39.5411634" lon="-121.4346758"><ele>333.0</ele><time>2026-04-20T22:43:17.055Z</time></trkpt><trkpt lat="39.5410002" lon="-121.4347218"><ele>324.3333333333333</ele><time>2026-04-20T22:43:18.054Z</time></trkpt><trkpt lat="39.5408421" lon="-121.43478"><ele>315.66666666666663</ele><time>2026-04-20T22:43:19.055Z</time></trkpt><trkpt lat="39.5407014" lon="-121.4348479"><ele>307.0</ele><time>2026-04-20T22:43:20.054Z</time></trkpt><trkpt lat="39.5405727" lon="-121.4349431"><ele>307.0</ele><time>2026-04-20T22:43:21.055Z</time></trkpt><trkpt lat="39.5404508" lon="-121.4350491"><ele>307.0</ele><time>2026-04-20T22:43:22.054Z</time></trkpt><trkpt lat="39.5403315" lon="-121.4351738"><ele>307.0</ele><time>2026-04-20T22:43:23.055Z</time></trkpt><trkpt lat="39.5402247" lon="-121.4353097"><ele>309.3333333333333</ele><time>2026-04-20T22:43:24.054Z</time></trkpt><trkpt lat="39.5401139" lon="-121.4354552"><ele>311.6666666666667</ele><time>2026-04-20T22:43:25.055Z</time></trkpt><trkpt lat="39.5400048" lon="-121.4356081"><ele>314.0</ele><time>2026-04-20T22:43:26.055Z</time></trkpt><trkpt lat="39.5398959" lon="-121.4357585"><ele>314.0</ele><time>2026-04-20T22:43:27.054Z</time></trkpt><trkpt lat="39.5397922" lon="-121.4359048"><ele>314.0</ele><time>2026-04-20T22:43:28.054Z</time></trkpt><trkpt lat="39.5396818" lon="-121.4360474"><ele>314.0</ele><time>2026-04-20T22:43:29.054Z</time></trkpt><trkpt lat="39.5395681" lon="-121.4361787"><ele>314.0</ele><time>2026-04-20T22:43:30.055Z</time></trkpt><trkpt lat="39.5394392" lon="-121.4362875"><ele>314.0</ele><time>2026-04-20T22:43:31.054Z</time></trkpt><trkpt lat="39.5393089" lon="-121.4363564"><ele>314.0</ele><time>2026-04-20T22:43:32.054Z</time></trkpt><trkpt lat="39.539169" lon="-121.43641"><ele>314.0</ele><time>2026-04-20T22:43:33.055Z</time></trkpt><trkpt lat="39.5390312" lon="-121.4364502"><ele>314.0</ele><time>2026-04-20T22:43:34.054Z</time></trkpt><trkpt lat="39.5388911" lon="-121.4364681"><ele>314.0</ele><time>2026-04-20T22:43:35.054Z</time></trkpt><trkpt lat="39.5387489" lon="-121.4364621"><ele>314.0</ele><time>2026-04-20T22:43:36.054Z</time></trkpt><trkpt lat="39.5386111" lon="-121.4364322"><ele>314.0</ele><time>2026-04-20T22:43:37.054Z</time></trkpt><trkpt lat="39.5384501" lon="-121.4363898"><ele>312.0</ele><time>2026-04-20T22:43:38.055Z</time></trkpt><trkpt lat="39.5383109" lon="-121.4363217"><ele>310.0</ele><time>2026-04-20T22:43:39.054Z</time></trkpt><trkpt lat="39.5381724" lon="-121.4362427"><ele>308.0</ele><time>2026-04-20T22:43:40.055Z</time></trkpt><trkpt lat="39.5380322" lon="-121.4361631"><ele>314.33333333333337</ele><time>2026-04-20T22:43:41.055Z</time></trkpt><trkpt lat="39.5378885" lon="-121.4360802"><ele>320.6666666666667</ele><time>2026-04-20T22:43:42.054Z</time></trkpt><trkpt lat="39.5377441" lon="-121.4359935"><ele>327.0</ele><time>2026-04-20T22:43:43.055Z</time></trkpt><trkpt lat="39.5375958" lon="-121.4359074"><ele>327.0</ele><time>2026-04-20T22:43:44.054Z</time></trkpt><trkpt lat="39.5374469" lon="-121.4358218"><ele>327.0</ele><time>2026-04-20T22:43:45.054Z</time></trkpt><trkpt lat="39.537293" lon="-121.4357347"><ele>327.0</ele><time>2026-04-20T22:43:46.054Z</time></trkpt><trkpt lat="39.5371367" lon="-121.4356474"><ele>327.0</ele><time>2026-04-20T22:43:47.054Z</time></trkpt><trkpt lat="39.5369785" lon="-121.4355579"><ele>327.0</ele><time>2026-04-20T22:43:48.055Z</time></trkpt><trkpt lat="39.5368185" lon="-121.4354669"><ele>327.0</ele><time>2026-04-20T22:43:49.055Z</time></trkpt><trkpt lat="39.5366603" lon="-121.4353723"><ele>327.0</ele><time>2026-04-20T22:43:50.054Z</time></trkpt><trkpt lat="39.5365026" lon="-121.4352796"><ele>327.0</ele><time>2026-04-20T22:43:51.054Z</time></trkpt><trkpt lat="39.5363425" lon="-121.4351886"><ele>327.0</ele><time>2026-04-20T22:43:52.054Z</time></trkpt><trkpt lat="39.5361832" lon="-121.435097"><ele>329.0</ele><time>2026-04-20T22:43:53.054Z</time></trkpt><trkpt lat="39.5360245" lon="-121.435005"><ele>331.0</ele><time>2026-04-20T22:43:54.055Z</time></trkpt><trkpt lat="39.5358664" lon="-121.4349121"><ele>333.0</ele><time>2026-04-20T22:43:55.055Z</time></trkpt><trkpt lat="39.5357071" lon="-121.4348208"><ele>333.0</ele><time>2026-04-20T22:43:56.055Z</time></trkpt><trkpt lat="39.5355474" lon="-121.4347321"><ele>333.0</ele><time>2026-04-20T22:43:57.054Z</time></trkpt><trkpt lat="39.5353846" lon="-121.4346438"><ele>333.0</ele><time>2026-04-20T22:43:58.054Z</time></trkpt><trkpt lat="39.5352195" lon="-121.4345589"><ele>335.0</ele><time>2026-04-20T22:43:59.054Z</time></trkpt><trkpt lat="39.5350529" lon="-121.4344794"><ele>337.0</ele><time>2026-04-20T22:44:00.054Z</time></trkpt><trkpt lat="39.5348817" lon="-121.434403"><ele>339.0</ele><time>2026-04-20T22:44:01.054Z</time></trkpt><trkpt lat="39.5347102" lon="-121.4343288"><ele>336.0</ele><time>2026-04-20T22:44:02.055Z</time></trkpt><trkpt lat="39.5345394" lon="-121.4342552"><ele>333.0</ele><time>2026-04-20T22:44:03.054Z</time></trkpt><trkpt lat="39.5343699" lon="-121.4341843"><ele>330.0</ele><time>2026-04-20T22:44:04.054Z</time></trkpt><trkpt lat="39.5342038" lon="-121.4341136"><ele>330.0</ele><time>2026-04-20T22:44:05.055Z</time></trkpt><trkpt lat="39.534039" lon="-121.4340443"><ele>330.0</ele><time>2026-04-20T22:44:06.054Z</time></trkpt><trkpt lat="39.5338763" lon="-121.4339724"><ele>330.0</ele><time>2026-04-20T22:44:07.055Z</time></trkpt><trkpt lat="39.5337122" lon="-121.4339004"><ele>329.6666666666667</ele><time>2026-04-20T22:44:08.054Z</time></trkpt><trkpt lat="39.5335471" lon="-121.4338293"><ele>329.33333333333337</ele><time>2026-04-20T22:44:09.055Z</time></trkpt><trkpt lat="39.5333795" lon="-121.4337575"><ele>329.0</ele><time>2026-04-20T22:44:10.055Z</time></trkpt><trkpt lat="39.5332101" lon="-121.4336843"><ele>329.0</ele><time>2026-04-20T22:44:11.055Z</time></trkpt><trkpt lat="39.5330397" lon="-121.4336112"><ele>329.0</ele><time>2026-04-20T22:44:12.055Z</time></trkpt><trkpt lat="39.5328715" lon="-121.4335394"><ele>329.0</ele><time>2026-04-20T22:44:13.054Z</time></trkpt><trkpt lat="39.5327046" lon="-121.4334749"><ele>328.6666666666667</ele><time>2026-04-20T22:44:14.054Z</time></trkpt><trkpt lat="39.5325365" lon="-121.4334258"><ele>328.3333333333333</ele><time>2026-04-20T22:44:15.054Z</time></trkpt><trkpt lat="39.5323691" lon="-121.4333997"><ele>328.0</ele><time>2026-04-20T22:44:16.055Z</time></trkpt><trkpt lat="39.5322036" lon="-121.433399"><ele>329.3333333333333</ele><time>2026-04-20T22:44:17.054Z</time></trkpt><trkpt lat="39.5320401" lon="-121.4334068"><ele>330.6666666666667</ele><time>2026-04-20T22:44:18.055Z</time></trkpt><trkpt lat="39.5318757" lon="-121.4334248"><ele>332.0</ele><time>2026-04-20T22:44:19.055Z</time></trkpt><trkpt lat="39.5317127" lon="-121.4334545"><ele>332.0</ele><time>2026-04-20T22:44:20.054Z</time></trkpt><trkpt lat="39.5315485" lon="-121.4334856"><ele>332.0</ele><time>2026-04-20T22:44:21.055Z</time></trkpt><trkpt lat="39.5313848" lon="-121.4335189"><ele>332.0</ele><time>2026-04-20T22:44:22.055Z</time></trkpt><trkpt lat="39.5312199" lon="-121.433545"><ele>333.6666666666667</ele><time>2026-04-20T22:44:23.055Z</time></trkpt><trkpt lat="39.5310589" lon="-121.4335715"><ele>335.3333333333333</ele><time>2026-04-20T22:44:24.055Z</time></trkpt><trkpt lat="39.5309024" lon="-121.4335966"><ele>337.0</ele><time>2026-04-20T22:44:25.054Z</time></trkpt><trkpt lat="39.5307489" lon="-121.433614"><ele>337.0</ele><time>2026-04-20T22:44:26.055Z</time></trkpt><trkpt lat="39.5305985" lon="-121.4336272"><ele>337.0</ele><time>2026-04-20T22:44:27.054Z</time></trkpt><trkpt lat="39.5304505" lon="-121.4336312"><ele>337.0</ele><time>2026-04-20T22:44:28.055Z</time></trkpt><trkpt lat="39.5303045" lon="-121.4336172"><ele>337.0</ele><time>2026-04-20T22:44:29.054Z</time></trkpt><trkpt lat="39.53016" lon="-121.4335921"><ele>336.66666666666663</ele><time>2026-04-20T22:44:30.055Z</time></trkpt><trkpt lat="39.5300115" lon="-121.4335512"><ele>336.3333333333333</ele><time>2026-04-20T22:44:31.054Z</time></trkpt><trkpt lat="39.5298593" lon="-121.4334899"><ele>336.0</ele><time>2026-04-20T22:44:32.054Z</time></trkpt><trkpt lat="39.5297028" lon="-121.4334173"><ele>333.6666666666667</ele><time>2026-04-20T22:44:33.054Z</time></trkpt><trkpt lat="39.5295436" lon="-121.4333374"><ele>331.33333333333337</ele><time>2026-04-20T22:44:34.055Z</time></trkpt><trkpt lat="39.5293798" lon="-121.4332565"><ele>329.0</ele><time>2026-04-20T22:44:35.054Z</time></trkpt><trkpt lat="39.5292148" lon="-121.4331785"><ele>329.0</ele><time>2026-04-20T22:44:36.055Z</time></trkpt><trkpt lat="39.52905" lon="-121.4330969"><ele>329.0</ele><time>2026-04-20T22:44:37.055Z</time></trkpt><trkpt lat="39.5288876" lon="-121.4330166"><ele>329.0</ele><time>2026-04-20T22:44:38.054Z</time></trkpt><trkpt lat="39.528727" lon="-121.4329364"><ele>331.6666666666667</ele><time>2026-04-20T22:44:39.054Z</time></trkpt><trkpt lat="39.5285649" lon="-121.4328557"><ele>334.3333333333333</ele><time>2026-04-20T22:44:40.055Z</time></trkpt><trkpt lat="39.5283974" lon="-121.4327769"><ele>337.0</ele><time>2026-04-20T22:44:41.054Z</time></trkpt><trkpt lat="39.5282291" lon="-121.4326961"><ele>337.0</ele><time>2026-04-20T22:44:42.055Z</time></trkpt><trkpt lat="39.5280619" lon="-121.4326158"><ele>337.0</ele><time>2026-04-20T22:44:43.055Z</time></trkpt><trkpt lat="39.5278958" lon="-121.4325371"><ele>337.0</ele><time>2026-04-20T22:44:44.054Z</time></trkpt><trkpt lat="39.5277345" lon="-121.4324656"><ele>338.0</ele><time>2026-04-20T22:44:45.054Z</time></trkpt><trkpt lat="39.5275783" lon="-121.4324031"><ele>339.0</ele><time>2026-04-20T22:44:46.054Z</time></trkpt><trkpt lat="39.5274221" lon="-121.4323572"><ele>340.0</ele><time>2026-04-20T22:44:47.054Z</time></trkpt><trkpt lat="39.5272627" lon="-121.4323212"><ele>340.0</ele><time>2026-04-20T22:44:48.055Z</time></trkpt><trkpt lat="39.527099" lon="-121.4322992"><ele>340.0</ele><time>2026-04-20T22:44:49.055Z</time></trkpt><trkpt lat="39.5269318" lon="-121.4322934"><ele>340.0</ele><time>2026-04-20T22:44:50.054Z</time></trkpt><trkpt lat="39.5267637" lon="-121.4323021"><ele>340.3333333333333</ele><time>2026-04-20T22:44:51.055Z</time></trkpt><trkpt lat="39.5265946" lon="-121.4323199"><ele>340.6666666666667</ele><time>2026-04-20T22:44:52.054Z</time></trkpt><trkpt lat="39.5264294" lon="-121.4323634"><ele>341.0</ele><time>2026-04-20T22:44:53.055Z</time></trkpt><trkpt lat="39.5262659" lon="-121.4324233"><ele>346.0</ele><time>2026-04-20T22:44:54.054Z</time></trkpt><trkpt lat="39.5261032" lon="-121.4324933"><ele>351.0</ele><time>2026-04-20T22:44:55.055Z</time></trkpt><trkpt lat="39.5259382" lon="-121.4325681"><ele>356.0</ele><time>2026-04-20T22:44:56.054Z</time></trkpt><trkpt lat="39.5257678" lon="-121.4326479"><ele>356.0</ele><time>2026-04-20T22:44:57.055Z</time></trkpt><trkpt lat="39.5255944" lon="-121.4327272"><ele>356.0</ele><time>2026-04-20T22:44:58.055Z</time></trkpt><trkpt lat="39.5254204" lon="-121.4328044"><ele>356.0</ele><time>2026-04-20T22:44:59.055Z</time></trkpt><trkpt lat="39.5252433" lon="-121.4328854"><ele>356.6666666666667</ele><time>2026-04-20T22:45:00.054Z</time></trkpt><trkpt lat="39.5250667" lon="-121.4329652"><ele>357.3333333333333</ele><time>2026-04-20T22:45:01.054Z</time></trkpt><trkpt lat="39.5248892" lon="-121.4330452"><ele>358.0</ele><time>2026-04-20T22:45:02.054Z</time></trkpt><trkpt lat="39.5247112" lon="-121.4331226"><ele>362.66666666666663</ele><time>2026-04-20T22:45:03.055Z</time></trkpt><trkpt lat="39.5245338" lon="-121.4332031"><ele>367.3333333333333</ele><time>2026-04-20T22:45:04.055Z</time></trkpt><trkpt lat="39.5243547" lon="-121.4332848"><ele>372.0</ele><time>2026-04-20T22:45:05.055Z</time></trkpt><trkpt lat="39.5241736" lon="-121.4333648"><ele>372.0</ele><time>2026-04-20T22:45:06.054Z</time></trkpt><trkpt lat="39.5239931" lon="-121.4334461"><ele>372.0</ele><time>2026-04-20T22:45:07.054Z</time></trkpt><trkpt lat="39.523811" lon="-121.4335275"><ele>372.0</ele><time>2026-04-20T22:45:08.055Z</time></trkpt><trkpt lat="39.5236297" lon="-121.4336098"><ele>372.3333333333333</ele><time>2026-04-20T22:45:09.054Z</time></trkpt><trkpt lat="39.5234497" lon="-121.4336922"><ele>372.66666666666663</ele><time>2026-04-20T22:45:10.055Z</time></trkpt><trkpt lat="39.5232718" lon="-121.4337756"><ele>373.0</ele><time>2026-04-20T22:45:11.055Z</time></trkpt><trkpt lat="39.5230954" lon="-121.4338579"><ele>373.0</ele><time>2026-04-20T22:45:12.055Z</time></trkpt><trkpt lat="39.5229238" lon="-121.4339364"><ele>373.0</ele><time>2026-04-20T22:45:13.054Z</time></trkpt><trkpt lat="39.5227572" lon="-121.4340118"><ele>373.0</ele><time>2026-04-20T22:45:14.054Z</time></trkpt><trkpt lat="39.5225958" lon="-121.4340843"><ele>376.0</ele><time>2026-04-20T22:45:15.054Z</time></trkpt><trkpt lat="39.522441" lon="-121.434154"><ele>379.0</ele><time>2026-04-20T22:45:16.054Z</time></trkpt><trkpt lat="39.5222917" lon="-121.434225"><ele>382.0</ele><time>2026-04-20T22:45:17.055Z</time></trkpt><trkpt lat="39.5221447" lon="-121.434305"><ele>385.66666666666663</ele><time>2026-04-20T22:45:18.054Z</time></trkpt><trkpt lat="39.5220038" lon="-121.4343984"><ele>389.3333333333333</ele><time>2026-04-20T22:45:19.054Z</time></trkpt><trkpt lat="39.5218695" lon="-121.4345057"><ele>393.0</ele><time>2026-04-20T22:45:20.055Z</time></trkpt><trkpt lat="39.5217395" lon="-121.4346251"><ele>392.66666666666663</ele><time>2026-04-20T22:45:21.054Z</time></trkpt><trkpt lat="39.5216143" lon="-121.4347551"><ele>392.3333333333333</ele><time>2026-04-20T22:45:22.054Z</time></trkpt><trkpt lat="39.5214909" lon="-121.4348972"><ele>392.0</ele><time>2026-04-20T22:45:23.055Z</time></trkpt><trkpt lat="39.5213702" lon="-121.4350587"><ele>392.0</ele><time>2026-04-20T22:45:24.054Z</time></trkpt><trkpt lat="39.5212565" lon="-121.4352366"><ele>392.0</ele><time>2026-04-20T22:45:25.055Z</time></trkpt><trkpt lat="39.5211461" lon="-121.4354218"><ele>392.0</ele><time>2026-04-20T22:45:26.054Z</time></trkpt><trkpt lat="39.5210345" lon="-121.4356181"><ele>391.3333333333333</ele><time>2026-04-20T22:45:27.055Z</time></trkpt><trkpt lat="39.5209188" lon="-121.4358186"><ele>390.66666666666663</ele><time>2026-04-20T22:45:28.054Z</time></trkpt><trkpt lat="39.5207991" lon="-121.4360229"><ele>390.0</ele><time>2026-04-20T22:45:29.054Z</time></trkpt><trkpt lat="39.5206768" lon="-121.4362344"><ele>391.33333333333337</ele><time>2026-04-20T22:45:30.055Z</time></trkpt><trkpt lat="39.520554" lon="-121.4364489"><ele>392.6666666666667</ele><time>2026-04-20T22:45:31.054Z</time></trkpt><trkpt lat="39.5204272" lon="-121.4366682"><ele>394.0</ele><time>2026-04-20T22:45:32.054Z</time></trkpt><trkpt lat="39.5202981" lon="-121.4368935"><ele>394.0</ele><time>2026-04-20T22:45:33.055Z</time></trkpt><trkpt lat="39.5201681" lon="-121.4371226"><ele>394.0</ele><time>2026-04-20T22:45:34.055Z</time></trkpt><trkpt lat="39.5200348" lon="-121.4373526"><ele>394.0</ele><time>2026-04-20T22:45:35.055Z</time></trkpt><trkpt lat="39.5198999" lon="-121.4375869"><ele>386.0</ele><time>2026-04-20T22:45:36.054Z</time></trkpt><trkpt lat="39.5197627" lon="-121.4378183"><ele>378.0</ele><time>2026-04-20T22:45:37.054Z</time></trkpt><trkpt lat="39.5196274" lon="-121.4380504"><ele>378.3333333333333</ele><time>2026-04-20T22:45:38.054Z</time></trkpt><trkpt lat="39.519495" lon="-121.4382812"><ele>378.66666666666663</ele><time>2026-04-20T22:45:39.055Z</time></trkpt><trkpt lat="39.5193629" lon="-121.4385094"><ele>379.0</ele><time>2026-04-20T22:45:40.055Z</time></trkpt><trkpt lat="39.5192341" lon="-121.4387365"><ele>377.0</ele><time>2026-04-20T22:45:41.054Z</time></trkpt><trkpt lat="39.5191076" lon="-121.4389584"><ele>375.0</ele><time>2026-04-20T22:45:42.054Z</time></trkpt><trkpt lat="39.5189853" lon="-121.4391761"><ele>373.0</ele><time>2026-04-20T22:45:43.055Z</time></trkpt><trkpt lat="39.5188644" lon="-121.4393877"><ele>373.0</ele><time>2026-04-20T22:45:44.055Z</time></trkpt><trkpt lat="39.5187477" lon="-121.4395949"><ele>373.0</ele><time>2026-04-20T22:45:45.055Z</time></trkpt><trkpt lat="39.5186323" lon="-121.4397956"><ele>373.0</ele><time>2026-04-20T22:45:46.055Z</time></trkpt><trkpt lat="39.5185191" lon="-121.4399913"><ele>373.3333333333333</ele><time>2026-04-20T22:45:47.054Z</time></trkpt><trkpt lat="39.5184072" lon="-121.4401826"><ele>373.6666666666667</ele><time>2026-04-20T22:45:48.055Z</time></trkpt><trkpt lat="39.5182966" lon="-121.4403694"><ele>374.0</ele><time>2026-04-20T22:45:49.055Z</time></trkpt><trkpt lat="39.5181877" lon="-121.440552"><ele>374.0</ele><time>2026-04-20T22:45:50.054Z</time></trkpt><trkpt lat="39.518073" lon="-121.4407287"><ele>374.0</ele><time>2026-04-20T22:45:51.054Z</time></trkpt><trkpt lat="39.5179469" lon="-121.4409027"><ele>374.0</ele><time>2026-04-20T22:45:52.055Z</time></trkpt><trkpt lat="39.5178095" lon="-121.4410738"><ele>374.33333333333337</ele><time>2026-04-20T22:45:53.055Z</time></trkpt><trkpt lat="39.5176662" lon="-121.4412422"><ele>374.6666666666667</ele><time>2026-04-20T22:45:54.054Z</time></trkpt><trkpt lat="39.5175162" lon="-121.4414076"><ele>375.0</ele><time>2026-04-20T22:45:55.055Z</time></trkpt><trkpt lat="39.5173586" lon="-121.4415714"><ele>375.0</ele><time>2026-04-20T22:45:56.055Z</time></trkpt><trkpt lat="39.5171869" lon="-121.4417206"><ele>375.0</ele><time>2026-04-20T22:45:57.054Z</time></trkpt><trkpt lat="39.5170143" lon="-121.4418705"><ele>375.0</ele><time>2026-04-20T22:45:58.055Z</time></trkpt><trkpt lat="39.5168447" lon="-121.4420253"><ele>373.0</ele><time>2026-04-20T22:45:59.054Z</time></trkpt><trkpt lat="39.5166814" lon="-121.4421869"><ele>371.0</ele><time>2026-04-20T22:46:00.055Z</time></trkpt><trkpt lat="39.5165183" lon="-121.44235"><ele>369.0</ele><time>2026-04-20T22:46:01.055Z</time></trkpt><trkpt lat="39.516354" lon="-121.4425139"><ele>368.0</ele><time>2026-04-20T22:46:02.055Z</time></trkpt><trkpt lat="39.5161871" lon="-121.4426781"><ele>367.0</ele><time>2026-04-20T22:46:03.055Z</time></trkpt><trkpt lat="39.5160202" lon="-121.4428413"><ele>366.0</ele><time>2026-04-20T22:46:04.054Z</time></trkpt><trkpt lat="39.5158564" lon="-121.4430024"><ele>366.0</ele><time>2026-04-20T22:46:05.054Z</time></trkpt><trkpt lat="39.5156953" lon="-121.4431641"><ele>366.0</ele><time>2026-04-20T22:46:06.055Z</time></trkpt><trkpt lat="39.5155377" lon="-121.443324"><ele>366.0</ele><time>2026-04-20T22:46:07.054Z</time></trkpt><trkpt lat="39.5153803" lon="-121.4434771"><ele>369.6666666666667</ele><time>2026-04-20T22:46:08.054Z</time></trkpt><trkpt lat="39.5152245" lon="-121.4436304"><ele>373.33333333333337</ele><time>2026-04-20T22:46:09.054Z</time></trkpt><trkpt lat="39.5150699" lon="-121.4437838"><ele>377.0</ele><time>2026-04-20T22:46:10.054Z</time></trkpt><trkpt lat="39.5149171" lon="-121.4439395"><ele>377.33333333333337</ele><time>2026-04-20T22:46:11.055Z</time></trkpt><trkpt lat="39.5147636" lon="-121.4440949"><ele>377.6666666666667</ele><time>2026-04-20T22:46:12.055Z</time></trkpt><trkpt lat="39.5146133" lon="-121.4442491"><ele>378.0</ele><time>2026-04-20T22:46:13.054Z</time></trkpt><trkpt lat="39.5144647" lon="-121.444403"><ele>378.0</ele><time>2026-04-20T22:46:14.054Z</time></trkpt><trkpt lat="39.5143202" lon="-121.4445621"><ele>378.0</ele><time>2026-04-20T22:46:15.055Z</time></trkpt><trkpt lat="39.5141869" lon="-121.4447357"><ele>378.0</ele><time>2026-04-20T22:46:16.055Z</time></trkpt><trkpt lat="39.5140701" lon="-121.444929"><ele>378.0</ele><time>2026-04-20T22:46:17.055Z</time></trkpt><trkpt lat="39.5139632" lon="-121.4451304"><ele>378.0</ele><time>2026-04-20T22:46:18.055Z</time></trkpt><trkpt lat="39.5138655" lon="-121.4453426"><ele>378.0</ele><time>2026-04-20T22:46:19.055Z</time></trkpt><trkpt lat="39.5137816" lon="-121.4455646"><ele>377.6666666666667</ele><time>2026-04-20T22:46:20.054Z</time></trkpt><trkpt lat="39.5137111" lon="-121.4457943"><ele>377.33333333333337</ele><time>2026-04-20T22:46:21.055Z</time></trkpt><trkpt lat="39.51365" lon="-121.4460361"><ele>377.0</ele><time>2026-04-20T22:46:22.054Z</time></trkpt><trkpt lat="39.513595" lon="-121.4462835"><ele>376.0</ele><time>2026-04-20T22:46:23.054Z</time></trkpt><trkpt lat="39.5135381" lon="-121.4465337"><ele>375.0</ele><time>2026-04-20T22:46:24.054Z</time></trkpt><trkpt lat="39.5134756" lon="-121.4467833"><ele>374.0</ele><time>2026-04-20T22:46:25.054Z</time></trkpt><trkpt lat="39.513412" lon="-121.4470335"><ele>370.6666666666667</ele><time>2026-04-20T22:46:26.054Z</time></trkpt><trkpt lat="39.5133467" lon="-121.4472858"><ele>367.3333333333333</ele><time>2026-04-20T22:46:27.054Z</time></trkpt><trkpt lat="39.5132726" lon="-121.4475254"><ele>364.0</ele><time>2026-04-20T22:46:28.055Z</time></trkpt><trkpt lat="39.5131876" lon="-121.4477505"><ele>364.0</ele><time>2026-04-20T22:46:29.054Z</time></trkpt><trkpt lat="39.5130805" lon="-121.4479544"><ele>364.0</ele><time>2026-04-20T22:46:30.054Z</time></trkpt><trkpt lat="39.5129675" lon="-121.4481543"><ele>364.0</ele><time>2026-04-20T22:46:31.054Z</time></trkpt><trkpt lat="39.5128437" lon="-121.4483455"><ele>363.66666666666663</ele><time>2026-04-20T22:46:32.055Z</time></trkpt><trkpt lat="39.5127019" lon="-121.4485227"><ele>363.3333333333333</ele><time>2026-04-20T22:46:33.054Z</time></trkpt><trkpt lat="39.5125494" lon="-121.4486864"><ele>363.0</ele><time>2026-04-20T22:46:34.055Z</time></trkpt><trkpt lat="39.5123881" lon="-121.4488346"><ele>358.0</ele><time>2026-04-20T22:46:35.054Z</time></trkpt><trkpt lat="39.5122211" lon="-121.4489631"><ele>353.0</ele><time>2026-04-20T22:46:36.055Z</time></trkpt><trkpt lat="39.5120426" lon="-121.4490722"><ele>348.0</ele><time>2026-04-20T22:46:37.055Z</time></trkpt><trkpt lat="39.5118636" lon="-121.4491688"><ele>347.3333333333333</ele><time>2026-04-20T22:46:38.055Z</time></trkpt><trkpt lat="39.5116787" lon="-121.4492438"><ele>346.66666666666663</ele><time>2026-04-20T22:46:39.055Z</time></trkpt><trkpt lat="39.5114902" lon="-121.4492998"><ele>346.0</ele><time>2026-04-20T22:46:40.054Z</time></trkpt><trkpt lat="39.5112929" lon="-121.4493477"><ele>345.3333333333333</ele><time>2026-04-20T22:46:41.054Z</time></trkpt><trkpt lat="39.5110852" lon="-121.4493947"><ele>344.6666666666667</ele><time>2026-04-20T22:46:42.055Z</time></trkpt><trkpt lat="39.5108744" lon="-121.4494442"><ele>344.0</ele><time>2026-04-20T22:46:43.054Z</time></trkpt><trkpt lat="39.5106627" lon="-121.4495002"><ele>344.0</ele><time>2026-04-20T22:46:44.054Z</time></trkpt><trkpt lat="39.5104461" lon="-121.4495527"><ele>344.0</ele><time>2026-04-20T22:46:45.054Z</time></trkpt><trkpt lat="39.5102274" lon="-121.4496039"><ele>344.0</ele><time>2026-04-20T22:46:46.054Z</time></trkpt><trkpt lat="39.5100074" lon="-121.4496579"><ele>334.5</ele><time>2026-04-20T22:46:47.054Z</time></trkpt><trkpt lat="39.5097855" lon="-121.4497155"><ele>325.0</ele><time>2026-04-20T22:46:48.055Z</time></trkpt><trkpt lat="39.5095604" lon="-121.4497688"><ele>322.5</ele><time>2026-04-20T22:46:49.054Z</time></trkpt><trkpt lat="39.5093339" lon="-121.449823"><ele>320.0</ele><time>2026-04-20T22:46:50.054Z</time></trkpt><trkpt lat="39.5091066" lon="-121.449878"><ele>320.0</ele><time>2026-04-20T22:46:51.054Z</time></trkpt><trkpt lat="39.5088823" lon="-121.4499349"><ele>320.0</ele><time>2026-04-20T22:46:52.055Z</time></trkpt><trkpt lat="39.5086592" lon="-121.4499924"><ele>317.0</ele><time>2026-04-20T22:46:53.055Z</time></trkpt><trkpt lat="39.508436" lon="-121.4500446"><ele>314.0</ele><time>2026-04-20T22:46:54.054Z</time></trkpt><trkpt lat="39.5082133" lon="-121.4500959"><ele>314.0</ele><time>2026-04-20T22:46:55.055Z</time></trkpt><trkpt lat="39.5079971" lon="-121.4501457"><ele>314.0</ele><time>2026-04-20T22:46:56.054Z</time></trkpt><trkpt lat="39.5077823" lon="-121.450197"><ele>314.0</ele><time>2026-04-20T22:46:57.055Z</time></trkpt><trkpt lat="39.5075705" lon="-121.4502483"><ele>312.0</ele><time>2026-04-20T22:46:58.054Z</time></trkpt><trkpt lat="39.5073598" lon="-121.4503008"><ele>310.0</ele><time>2026-04-20T22:46:59.054Z</time></trkpt><trkpt lat="39.5071535" lon="-121.4503618"><ele>308.0</ele><time>2026-04-20T22:47:00.054Z</time></trkpt><trkpt lat="39.5069509" lon="-121.4504282"><ele>305.33333333333337</ele><time>2026-04-20T22:47:01.054Z</time></trkpt><trkpt lat="39.5067568" lon="-121.4505117"><ele>302.6666666666667</ele><time>2026-04-20T22:47:02.054Z</time></trkpt><trkpt lat="39.5065732" lon="-121.4506222"><ele>300.0</ele><time>2026-04-20T22:47:03.054Z</time></trkpt><trkpt lat="39.5064018" lon="-121.4507442"><ele>299.0</ele><time>2026-04-20T22:47:04.055Z</time></trkpt><trkpt lat="39.5062395" lon="-121.4508831"><ele>298.0</ele><time>2026-04-20T22:47:05.055Z</time></trkpt><trkpt lat="39.5060875" lon="-121.4510393"><ele>297.0</ele><time>2026-04-20T22:47:06.055Z</time></trkpt><trkpt lat="39.5059431" lon="-121.4512132"><ele>295.0</ele><time>2026-04-20T22:47:07.055Z</time></trkpt><trkpt lat="39.5058066" lon="-121.4514019"><ele>293.0</ele><time>2026-04-20T22:47:08.054Z</time></trkpt><trkpt lat="39.5056743" lon="-121.4516045"><ele>291.0</ele><time>2026-04-20T22:47:09.054Z</time></trkpt><trkpt lat="39.5055381" lon="-121.4518132"><ele>290.3333333333333</ele><time>2026-04-20T22:47:10.055Z</time></trkpt><trkpt lat="39.5053988" lon="-121.452022"><ele>289.66666666666663</ele><time>2026-04-20T22:47:11.054Z</time></trkpt><trkpt lat="39.5052552" lon="-121.4522314"><ele>289.0</ele><time>2026-04-20T22:47:12.055Z</time></trkpt><trkpt lat="39.5051111" lon="-121.452443"><ele>289.0</ele><time>2026-04-20T22:47:13.054Z</time></trkpt><trkpt lat="39.5049677" lon="-121.452657"><ele>289.0</ele><time>2026-04-20T22:47:14.054Z</time></trkpt><trkpt lat="39.5048226" lon="-121.452871"><ele>289.0</ele><time>2026-04-20T22:47:15.055Z</time></trkpt><trkpt lat="39.5046786" lon="-121.4530804"><ele>288.0</ele><time>2026-04-20T22:47:16.054Z</time></trkpt><trkpt lat="39.504533" lon="-121.4532876"><ele>287.0</ele><time>2026-04-20T22:47:17.055Z</time></trkpt><trkpt lat="39.5043931" lon="-121.4534923"><ele>286.0</ele><time>2026-04-20T22:47:18.054Z</time></trkpt><trkpt lat="39.5042548" lon="-121.4536944"><ele>284.3333333333333</ele><time>2026-04-20T22:47:19.055Z</time></trkpt><trkpt lat="39.5041225" lon="-121.4538933"><ele>282.6666666666667</ele><time>2026-04-20T22:47:20.054Z</time></trkpt><trkpt lat="39.5040015" lon="-121.4540926"><ele>281.0</ele><time>2026-04-20T22:47:21.055Z</time></trkpt><trkpt lat="39.5038962" lon="-121.4542945"><ele>281.0</ele><time>2026-04-20T22:47:22.054Z</time></trkpt><trkpt lat="39.5038047" lon="-121.4544968"><ele>281.0</ele><time>2026-04-20T22:47:23.054Z</time></trkpt><trkpt lat="39.5037214" lon="-121.454698"><ele>281.0</ele><time>2026-04-20T22:47:24.054Z</time></trkpt><trkpt lat="39.5036465" lon="-121.4548937"><ele>276.0</ele><time>2026-04-20T22:47:25.055Z</time></trkpt><trkpt lat="39.5035802" lon="-121.4550893"><ele>271.0</ele><time>2026-04-20T22:47:26.054Z</time></trkpt><trkpt lat="39.5035256" lon="-121.4552818"><ele>266.0</ele><time>2026-04-20T22:47:27.055Z</time></trkpt><trkpt lat="39.5034747" lon="-121.4554701"><ele>265.25</ele><time>2026-04-20T22:47:28.054Z</time></trkpt><trkpt lat="39.5034317" lon="-121.4556535"><ele>264.5</ele><time>2026-04-20T22:47:29.054Z</time></trkpt><trkpt lat="39.5033986" lon="-121.4558313"><ele>263.75</ele><time>2026-04-20T22:47:30.055Z</time></trkpt><trkpt lat="39.5033727" lon="-121.4560039"><ele>263.0</ele><time>2026-04-20T22:47:31.054Z</time></trkpt><trkpt lat="39.5033564" lon="-121.4561785"><ele>262.5</ele><time>2026-04-20T22:47:32.054Z</time></trkpt><trkpt lat="39.5033448" lon="-121.4563556"><ele>262.0</ele><time>2026-04-20T22:47:33.055Z</time></trkpt><trkpt lat="39.5033366" lon="-121.4565338"><ele>261.5</ele><time>2026-04-20T22:47:34.055Z</time></trkpt><trkpt lat="39.5033305" lon="-121.4567119"><ele>261.0</ele><time>2026-04-20T22:47:35.055Z</time></trkpt><trkpt lat="39.503326" lon="-121.4568955"><ele>261.0</ele><time>2026-04-20T22:47:36.054Z</time></trkpt><trkpt lat="39.5033218" lon="-121.4570814"><ele>261.0</ele><time>2026-04-20T22:47:37.055Z</time></trkpt><trkpt lat="39.5033239" lon="-121.4572663"><ele>261.0</ele><time>2026-04-20T22:47:38.055Z</time></trkpt><trkpt lat="39.5033331" lon="-121.4574514"><ele>261.0</ele><time>2026-04-20T22:47:39.055Z</time></trkpt><trkpt lat="39.5033502" lon="-121.457634"><ele>260.75</ele><time>2026-04-20T22:47:40.055Z</time></trkpt><trkpt lat="39.5033745" lon="-121.4578152"><ele>260.5</ele><time>2026-04-20T22:47:41.054Z</time></trkpt><trkpt lat="39.5034" lon="-121.4579928"><ele>260.25</ele><time>2026-04-20T22:47:42.054Z</time></trkpt><trkpt lat="39.5034271" lon="-121.4581662"><ele>260.0</ele><time>2026-04-20T22:47:43.054Z</time></trkpt><trkpt lat="39.5034546" lon="-121.4583349"><ele>260.0</ele><time>2026-04-20T22:47:44.055Z</time></trkpt><trkpt lat="39.5034796" lon="-121.4584957"><ele>260.0</ele><time>2026-04-20T22:47:45.054Z</time></trkpt><trkpt lat="39.5035037" lon="-121.4586473"><ele>260.0</ele><time>2026-04-20T22:47:46.055Z</time></trkpt><trkpt lat="39.5035283" lon="-121.4587917"><ele>260.0</ele><time>2026-04-20T22:47:47.055Z</time></trkpt><trkpt lat="39.5035524" lon="-121.458921"><ele>259.83333333333337</ele><time>2026-04-20T22:47:48.055Z</time></trkpt><trkpt lat="39.5035737" lon="-121.4590446"><ele>259.6666666666667</ele><time>2026-04-20T22:47:49.054Z</time></trkpt><trkpt lat="39.5035916" lon="-121.4591601"><ele>259.5</ele><time>2026-04-20T22:47:50.054Z</time></trkpt><trkpt lat="39.5036137" lon="-121.459265"><ele>259.3333333333333</ele><time>2026-04-20T22:47:51.055Z</time></trkpt><trkpt lat="39.5036342" lon="-121.4593528"><ele>259.16666666666663</ele><time>2026-04-20T22:47:52.054Z</time></trkpt><trkpt lat="39.5036545" lon="-121.4594523"><ele>259.0</ele><time>2026-04-20T22:47:54.054Z</time></trkpt><trkpt lat="39.5036794" lon="-121.4595883"><ele>258.59999999999997</ele><time>2026-04-20T22:48:12.055Z</time></trkpt><trkpt lat="39.503708" lon="-121.4597235"><ele>258.2</ele><time>2026-04-20T22:48:14.054Z</time></trkpt><trkpt lat="39.503741" lon="-121.4598814"><ele>257.79999999999995</ele><time>2026-04-20T22:48:16.054Z</time></trkpt><trkpt lat="39.5037568" lon="-121.4599728"><ele>257.4</ele><time>2026-04-20T22:48:17.055Z</time></trkpt><trkpt lat="39.503771" lon="-121.4600735"><ele>257.0</ele><time>2026-04-20T22:48:18.055Z</time></trkpt><trkpt lat="39.5037856" lon="-121.4601812"><ele>257.0</ele><time>2026-04-20T22:48:19.055Z</time></trkpt><trkpt lat="39.5038066" lon="-121.4602961"><ele>257.0</ele><time>2026-04-20T22:48:20.054Z</time></trkpt><trkpt lat="39.5038293" lon="-121.4604127"><ele>257.0</ele><time>2026-04-20T22:48:21.055Z</time></trkpt><trkpt lat="39.5038511" lon="-121.4605256"><ele>257.0</ele><time>2026-04-20T22:48:22.054Z</time></trkpt><trkpt lat="39.5038737" lon="-121.4606402"><ele>257.0</ele><time>2026-04-20T22:48:23.054Z</time></trkpt><trkpt lat="39.5038939" lon="-121.4607525"><ele>257.0</ele><time>2026-04-20T22:48:24.055Z</time></trkpt><trkpt lat="39.5039107" lon="-121.460867"><ele>257.0</ele><time>2026-04-20T22:48:25.054Z</time></trkpt><trkpt lat="39.503921" lon="-121.4609753"><ele>257.0</ele><time>2026-04-20T22:48:26.054Z</time></trkpt><trkpt lat="39.5039306" lon="-121.4610732"><ele>257.0</ele><time>2026-04-20T22:48:27.055Z</time></trkpt><trkpt lat="39.5039383" lon="-121.4611587"><ele>257.0</ele><time>2026-04-20T22:48:28.054Z</time></trkpt><trkpt lat="39.5039498" lon="-121.4612422"><ele>257.0</ele><time>2026-04-20T22:48:29.055Z</time></trkpt><trkpt lat="39.503963" lon="-121.4613324"><ele>257.33333333333337</ele><time>2026-04-20T22:48:31.055Z</time></trkpt><trkpt lat="39.5039548" lon="-121.4614141"><ele>257.6666666666667</ele><time>2026-04-20T22:48:33.054Z</time></trkpt><trkpt lat="39.5038875" lon="-121.4615044"><ele>258.0</ele><time>2026-04-20T22:48:35.055Z</time></trkpt><trkpt lat="39.5037989" lon="-121.4615611"><ele>258.3333333333333</ele><time>2026-04-20T22:48:37.054Z</time></trkpt><trkpt lat="39.5037149" lon="-121.4616061"><ele>258.66666666666663</ele><time>2026-04-20T22:48:39.055Z</time></trkpt><trkpt lat="39.5036481" lon="-121.4616513"><ele>259.0</ele><time>2026-04-20T22:48:41.054Z</time></trkpt><trkpt lat="39.5035859" lon="-121.4616835"><ele>259.0</ele><time>2026-04-20T22:48:44.055Z</time></trkpt><trkpt lat="39.5035236" lon="-121.4616351"><ele>259.0</ele><time>2026-04-20T22:48:47.054Z</time></trkpt><trkpt lat="39.5035107" lon="-121.4615231"><ele>259.0</ele><time>2026-04-20T22:48:51.054Z</time></trkpt><trkpt lat="39.5035017" lon="-121.461442"><ele>259.0</ele><time>2026-04-20T22:48:53.054Z</time></trkpt><trkpt lat="39.503483" lon="-121.4613546"><ele>259.0</ele><time>2026-04-20T22:48:55.054Z</time></trkpt><trkpt lat="39.5034639" lon="-121.461271"><ele>259.0</ele><time>2026-04-20T22:48:57.054Z</time></trkpt><trkpt lat="39.5034385" lon="-121.4611647"><ele>259.0</ele><time>2026-04-20T22:49:00.055Z</time></trkpt><trkpt lat="39.5034168" lon="-121.4610695"><ele>258.8333333333333</ele><time>2026-04-20T22:49:03.054Z</time></trkpt><trkpt lat="39.503401" lon="-121.4609754"><ele>258.66666666666663</ele><time>2026-04-20T22:49:07.054Z</time></trkpt><trkpt lat="39.5033831" lon="-121.4608817"><ele>258.5</ele><time>2026-04-20T22:49:12.055Z</time></trkpt><trkpt lat="39.5033634" lon="-121.4607753"><ele>258.3333333333333</ele><time>2026-04-20T22:49:16.054Z</time></trkpt><trkpt lat="39.5033466" lon="-121.4606794"><ele>258.1666666666667</ele><time>2026-04-20T22:49:19.054Z</time></trkpt><trkpt lat="39.5033284" lon="-121.4605805"><ele>258.0</ele><time>2026-04-20T22:49:22.055Z</time></trkpt><trkpt lat="39.5033119" lon="-121.4604946"><ele>257.8333333333333</ele><time>2026-04-20T22:49:24.055Z</time></trkpt><trkpt lat="39.503294" lon="-121.4603967"><ele>257.6666666666667</ele><time>2026-04-20T22:49:26.054Z</time></trkpt><trkpt lat="39.5032693" lon="-121.460297"><ele>257.5</ele><time>2026-04-20T22:49:28.055Z</time></trkpt><trkpt lat="39.5032412" lon="-121.4602066"><ele>257.33333333333337</ele><time>2026-04-20T22:49:30.055Z</time></trkpt><trkpt lat="39.5032105" lon="-121.4601244"><ele>257.1666666666667</ele><time>2026-04-20T22:49:32.055Z</time></trkpt><trkpt lat="39.5031811" lon="-121.460041"><ele>257.0</ele><time>2026-04-20T22:49:34.055Z</time></trkpt><trkpt lat="39.5031608" lon="-121.4599462"><ele>257.0</ele><time>2026-04-20T22:49:36.054Z</time></trkpt><trkpt lat="39.5031537" lon="-121.4598343"><ele>257.0</ele><time>2026-04-20T22:49:39.054Z</time></trkpt><trkpt lat="39.5031265" lon="-121.4597345"><ele>257.0</ele><time>2026-04-20T22:49:47.054Z</time></trkpt><trkpt lat="39.5030662" lon="-121.4596993"><ele>257.0</ele><time>2026-04-20T22:49:49.054Z</time></trkpt><trkpt lat="39.502972" lon="-121.4596701"><ele>257.0</ele><time>2026-04-20T22:49:51.054Z</time></trkpt><trkpt lat="39.5028478" lon="-121.4596321"><ele>256.5</ele><time>2026-04-20T22:49:53.055Z</time></trkpt><trkpt lat="39.5027734" lon="-121.4596026"><ele>256.0</ele><time>2026-04-20T22:49:54.055Z</time></trkpt><trkpt lat="39.5026946" lon="-121.4595725"><ele>255.5</ele><time>2026-04-20T22:49:55.054Z</time></trkpt><trkpt lat="39.5026145" lon="-121.4595319"><ele>255.0</ele><time>2026-04-20T22:49:56.055Z</time></trkpt><trkpt lat="39.5025281" lon="-121.4594807"><ele>254.50000000000003</ele><time>2026-04-20T22:49:57.055Z</time></trkpt><trkpt lat="39.5024385" lon="-121.4594258"><ele>254.0</ele><time>2026-04-20T22:49:58.055Z</time></trkpt><trkpt lat="39.5023448" lon="-121.4593642"><ele>254.0</ele><time>2026-04-20T22:49:59.055Z</time></trkpt><trkpt lat="39.5022468" lon="-121.4592995"><ele>254.0</ele><time>2026-04-20T22:50:00.055Z</time></trkpt><trkpt lat="39.5021474" lon="-121.4592339"><ele>254.0</ele><time>2026-04-20T22:50:01.055Z</time></trkpt><trkpt lat="39.5020451" lon="-121.4591632"><ele>254.0</ele><time>2026-04-20T22:50:02.055Z</time></trkpt><trkpt lat="39.5019399" lon="-121.4590895"><ele>254.75</ele><time>2026-04-20T22:50:03.055Z</time></trkpt><trkpt lat="39.5018288" lon="-121.4590094"><ele>255.5</ele><time>2026-04-20T22:50:04.055Z</time></trkpt><trkpt lat="39.5017092" lon="-121.4589261"><ele>256.25</ele><time>2026-04-20T22:50:05.054Z</time></trkpt><trkpt lat="39.501585" lon="-121.4588401"><ele>257.0</ele><time>2026-04-20T22:50:06.054Z</time></trkpt><trkpt lat="39.5014553" lon="-121.458753"><ele>257.33333333333337</ele><time>2026-04-20T22:50:07.055Z</time></trkpt><trkpt lat="39.5013195" lon="-121.4586607"><ele>257.6666666666667</ele><time>2026-04-20T22:50:08.055Z</time></trkpt><trkpt lat="39.5011784" lon="-121.4585658"><ele>258.0</ele><time>2026-04-20T22:50:09.055Z</time></trkpt><trkpt lat="39.5010346" lon="-121.4584686"><ele>258.0</ele><time>2026-04-20T22:50:10.055Z</time></trkpt><trkpt lat="39.5008909" lon="-121.4583726"><ele>258.0</ele><time>2026-04-20T22:50:11.055Z</time></trkpt><trkpt lat="39.5007464" lon="-121.45828"><ele>258.0</ele><time>2026-04-20T22:50:12.055Z</time></trkpt><trkpt lat="39.5006008" lon="-121.4581909"><ele>258.0</ele><time>2026-04-20T22:50:13.054Z</time></trkpt><trkpt lat="39.5004513" lon="-121.4581107"><ele>258.0</ele><time>2026-04-20T22:50:14.054Z</time></trkpt><trkpt lat="39.5002956" lon="-121.4580454"><ele>258.0</ele><time>2026-04-20T22:50:15.054Z</time></trkpt><trkpt lat="39.500139" lon="-121.457992"><ele>258.0</ele><time>2026-04-20T22:50:16.055Z</time></trkpt><trkpt lat="39.4999781" lon="-121.4579473"><ele>258.0</ele><time>2026-04-20T22:50:17.054Z</time></trkpt><trkpt lat="39.4998087" lon="-121.4579125"><ele>258.0</ele><time>2026-04-20T22:50:18.054Z</time></trkpt><trkpt lat="39.49964" lon="-121.4578882"><ele>257.0</ele><time>2026-04-20T22:50:19.055Z</time></trkpt><trkpt lat="39.4994655" lon="-121.4578828"><ele>256.0</ele><time>2026-04-20T22:50:20.055Z</time></trkpt><trkpt lat="39.4992863" lon="-121.4578895"><ele>255.0</ele><time>2026-04-20T22:50:21.055Z</time></trkpt><trkpt lat="39.4991077" lon="-121.4579117"><ele>255.0</ele><time>2026-04-20T22:50:22.055Z</time></trkpt><trkpt lat="39.498929" lon="-121.4579503"><ele>255.0</ele><time>2026-04-20T22:50:23.055Z</time></trkpt><trkpt lat="39.4987492" lon="-121.4579919"><ele>255.0</ele><time>2026-04-20T22:50:24.055Z</time></trkpt><trkpt lat="39.4985663" lon="-121.4580368"><ele>254.0</ele><time>2026-04-20T22:50:25.054Z</time></trkpt><trkpt lat="39.4983853" lon="-121.4580796"><ele>253.0</ele><time>2026-04-20T22:50:26.054Z</time></trkpt><trkpt lat="39.4982066" lon="-121.4581198"><ele>252.0</ele><time>2026-04-20T22:50:27.054Z</time></trkpt><trkpt lat="39.4980305" lon="-121.4581558"><ele>251.66666666666669</ele><time>2026-04-20T22:50:28.055Z</time></trkpt><trkpt lat="39.497855" lon="-121.4581899"><ele>251.33333333333334</ele><time>2026-04-20T22:50:29.055Z</time></trkpt><trkpt lat="39.4976832" lon="-121.4582163"><ele>251.0</ele><time>2026-04-20T22:50:30.055Z</time></trkpt><trkpt lat="39.497512" lon="-121.4582456"><ele>251.0</ele><time>2026-04-20T22:50:31.054Z</time></trkpt><trkpt lat="39.4973447" lon="-121.4582621"><ele>251.0</ele><time>2026-04-20T22:50:32.054Z</time></trkpt><trkpt lat="39.4971797" lon="-121.4582548"><ele>251.0</ele><time>2026-04-20T22:50:33.055Z</time></trkpt><trkpt lat="39.4970196" lon="-121.4582342"><ele>250.66666666666669</ele><time>2026-04-20T22:50:34.055Z</time></trkpt><trkpt lat="39.4968624" lon="-121.4582051"><ele>250.33333333333331</ele><time>2026-04-20T22:50:35.054Z</time></trkpt><trkpt lat="39.4967068" lon="-121.4581655"><ele>250.0</ele><time>2026-04-20T22:50:36.054Z</time></trkpt><trkpt lat="39.4965531" lon="-121.4581101"><ele>250.0</ele><time>2026-04-20T22:50:37.054Z</time></trkpt><trkpt lat="39.4964062" lon="-121.4580408"><ele>250.0</ele><time>2026-04-20T22:50:38.054Z</time></trkpt><trkpt lat="39.4962618" lon="-121.4579761"><ele>250.0</ele><time>2026-04-20T22:50:39.055Z</time></trkpt><trkpt lat="39.4961138" lon="-121.4579086"><ele>250.66666666666666</ele><time>2026-04-20T22:50:40.054Z</time></trkpt><trkpt lat="39.4959634" lon="-121.457842"><ele>251.33333333333331</ele><time>2026-04-20T22:50:41.054Z</time></trkpt><trkpt lat="39.4958112" lon="-121.4577775"><ele>252.0</ele><time>2026-04-20T22:50:42.054Z</time></trkpt><trkpt lat="39.4956564" lon="-121.4577135"><ele>252.0</ele><time>2026-04-20T22:50:43.055Z</time></trkpt><trkpt lat="39.4954972" lon="-121.4576582"><ele>252.0</ele><time>2026-04-20T22:50:44.054Z</time></trkpt><trkpt lat="39.4953335" lon="-121.4576174"><ele>252.0</ele><time>2026-04-20T22:50:45.054Z</time></trkpt><trkpt lat="39.4951674" lon="-121.4575708"><ele>251.33333333333331</ele><time>2026-04-20T22:50:46.054Z</time></trkpt><trkpt lat="39.495005" lon="-121.4575215"><ele>250.66666666666666</ele><time>2026-04-20T22:50:47.054Z</time></trkpt><trkpt lat="39.4948404" lon="-121.4574719"><ele>250.0</ele><time>2026-04-20T22:50:48.054Z</time></trkpt><trkpt lat="39.494675" lon="-121.4574218"><ele>249.0</ele><time>2026-04-20T22:50:49.055Z</time></trkpt><trkpt lat="39.4945114" lon="-121.4573688"><ele>248.0</ele><time>2026-04-20T22:50:50.054Z</time></trkpt><trkpt lat="39.4943461" lon="-121.4573172"><ele>247.0</ele><time>2026-04-20T22:50:51.055Z</time></trkpt><trkpt lat="39.4941837" lon="-121.4572672"><ele>247.0</ele><time>2026-04-20T22:50:52.054Z</time></trkpt><trkpt lat="39.4940215" lon="-121.4572214"><ele>247.0</ele><time>2026-04-20T22:50:53.055Z</time></trkpt><trkpt lat="39.4938572" lon="-121.4571756"><ele>247.0</ele><time>2026-04-20T22:50:54.055Z</time></trkpt><trkpt lat="39.4936937" lon="-121.4571315"><ele>247.66666666666666</ele><time>2026-04-20T22:50:55.055Z</time></trkpt><trkpt lat="39.4935301" lon="-121.4570859"><ele>248.33333333333331</ele><time>2026-04-20T22:50:56.054Z</time></trkpt><trkpt lat="39.4933648" lon="-121.4570443"><ele>249.0</ele><time>2026-04-20T22:50:57.055Z</time></trkpt><trkpt lat="39.4931977" lon="-121.4570092"><ele>249.0</ele><time>2026-04-20T22:50:58.054Z</time></trkpt><trkpt lat="39.4930285" lon="-121.4569821"><ele>249.0</ele><time>2026-04-20T22:50:59.055Z</time></trkpt><trkpt lat="39.4928602" lon="-121.4569582"><ele>249.0</ele><time>2026-04-20T22:51:00.054Z</time></trkpt><trkpt lat="39.4926919" lon="-121.4569345"><ele>249.33333333333331</ele><time>2026-04-20T22:51:01.054Z</time></trkpt><trkpt lat="39.4925243" lon="-121.4569069"><ele>249.66666666666666</ele><time>2026-04-20T22:51:02.054Z</time></trkpt><trkpt lat="39.4923558" lon="-121.4568786"><ele>250.0</ele><time>2026-04-20T22:51:03.054Z</time></trkpt><trkpt lat="39.4921888" lon="-121.4568498"><ele>249.33333333333331</ele><time>2026-04-20T22:51:04.055Z</time></trkpt><trkpt lat="39.4920214" lon="-121.4568241"><ele>248.66666666666669</ele><time>2026-04-20T22:51:05.054Z</time></trkpt><trkpt lat="39.4918526" lon="-121.4567977"><ele>248.0</ele><time>2026-04-20T22:51:06.054Z</time></trkpt><trkpt lat="39.4916833" lon="-121.4567742"><ele>248.0</ele><time>2026-04-20T22:51:07.054Z</time></trkpt><trkpt lat="39.4915122" lon="-121.4567502"><ele>248.0</ele><time>2026-04-20T22:51:08.055Z</time></trkpt><trkpt lat="39.491338" lon="-121.4567362"><ele>248.0</ele><time>2026-04-20T22:51:09.054Z</time></trkpt><trkpt lat="39.4911565" lon="-121.4567374"><ele>247.0</ele><time>2026-04-20T22:51:10.054Z</time></trkpt><trkpt lat="39.4909744" lon="-121.4567598"><ele>246.0</ele><time>2026-04-20T22:51:11.055Z</time></trkpt><trkpt lat="39.4907863" lon="-121.4567888"><ele>245.0</ele><time>2026-04-20T22:51:12.054Z</time></trkpt><trkpt lat="39.490595" lon="-121.4568227"><ele>244.33333333333334</ele><time>2026-04-20T22:51:13.054Z</time></trkpt><trkpt lat="39.4904015" lon="-121.456855"><ele>243.66666666666669</ele><time>2026-04-20T22:51:14.054Z</time></trkpt><trkpt lat="39.4902064" lon="-121.456881"><ele>243.0</ele><time>2026-04-20T22:51:15.054Z</time></trkpt><trkpt lat="39.4900095" lon="-121.4569125"><ele>243.0</ele><time>2026-04-20T22:51:16.055Z</time></trkpt><trkpt lat="39.4898111" lon="-121.4569432"><ele>243.0</ele><time>2026-04-20T22:51:17.055Z</time></trkpt><trkpt lat="39.489614" lon="-121.4569741"><ele>243.0</ele><time>2026-04-20T22:51:18.054Z</time></trkpt><trkpt lat="39.4894187" lon="-121.4570029"><ele>244.33333333333331</ele><time>2026-04-20T22:51:19.055Z</time></trkpt><trkpt lat="39.4892246" lon="-121.4570262"><ele>245.66666666666666</ele><time>2026-04-20T22:51:20.054Z</time></trkpt><trkpt lat="39.489034" lon="-121.4570424"><ele>247.0</ele><time>2026-04-20T22:51:21.055Z</time></trkpt><trkpt lat="39.4888453" lon="-121.4570512"><ele>247.0</ele><time>2026-04-20T22:51:22.054Z</time></trkpt><trkpt lat="39.4886583" lon="-121.4570539"><ele>247.0</ele><time>2026-04-20T22:51:23.054Z</time></trkpt><trkpt lat="39.4884753" lon="-121.4570492"><ele>247.0</ele><time>2026-04-20T22:51:24.055Z</time></trkpt><trkpt lat="39.488295" lon="-121.4570473"><ele>247.0</ele><time>2026-04-20T22:51:25.055Z</time></trkpt><trkpt lat="39.4881159" lon="-121.4570426"><ele>247.0</ele><time>2026-04-20T22:51:26.055Z</time></trkpt><trkpt lat="39.4879407" lon="-121.4570365"><ele>247.0</ele><time>2026-04-20T22:51:27.055Z</time></trkpt><trkpt lat="39.4877661" lon="-121.4570228"><ele>247.0</ele><time>2026-04-20T22:51:28.055Z</time></trkpt><trkpt lat="39.4875929" lon="-121.4570006"><ele>247.0</ele><time>2026-04-20T22:51:29.055Z</time></trkpt><trkpt lat="39.4874209" lon="-121.4569703"><ele>247.0</ele><time>2026-04-20T22:51:30.055Z</time></trkpt><trkpt lat="39.4872493" lon="-121.4569348"><ele>245.33333333333331</ele><time>2026-04-20T22:51:31.055Z</time></trkpt><trkpt lat="39.4870731" lon="-121.4568861"><ele>243.66666666666669</ele><time>2026-04-20T22:51:32.055Z</time></trkpt><trkpt lat="39.4868992" lon="-121.4568339"><ele>242.0</ele><time>2026-04-20T22:51:33.055Z</time></trkpt><trkpt lat="39.486726" lon="-121.4567753"><ele>242.0</ele><time>2026-04-20T22:51:34.055Z</time></trkpt><trkpt lat="39.4865506" lon="-121.4567177"><ele>242.0</ele><time>2026-04-20T22:51:35.055Z</time></trkpt><trkpt lat="39.4863769" lon="-121.4566605"><ele>242.0</ele><time>2026-04-20T22:51:36.055Z</time></trkpt><trkpt lat="39.4862066" lon="-121.4566059"><ele>241.0</ele><time>2026-04-20T22:51:37.055Z</time></trkpt><trkpt lat="39.4860332" lon="-121.4565553"><ele>240.0</ele><time>2026-04-20T22:51:38.055Z</time></trkpt><trkpt lat="39.4858678" lon="-121.4565001"><ele>239.0</ele><time>2026-04-20T22:51:39.054Z</time></trkpt><trkpt lat="39.4857001" lon="-121.456445"><ele>239.0</ele><time>2026-04-20T22:51:40.055Z</time></trkpt><trkpt lat="39.4855363" lon="-121.4563911"><ele>239.0</ele><time>2026-04-20T22:51:41.054Z</time></trkpt><trkpt lat="39.4853748" lon="-121.4563401"><ele>239.0</ele><time>2026-04-20T22:51:42.054Z</time></trkpt><trkpt lat="39.4852156" lon="-121.4562928"><ele>241.0</ele><time>2026-04-20T22:51:43.055Z</time></trkpt><trkpt lat="39.4850544" lon="-121.4562579"><ele>243.0</ele><time>2026-04-20T22:51:44.054Z</time></trkpt><trkpt lat="39.4848968" lon="-121.4562329"><ele>245.0</ele><time>2026-04-20T22:51:45.055Z</time></trkpt><trkpt lat="39.4847364" lon="-121.4562262"><ele>245.33333333333334</ele><time>2026-04-20T22:51:46.054Z</time></trkpt><trkpt lat="39.4845775" lon="-121.4562253"><ele>245.66666666666669</ele><time>2026-04-20T22:51:47.054Z</time></trkpt><trkpt lat="39.4844091" lon="-121.4562365"><ele>246.0</ele><time>2026-04-20T22:51:48.054Z</time></trkpt><trkpt lat="39.4842377" lon="-121.4562633"><ele>244.33333333333331</ele><time>2026-04-20T22:51:49.055Z</time></trkpt><trkpt lat="39.4840621" lon="-121.4563085"><ele>242.66666666666666</ele><time>2026-04-20T22:51:50.055Z</time></trkpt><trkpt lat="39.4838873" lon="-121.4563679"><ele>241.0</ele><time>2026-04-20T22:51:51.055Z</time></trkpt><trkpt lat="39.4837086" lon="-121.4564294"><ele>241.0</ele><time>2026-04-20T22:51:52.055Z</time></trkpt><trkpt lat="39.4835281" lon="-121.4564891"><ele>241.0</ele><time>2026-04-20T22:51:53.054Z</time></trkpt><trkpt lat="39.4833506" lon="-121.456537"><ele>241.0</ele><time>2026-04-20T22:51:54.055Z</time></trkpt><trkpt lat="39.4831702" lon="-121.4565918"><ele>241.0</ele><time>2026-04-20T22:51:55.054Z</time></trkpt><trkpt lat="39.4829866" lon="-121.4566457"><ele>241.0</ele><time>2026-04-20T22:51:56.055Z</time></trkpt><trkpt lat="39.4828027" lon="-121.4567027"><ele>241.0</ele><time>2026-04-20T22:51:57.055Z</time></trkpt><trkpt lat="39.4826173" lon="-121.456761"><ele>242.0</ele><time>2026-04-20T22:51:58.055Z</time></trkpt><trkpt lat="39.4824314" lon="-121.4568176"><ele>243.0</ele><time>2026-04-20T22:51:59.055Z</time></trkpt><trkpt lat="39.4822464" lon="-121.4568749"><ele>244.0</ele><time>2026-04-20T22:52:00.054Z</time></trkpt><trkpt lat="39.4820616" lon="-121.4569308"><ele>245.33333333333331</ele><time>2026-04-20T22:52:01.054Z</time></trkpt><trkpt lat="39.4818764" lon="-121.4569886"><ele>246.66666666666669</ele><time>2026-04-20T22:52:02.055Z</time></trkpt><trkpt lat="39.4816902" lon="-121.4570501"><ele>248.0</ele><time>2026-04-20T22:52:03.054Z</time></trkpt><trkpt lat="39.4815036" lon="-121.4571102"><ele>243.33333333333334</ele><time>2026-04-20T22:52:04.054Z</time></trkpt><trkpt lat="39.4813149" lon="-121.4571684"><ele>238.66666666666669</ele><time>2026-04-20T22:52:05.055Z</time></trkpt><trkpt lat="39.481126" lon="-121.457228"><ele>234.0</ele><time>2026-04-20T22:52:06.054Z</time></trkpt><trkpt lat="39.4809388" lon="-121.457287"><ele>234.0</ele><time>2026-04-20T22:52:07.055Z</time></trkpt><trkpt lat="39.4807499" lon="-121.4573472"><ele>234.0</ele><time>2026-04-20T22:52:08.055Z</time></trkpt><trkpt lat="39.4805643" lon="-121.4574056"><ele>234.0</ele><time>2026-04-20T22:52:09.054Z</time></trkpt><trkpt lat="39.4803818" lon="-121.4574799"><ele>234.0</ele><time>2026-04-20T22:52:10.054Z</time></trkpt><trkpt lat="39.4802049" lon="-121.457561"><ele>234.0</ele><time>2026-04-20T22:52:11.055Z</time></trkpt><trkpt lat="39.4800404" lon="-121.4576477"><ele>234.0</ele><time>2026-04-20T22:52:12.054Z</time></trkpt><trkpt lat="39.4798855" lon="-121.4577273"><ele>234.0</ele><time>2026-04-20T22:52:13.054Z</time></trkpt><trkpt lat="39.4797364" lon="-121.4578"><ele>234.0</ele><time>2026-04-20T22:52:14.055Z</time></trkpt><trkpt lat="39.4795885" lon="-121.4578703"><ele>234.0</ele><time>2026-04-20T22:52:15.054Z</time></trkpt><trkpt lat="39.479441" lon="-121.4579346"><ele>233.33333333333331</ele><time>2026-04-20T22:52:16.054Z</time></trkpt><trkpt lat="39.4792966" lon="-121.457991"><ele>232.66666666666666</ele><time>2026-04-20T22:52:17.054Z</time></trkpt><trkpt lat="39.4791488" lon="-121.4580352"><ele>232.0</ele><time>2026-04-20T22:52:18.054Z</time></trkpt><trkpt lat="39.4789935" lon="-121.4580646"><ele>232.0</ele><time>2026-04-20T22:52:19.054Z</time></trkpt><trkpt lat="39.4788354" lon="-121.4580916"><ele>232.0</ele><time>2026-04-20T22:52:20.054Z</time></trkpt><trkpt lat="39.4786716" lon="-121.4581163"><ele>232.0</ele><time>2026-04-20T22:52:21.055Z</time></trkpt><trkpt lat="39.4785016" lon="-121.4581428"><ele>231.0</ele><time>2026-04-20T22:52:22.055Z</time></trkpt><trkpt lat="39.4783292" lon="-121.4581736"><ele>230.0</ele><time>2026-04-20T22:52:23.055Z</time></trkpt><trkpt lat="39.4781551" lon="-121.4582096"><ele>229.0</ele><time>2026-04-20T22:52:24.055Z</time></trkpt><trkpt lat="39.477976" lon="-121.4582445"><ele>228.66666666666666</ele><time>2026-04-20T22:52:25.055Z</time></trkpt><trkpt lat="39.4777911" lon="-121.4582809"><ele>228.33333333333331</ele><time>2026-04-20T22:52:26.055Z</time></trkpt><trkpt lat="39.4776007" lon="-121.4583158"><ele>228.0</ele><time>2026-04-20T22:52:27.054Z</time></trkpt><trkpt lat="39.4774091" lon="-121.45835"><ele>228.0</ele><time>2026-04-20T22:52:28.054Z</time></trkpt><trkpt lat="39.477211" lon="-121.4583775"><ele>228.0</ele><time>2026-04-20T22:52:29.054Z</time></trkpt><trkpt lat="39.4770103" lon="-121.4584116"><ele>228.0</ele><time>2026-04-20T22:52:30.054Z</time></trkpt><trkpt lat="39.4768097" lon="-121.4584449"><ele>227.66666666666669</ele><time>2026-04-20T22:52:31.055Z</time></trkpt><trkpt lat="39.4766149" lon="-121.4584822"><ele>227.33333333333334</ele><time>2026-04-20T22:52:32.054Z</time></trkpt><trkpt lat="39.4764309" lon="-121.4585229"><ele>227.0</ele><time>2026-04-20T22:52:33.055Z</time></trkpt><trkpt lat="39.4762479" lon="-121.4585649"><ele>227.0</ele><time>2026-04-20T22:52:34.055Z</time></trkpt><trkpt lat="39.4760693" lon="-121.4586095"><ele>227.0</ele><time>2026-04-20T22:52:35.054Z</time></trkpt><trkpt lat="39.4758953" lon="-121.4586514"><ele>227.0</ele><time>2026-04-20T22:52:36.054Z</time></trkpt><trkpt lat="39.47573" lon="-121.4586895"><ele>227.0</ele><time>2026-04-20T22:52:37.054Z</time></trkpt><trkpt lat="39.4755674" lon="-121.4587255"><ele>227.0</ele><time>2026-04-20T22:52:38.055Z</time></trkpt><trkpt lat="39.4754063" lon="-121.4587538"><ele>227.0</ele><time>2026-04-20T22:52:39.055Z</time></trkpt><trkpt lat="39.4752499" lon="-121.4587835"><ele>227.33333333333334</ele><time>2026-04-20T22:52:40.054Z</time></trkpt><trkpt lat="39.4750924" lon="-121.4588166"><ele>227.66666666666669</ele><time>2026-04-20T22:52:41.054Z</time></trkpt><trkpt lat="39.4749315" lon="-121.4588433"><ele>228.0</ele><time>2026-04-20T22:52:42.055Z</time></trkpt><trkpt lat="39.4747693" lon="-121.458869"><ele>227.33333333333331</ele><time>2026-04-20T22:52:43.055Z</time></trkpt><trkpt lat="39.474603" lon="-121.4588885"><ele>226.66666666666666</ele><time>2026-04-20T22:52:44.055Z</time></trkpt><trkpt lat="39.4744369" lon="-121.4589019"><ele>226.0</ele><time>2026-04-20T22:52:45.055Z</time></trkpt><trkpt lat="39.4742671" lon="-121.4589141"><ele>226.0</ele><time>2026-04-20T22:52:46.055Z</time></trkpt><trkpt lat="39.4740954" lon="-121.4589231"><ele>226.0</ele><time>2026-04-20T22:52:47.055Z</time></trkpt><trkpt lat="39.4739204" lon="-121.4589356"><ele>226.0</ele><time>2026-04-20T22:52:48.055Z</time></trkpt><trkpt lat="39.4737407" lon="-121.4589489"><ele>227.33333333333331</ele><time>2026-04-20T22:52:49.054Z</time></trkpt><trkpt lat="39.4735562" lon="-121.4589637"><ele>228.66666666666669</ele><time>2026-04-20T22:52:50.054Z</time></trkpt><trkpt lat="39.4733704" lon="-121.4589784"><ele>230.0</ele><time>2026-04-20T22:52:51.055Z</time></trkpt><trkpt lat="39.4731816" lon="-121.4589886"><ele>230.0</ele><time>2026-04-20T22:52:52.054Z</time></trkpt><trkpt lat="39.472997" lon="-121.4590001"><ele>230.0</ele><time>2026-04-20T22:52:53.055Z</time></trkpt><trkpt lat="39.4728165" lon="-121.4590104"><ele>230.0</ele><time>2026-04-20T22:52:54.054Z</time></trkpt><trkpt lat="39.4726381" lon="-121.45902"><ele>229.33333333333334</ele><time>2026-04-20T22:52:55.054Z</time></trkpt><trkpt lat="39.4724618" lon="-121.459031"><ele>228.66666666666669</ele><time>2026-04-20T22:52:56.055Z</time></trkpt><trkpt lat="39.4722883" lon="-121.4590462"><ele>228.0</ele><time>2026-04-20T22:52:57.054Z</time></trkpt><trkpt lat="39.4721187" lon="-121.4590589"><ele>227.33333333333331</ele><time>2026-04-20T22:52:58.055Z</time></trkpt><trkpt lat="39.4719455" lon="-121.45907"><ele>226.66666666666666</ele><time>2026-04-20T22:52:59.055Z</time></trkpt><trkpt lat="39.471774" lon="-121.4590807"><ele>226.0</ele><time>2026-04-20T22:53:00.054Z</time></trkpt><trkpt lat="39.4716036" lon="-121.4590927"><ele>226.0</ele><time>2026-04-20T22:53:01.054Z</time></trkpt><trkpt lat="39.4714348" lon="-121.4591089"><ele>226.0</ele><time>2026-04-20T22:53:02.054Z</time></trkpt><trkpt lat="39.4712686" lon="-121.4591196"><ele>226.0</ele><time>2026-04-20T22:53:03.054Z</time></trkpt><trkpt lat="39.4711038" lon="-121.4591284"><ele>226.0</ele><time>2026-04-20T22:53:04.054Z</time></trkpt><trkpt lat="39.4709392" lon="-121.4591369"><ele>226.0</ele><time>2026-04-20T22:53:05.054Z</time></trkpt><trkpt lat="39.4707687" lon="-121.459143"><ele>226.0</ele><time>2026-04-20T22:53:06.055Z</time></trkpt><trkpt lat="39.470599" lon="-121.459141"><ele>226.0</ele><time>2026-04-20T22:53:07.055Z</time></trkpt><trkpt lat="39.4704299" lon="-121.4591416"><ele>226.0</ele><time>2026-04-20T22:53:08.055Z</time></trkpt><trkpt lat="39.4702594" lon="-121.4591337"><ele>226.0</ele><time>2026-04-20T22:53:09.054Z</time></trkpt><trkpt lat="39.4700887" lon="-121.459125"><ele>226.0</ele><time>2026-04-20T22:53:10.054Z</time></trkpt><trkpt lat="39.4699195" lon="-121.4591185"><ele>226.0</ele><time>2026-04-20T22:53:11.055Z</time></trkpt><trkpt lat="39.4697513" lon="-121.4591146"><ele>226.0</ele><time>2026-04-20T22:53:12.054Z</time></trkpt><trkpt lat="39.4695824" lon="-121.4591161"><ele>226.0</ele><time>2026-04-20T22:53:13.055Z</time></trkpt><trkpt lat="39.4694171" lon="-121.4591153"><ele>226.0</ele><time>2026-04-20T22:53:14.054Z</time></trkpt><trkpt lat="39.469253" lon="-121.4591136"><ele>226.0</ele><time>2026-04-20T22:53:15.054Z</time></trkpt><trkpt lat="39.4690913" lon="-121.4591135"><ele>226.0</ele><time>2026-04-20T22:53:16.055Z</time></trkpt><trkpt lat="39.4689335" lon="-121.4591161"><ele>226.0</ele><time>2026-04-20T22:53:17.055Z</time></trkpt><trkpt lat="39.4687771" lon="-121.4591181"><ele>226.0</ele><time>2026-04-20T22:53:18.055Z</time></trkpt><trkpt lat="39.4686242" lon="-121.4591189"><ele>226.5</ele><time>2026-04-20T22:53:19.055Z</time></trkpt><trkpt lat="39.4684823" lon="-121.4591188"><ele>227.0</ele><time>2026-04-20T22:53:20.055Z</time></trkpt><trkpt lat="39.4683512" lon="-121.4591136"><ele>227.5</ele><time>2026-04-20T22:53:21.055Z</time></trkpt><trkpt lat="39.4682187" lon="-121.4591146"><ele>228.0</ele><time>2026-04-20T22:53:22.054Z</time></trkpt><trkpt lat="39.4681083" lon="-121.459112"><ele>228.0</ele><time>2026-04-20T22:53:23.055Z</time></trkpt><trkpt lat="39.4680095" lon="-121.4591125"><ele>228.0</ele><time>2026-04-20T22:53:24.054Z</time></trkpt><trkpt lat="39.4679259" lon="-121.4591154"><ele>228.0</ele><time>2026-04-20T22:53:25.054Z</time></trkpt><trkpt lat="39.4678563" lon="-121.4591163"><ele>228.0</ele><time>2026-04-20T22:53:26.054Z</time></trkpt><trkpt lat="39.4677625" lon="-121.4591012"><ele>228.0</ele><time>2026-04-20T22:53:28.055Z</time></trkpt><trkpt lat="39.4677124" lon="-121.459029"><ele>228.0</ele><time>2026-04-20T22:53:30.055Z</time></trkpt><trkpt lat="39.467729" lon="-121.4589056"><ele>227.4</ele><time>2026-04-20T22:53:32.055Z</time></trkpt><trkpt lat="39.4677481" lon="-121.4587499"><ele>226.8</ele><time>2026-04-20T22:53:34.054Z</time></trkpt><trkpt lat="39.4677603" lon="-121.4586528"><ele>226.2</ele><time>2026-04-20T22:53:35.055Z</time></trkpt><trkpt lat="39.4677722" lon="-121.4585359"><ele>225.6</ele><time>2026-04-20T22:53:36.054Z</time></trkpt><trkpt lat="39.4677851" lon="-121.4584053"><ele>225.0</ele><time>2026-04-20T22:53:37.054Z</time></trkpt><trkpt lat="39.4678018" lon="-121.4582611"><ele>225.0</ele><time>2026-04-20T22:53:38.055Z</time></trkpt><trkpt lat="39.4678175" lon="-121.4581006"><ele>225.0</ele><time>2026-04-20T22:53:39.054Z</time></trkpt><trkpt lat="39.4678399" lon="-121.4579276"><ele>225.0</ele><time>2026-04-20T22:53:40.054Z</time></trkpt><trkpt lat="39.4678573" lon="-121.4577449"><ele>225.0</ele><time>2026-04-20T22:53:41.054Z</time></trkpt><trkpt lat="39.467876" lon="-121.4575589"><ele>225.0</ele><time>2026-04-20T22:53:42.054Z</time></trkpt><trkpt lat="39.4678899" lon="-121.4573679"><ele>225.0</ele><time>2026-04-20T22:53:43.054Z</time></trkpt><trkpt lat="39.4679029" lon="-121.4571735"><ele>225.0</ele><time>2026-04-20T22:53:44.055Z</time></trkpt><trkpt lat="39.4679029" lon="-121.4569741"><ele>225.0</ele><time>2026-04-20T22:53:45.054Z</time></trkpt><trkpt lat="39.467886" lon="-121.4567763"><ele>225.0</ele><time>2026-04-20T22:53:46.055Z</time></trkpt><trkpt lat="39.4678492" lon="-121.4565836"><ele>225.0</ele><time>2026-04-20T22:53:47.055Z</time></trkpt><trkpt lat="39.467809" lon="-121.4563835"><ele>224.66666666666669</ele><time>2026-04-20T22:53:48.054Z</time></trkpt><trkpt lat="39.467759" lon="-121.4561897"><ele>224.33333333333334</ele><time>2026-04-20T22:53:49.055Z</time></trkpt><trkpt lat="39.4676972" lon="-121.4560013"><ele>224.0</ele><time>2026-04-20T22:53:50.054Z</time></trkpt><trkpt lat="39.4676298" lon="-121.4558119"><ele>224.0</ele><time>2026-04-20T22:53:51.054Z</time></trkpt><trkpt lat="39.4675549" lon="-121.4556318"><ele>224.0</ele><time>2026-04-20T22:53:52.054Z</time></trkpt><trkpt lat="39.467464" lon="-121.4554595"><ele>224.0</ele><time>2026-04-20T22:53:53.055Z</time></trkpt><trkpt lat="39.4673664" lon="-121.4553035"><ele>224.0</ele><time>2026-04-20T22:53:54.055Z</time></trkpt><trkpt lat="39.4672577" lon="-121.4551557"><ele>224.0</ele><time>2026-04-20T22:53:55.054Z</time></trkpt><trkpt lat="39.4671461" lon="-121.4550188"><ele>224.0</ele><time>2026-04-20T22:53:56.054Z</time></trkpt><trkpt lat="39.4670281" lon="-121.4548867"><ele>223.66666666666669</ele><time>2026-04-20T22:53:57.054Z</time></trkpt><trkpt lat="39.4668996" lon="-121.4547662"><ele>223.33333333333331</ele><time>2026-04-20T22:53:58.055Z</time></trkpt><trkpt lat="39.4667693" lon="-121.4546584"><ele>223.0</ele><time>2026-04-20T22:53:59.054Z</time></trkpt><trkpt lat="39.4666346" lon="-121.454561"><ele>223.25</ele><time>2026-04-20T22:54:00.055Z</time></trkpt><trkpt lat="39.4665023" lon="-121.4544709"><ele>223.5</ele><time>2026-04-20T22:54:01.054Z</time></trkpt><trkpt lat="39.466368" lon="-121.4543898"><ele>223.75</ele><time>2026-04-20T22:54:02.055Z</time></trkpt><trkpt lat="39.466243" lon="-121.4543003"><ele>224.0</ele><time>2026-04-20T22:54:03.054Z</time></trkpt><trkpt lat="39.4661337" lon="-121.4542258"><ele>224.00000000000003</ele><time>2026-04-20T22:54:04.055Z</time></trkpt><trkpt lat="39.4660475" lon="-121.4541712"><ele>224.0</ele><time>2026-04-20T22:54:05.055Z</time></trkpt><trkpt lat="39.465985" lon="-121.4541412"><ele>224.0</ele><time>2026-04-20T22:54:06.055Z</time></trkpt><trkpt lat="39.4659017" lon="-121.4541052"><ele>224.0</ele><time>2026-04-20T22:54:09.054Z</time></trkpt><trkpt lat="39.4658394" lon="-121.4540549"><ele>224.00000000000003</ele><time>2026-04-20T22:55:23.055Z</time></trkpt><trkpt lat="39.4657862" lon="-121.453992"><ele>224.0</ele><time>2026-04-20T22:55:25.054Z</time></trkpt><trkpt lat="39.4657346" lon="-121.4539394"><ele>224.0</ele><time>2026-04-20T22:55:26.054Z</time></trkpt><trkpt lat="39.4656795" lon="-121.4538907"><ele>223.99999999999997</ele><time>2026-04-20T22:55:27.055Z</time></trkpt><trkpt lat="39.4656109" lon="-121.4538428"><ele>223.99999999999997</ele><time>2026-04-20T22:55:28.055Z</time></trkpt><trkpt lat="39.4655223" lon="-121.4537901"><ele>224.0</ele><time>2026-04-20T22:55:29.054Z</time></trkpt><trkpt lat="39.4654144" lon="-121.4537269"><ele>224.0</ele><time>2026-04-20T22:55:30.055Z</time></trkpt><trkpt lat="39.4653011" lon="-121.4536433"><ele>224.0</ele><time>2026-04-20T22:55:31.055Z</time></trkpt><trkpt lat="39.4651757" lon="-121.4535655"><ele>224.0</ele><time>2026-04-20T22:55:32.054Z</time></trkpt><trkpt lat="39.4650465" lon="-121.4534749"><ele>224.0</ele><time>2026-04-20T22:55:33.055Z</time></trkpt><trkpt lat="39.4649045" lon="-121.4533787"><ele>224.0</ele><time>2026-04-20T22:55:34.055Z</time></trkpt><trkpt lat="39.4647539" lon="-121.4532719"><ele>224.0</ele><time>2026-04-20T22:55:35.054Z</time></trkpt><trkpt lat="39.4645985" lon="-121.453165"><ele>224.0</ele><time>2026-04-20T22:55:36.054Z</time></trkpt><trkpt lat="39.4644372" lon="-121.4530553"><ele>224.0</ele><time>2026-04-20T22:55:37.054Z</time></trkpt><trkpt lat="39.4642656" lon="-121.4529413"><ele>224.33333333333334</ele><time>2026-04-20T22:55:38.055Z</time></trkpt><trkpt lat="39.4640895" lon="-121.4528183"><ele>224.66666666666669</ele><time>2026-04-20T22:55:39.055Z</time></trkpt><trkpt lat="39.4639053" lon="-121.4526959"><ele>225.0</ele><time>2026-04-20T22:55:40.055Z</time></trkpt><trkpt lat="39.4637197" lon="-121.4525725"><ele>225.0</ele><time>2026-04-20T22:55:41.055Z</time></trkpt><trkpt lat="39.4635279" lon="-121.4524445"><ele>225.0</ele><time>2026-04-20T22:55:42.055Z</time></trkpt><trkpt lat="39.4633312" lon="-121.4523136"><ele>225.0</ele><time>2026-04-20T22:55:43.055Z</time></trkpt><trkpt lat="39.4631323" lon="-121.4521746"><ele>223.5</ele><time>2026-04-20T22:55:44.055Z</time></trkpt><trkpt lat="39.4629308" lon="-121.4520381"><ele>222.0</ele><time>2026-04-20T22:55:45.054Z</time></trkpt><trkpt lat="39.4627291" lon="-121.4518904"><ele>222.0</ele><time>2026-04-20T22:55:46.055Z</time></trkpt><trkpt lat="39.4625268" lon="-121.4517308"><ele>222.0</ele><time>2026-04-20T22:55:47.054Z</time></trkpt><trkpt lat="39.4623291" lon="-121.4515752"><ele>222.0</ele><time>2026-04-20T22:55:48.054Z</time></trkpt><trkpt lat="39.4621282" lon="-121.4514078"><ele>222.0</ele><time>2026-04-20T22:55:49.054Z</time></trkpt><trkpt lat="39.4619255" lon="-121.451242"><ele>221.5</ele><time>2026-04-20T22:55:50.055Z</time></trkpt><trkpt lat="39.4617223" lon="-121.4510784"><ele>221.0</ele><time>2026-04-20T22:55:51.055Z</time></trkpt><trkpt lat="39.4615179" lon="-121.4509132"><ele>221.0</ele><time>2026-04-20T22:55:52.055Z</time></trkpt><trkpt lat="39.4613191" lon="-121.450748"><ele>221.0</ele><time>2026-04-20T22:55:53.054Z</time></trkpt><trkpt lat="39.4611231" lon="-121.4505886"><ele>220.5</ele><time>2026-04-20T22:55:54.054Z</time></trkpt><trkpt lat="39.4609209" lon="-121.4504244"><ele>220.0</ele><time>2026-04-20T22:55:55.055Z</time></trkpt><trkpt lat="39.4607193" lon="-121.4502594"><ele>220.0</ele><time>2026-04-20T22:55:56.055Z</time></trkpt><trkpt lat="39.4605133" lon="-121.4500899"><ele>220.0</ele><time>2026-04-20T22:55:57.055Z</time></trkpt><trkpt lat="39.4603032" lon="-121.4499083"><ele>219.0</ele><time>2026-04-20T22:55:58.055Z</time></trkpt><trkpt lat="39.4600947" lon="-121.4497313"><ele>218.0</ele><time>2026-04-20T22:55:59.055Z</time></trkpt><trkpt lat="39.4598826" lon="-121.44955"><ele>218.0</ele><time>2026-04-20T22:56:00.055Z</time></trkpt><trkpt lat="39.4596785" lon="-121.4493735"><ele>218.0</ele><time>2026-04-20T22:56:01.054Z</time></trkpt><trkpt lat="39.4594642" lon="-121.4491995"><ele>218.0</ele><time>2026-04-20T22:56:02.055Z</time></trkpt><trkpt lat="39.4592505" lon="-121.4490211"><ele>218.0</ele><time>2026-04-20T22:56:03.054Z</time></trkpt><trkpt lat="39.459045" lon="-121.4488517"><ele>218.5</ele><time>2026-04-20T22:56:04.055Z</time></trkpt><trkpt lat="39.4588427" lon="-121.4486803"><ele>219.0</ele><time>2026-04-20T22:56:05.055Z</time></trkpt><trkpt lat="39.4586507" lon="-121.4484961"><ele>217.5</ele><time>2026-04-20T22:56:06.054Z</time></trkpt><trkpt lat="39.4584855" lon="-121.4482936"><ele>216.0</ele><time>2026-04-20T22:56:07.054Z</time></trkpt><trkpt lat="39.4583259" lon="-121.4480739"><ele>217.5</ele><time>2026-04-20T22:56:08.055Z</time></trkpt><trkpt lat="39.4581871" lon="-121.447838"><ele>219.0</ele><time>2026-04-20T22:56:09.054Z</time></trkpt><trkpt lat="39.4580614" lon="-121.4475847"><ele>219.0</ele><time>2026-04-20T22:56:10.054Z</time></trkpt><trkpt lat="39.4579549" lon="-121.447328"><ele>219.0</ele><time>2026-04-20T22:56:11.054Z</time></trkpt><trkpt lat="39.4578585" lon="-121.4470533"><ele>216.5</ele><time>2026-04-20T22:56:12.055Z</time></trkpt><trkpt lat="39.4577762" lon="-121.4467761"><ele>214.0</ele><time>2026-04-20T22:56:13.054Z</time></trkpt><trkpt lat="39.4576893" lon="-121.4465057"><ele>215.33333333333331</ele><time>2026-04-20T22:56:14.054Z</time></trkpt><trkpt lat="39.457594" lon="-121.4462478"><ele>216.66666666666669</ele><time>2026-04-20T22:56:15.054Z</time></trkpt><trkpt lat="39.457495" lon="-121.4459976"><ele>218.0</ele><time>2026-04-20T22:56:16.055Z</time></trkpt><trkpt lat="39.457388" lon="-121.4457528"><ele>218.0</ele><time>2026-04-20T22:56:17.054Z</time></trkpt><trkpt lat="39.4572873" lon="-121.445511"><ele>218.0</ele><time>2026-04-20T22:56:18.055Z</time></trkpt><trkpt lat="39.4571995" lon="-121.445264"><ele>218.0</ele><time>2026-04-20T22:56:19.055Z</time></trkpt><trkpt lat="39.4571231" lon="-121.4450066"><ele>215.33333333333334</ele><time>2026-04-20T22:56:20.054Z</time></trkpt><trkpt lat="39.4570663" lon="-121.4447443"><ele>212.66666666666669</ele><time>2026-04-20T22:56:21.054Z</time></trkpt><trkpt lat="39.4570286" lon="-121.4444769"><ele>210.0</ele><time>2026-04-20T22:56:22.055Z</time></trkpt><trkpt lat="39.4569932" lon="-121.4442026"><ele>209.33333333333331</ele><time>2026-04-20T22:56:23.054Z</time></trkpt><trkpt lat="39.4569789" lon="-121.4439218"><ele>208.66666666666666</ele><time>2026-04-20T22:56:24.055Z</time></trkpt><trkpt lat="39.4569821" lon="-121.4436417"><ele>208.0</ele><time>2026-04-20T22:56:25.054Z</time></trkpt><trkpt lat="39.4570038" lon="-121.443372"><ele>208.0</ele><time>2026-04-20T22:56:26.055Z</time></trkpt><trkpt lat="39.4570178" lon="-121.4430948"><ele>208.0</ele><time>2026-04-20T22:56:27.054Z</time></trkpt><trkpt lat="39.4570324" lon="-121.442817"><ele>208.0</ele><time>2026-04-20T22:56:28.054Z</time></trkpt><trkpt lat="39.4570377" lon="-121.4425466"><ele>211.0</ele><time>2026-04-20T22:56:29.054Z</time></trkpt><trkpt lat="39.457024" lon="-121.4422781"><ele>214.0</ele><time>2026-04-20T22:56:30.055Z</time></trkpt><trkpt lat="39.4569882" lon="-121.442014"><ele>217.0</ele><time>2026-04-20T22:56:31.054Z</time></trkpt><trkpt lat="39.4569439" lon="-121.4417578"><ele>219.0</ele><time>2026-04-20T22:56:32.054Z</time></trkpt><trkpt lat="39.4568753" lon="-121.441512"><ele>221.0</ele><time>2026-04-20T22:56:33.055Z</time></trkpt><trkpt lat="39.4567979" lon="-121.4412788"><ele>223.0</ele><time>2026-04-20T22:56:34.055Z</time></trkpt><trkpt lat="39.4566943" lon="-121.4410583"><ele>223.0</ele><time>2026-04-20T22:56:35.054Z</time></trkpt><trkpt lat="39.4565735" lon="-121.44085"><ele>223.0</ele><time>2026-04-20T22:56:36.055Z</time></trkpt><trkpt lat="39.4564349" lon="-121.4406634"><ele>223.0</ele><time>2026-04-20T22:56:37.055Z</time></trkpt><trkpt lat="39.4562748" lon="-121.4404956"><ele>224.66666666666666</ele><time>2026-04-20T22:56:38.054Z</time></trkpt><trkpt lat="39.4561089" lon="-121.4403323"><ele>226.33333333333331</ele><time>2026-04-20T22:56:39.054Z</time></trkpt><trkpt lat="39.4559439" lon="-121.4401794"><ele>228.0</ele><time>2026-04-20T22:56:40.054Z</time></trkpt><trkpt lat="39.4557564" lon="-121.4400666"><ele>228.0</ele><time>2026-04-20T22:56:41.054Z</time></trkpt><trkpt lat="39.4555636" lon="-121.4399908"><ele>228.0</ele><time>2026-04-20T22:56:42.054Z</time></trkpt><trkpt lat="39.4553636" lon="-121.4399327"><ele>228.0</ele><time>2026-04-20T22:56:43.055Z</time></trkpt><trkpt lat="39.4551545" lon="-121.4398777"><ele>228.33333333333331</ele><time>2026-04-20T22:56:44.055Z</time></trkpt><trkpt lat="39.4549467" lon="-121.4398186"><ele>228.66666666666666</ele><time>2026-04-20T22:56:45.055Z</time></trkpt><trkpt lat="39.4547292" lon="-121.4397541"><ele>229.0</ele><time>2026-04-20T22:56:46.055Z</time></trkpt><trkpt lat="39.4545213" lon="-121.439699"><ele>228.33333333333331</ele><time>2026-04-20T22:56:47.054Z</time></trkpt><trkpt lat="39.4543075" lon="-121.4396379"><ele>227.66666666666669</ele><time>2026-04-20T22:56:48.055Z</time></trkpt><trkpt lat="39.4540953" lon="-121.4395757"><ele>227.0</ele><time>2026-04-20T22:56:49.054Z</time></trkpt><trkpt lat="39.4538804" lon="-121.4395054"><ele>229.33333333333334</ele><time>2026-04-20T22:56:50.054Z</time></trkpt><trkpt lat="39.4536619" lon="-121.4394495"><ele>231.66666666666669</ele><time>2026-04-20T22:56:51.055Z</time></trkpt><trkpt lat="39.4534468" lon="-121.4393845"><ele>234.0</ele><time>2026-04-20T22:56:52.055Z</time></trkpt><trkpt lat="39.4532253" lon="-121.4393178"><ele>234.0</ele><time>2026-04-20T22:56:53.055Z</time></trkpt><trkpt lat="39.4530082" lon="-121.4392566"><ele>234.0</ele><time>2026-04-20T22:56:54.055Z</time></trkpt><trkpt lat="39.4527815" lon="-121.439188"><ele>233.5</ele><time>2026-04-20T22:56:55.055Z</time></trkpt><trkpt lat="39.4525528" lon="-121.4391226"><ele>233.0</ele><time>2026-04-20T22:56:56.055Z</time></trkpt><trkpt lat="39.4523272" lon="-121.43905"><ele>230.0</ele><time>2026-04-20T22:56:57.055Z</time></trkpt><trkpt lat="39.4521035" lon="-121.4389795"><ele>227.0</ele><time>2026-04-20T22:56:58.055Z</time></trkpt><trkpt lat="39.4518788" lon="-121.438908"><ele>227.0</ele><time>2026-04-20T22:56:59.054Z</time></trkpt><trkpt lat="39.4516532" lon="-121.438841"><ele>227.0</ele><time>2026-04-20T22:57:00.055Z</time></trkpt><trkpt lat="39.4514287" lon="-121.4387707"><ele>227.5</ele><time>2026-04-20T22:57:01.055Z</time></trkpt><trkpt lat="39.4512017" lon="-121.4387057"><ele>228.0</ele><time>2026-04-20T22:57:02.054Z</time></trkpt><trkpt lat="39.4509755" lon="-121.4386413"><ele>228.0</ele><time>2026-04-20T22:57:03.054Z</time></trkpt><trkpt lat="39.4507471" lon="-121.4385732"><ele>228.0</ele><time>2026-04-20T22:57:04.055Z</time></trkpt><trkpt lat="39.4505272" lon="-121.4385005"><ele>226.0</ele><time>2026-04-20T22:57:05.054Z</time></trkpt><trkpt lat="39.4503041" lon="-121.438433"><ele>224.0</ele><time>2026-04-20T22:57:06.054Z</time></trkpt><trkpt lat="39.45008" lon="-121.438366"><ele>224.0</ele><time>2026-04-20T22:57:07.055Z</time></trkpt><trkpt lat="39.4498581" lon="-121.438302"><ele>224.0</ele><time>2026-04-20T22:57:08.054Z</time></trkpt><trkpt lat="39.4496281" lon="-121.4382357"><ele>222.5</ele><time>2026-04-20T22:57:09.055Z</time></trkpt><trkpt lat="39.4494013" lon="-121.4381695"><ele>221.0</ele><time>2026-04-20T22:57:10.055Z</time></trkpt><trkpt lat="39.4491744" lon="-121.4381036"><ele>221.0</ele><time>2026-04-20T22:57:11.054Z</time></trkpt><trkpt lat="39.4489446" lon="-121.438035"><ele>221.0</ele><time>2026-04-20T22:57:12.055Z</time></trkpt><trkpt lat="39.4487133" lon="-121.4379665"><ele>218.5</ele><time>2026-04-20T22:57:13.055Z</time></trkpt><trkpt lat="39.448483" lon="-121.4378961"><ele>216.0</ele><time>2026-04-20T22:57:14.054Z</time></trkpt><trkpt lat="39.4482523" lon="-121.4378223"><ele>216.0</ele><time>2026-04-20T22:57:15.055Z</time></trkpt><trkpt lat="39.4480254" lon="-121.4377508"><ele>216.0</ele><time>2026-04-20T22:57:16.055Z</time></trkpt><trkpt lat="39.4477915" lon="-121.4376927"><ele>215.0</ele><time>2026-04-20T22:57:17.055Z</time></trkpt><trkpt lat="39.4475676" lon="-121.4376274"><ele>214.0</ele><time>2026-04-20T22:57:18.055Z</time></trkpt><trkpt lat="39.447359" lon="-121.437565"><ele>213.0</ele><time>2026-04-20T22:57:19.055Z</time></trkpt><trkpt lat="39.4471716" lon="-121.4375017"><ele>213.33333333333331</ele><time>2026-04-20T22:57:20.054Z</time></trkpt><trkpt lat="39.4469902" lon="-121.4374319"><ele>213.66666666666666</ele><time>2026-04-20T22:57:21.055Z</time></trkpt><trkpt lat="39.4468194" lon="-121.4373299"><ele>214.0</ele><time>2026-04-20T22:57:22.055Z</time></trkpt><trkpt lat="39.4466559" lon="-121.4371936"><ele>214.0</ele><time>2026-04-20T22:57:23.055Z</time></trkpt><trkpt lat="39.4464778" lon="-121.4370469"><ele>214.0</ele><time>2026-04-20T22:57:24.055Z</time></trkpt><trkpt lat="39.4463255" lon="-121.4368577"><ele>214.0</ele><time>2026-04-20T22:57:25.055Z</time></trkpt><trkpt lat="39.4462061" lon="-121.4366477"><ele>214.0</ele><time>2026-04-20T22:57:26.054Z</time></trkpt><trkpt lat="39.4460847" lon="-121.4364441"><ele>214.0</ele><time>2026-04-20T22:57:27.055Z</time></trkpt><trkpt lat="39.4459789" lon="-121.436199"><ele>214.0</ele><time>2026-04-20T22:57:28.054Z</time></trkpt><trkpt lat="39.4458941" lon="-121.4359493"><ele>215.66666666666666</ele><time>2026-04-20T22:57:29.054Z</time></trkpt><trkpt lat="39.4458122" lon="-121.4356874"><ele>217.33333333333331</ele><time>2026-04-20T22:57:30.054Z</time></trkpt><trkpt lat="39.4457374" lon="-121.4354223"><ele>219.0</ele><time>2026-04-20T22:57:31.054Z</time></trkpt><trkpt lat="39.4456583" lon="-121.4351709"><ele>219.33333333333331</ele><time>2026-04-20T22:57:32.054Z</time></trkpt><trkpt lat="39.4455651" lon="-121.4349218"><ele>219.66666666666666</ele><time>2026-04-20T22:57:33.054Z</time></trkpt><trkpt lat="39.4454435" lon="-121.4346749"><ele>220.0</ele><time>2026-04-20T22:57:34.055Z</time></trkpt><trkpt lat="39.445297" lon="-121.4344567"><ele>219.33333333333331</ele><time>2026-04-20T22:57:35.054Z</time></trkpt><trkpt lat="39.4451349" lon="-121.4342672"><ele>218.66666666666669</ele><time>2026-04-20T22:57:36.055Z</time></trkpt><trkpt lat="39.4449554" lon="-121.4340949"><ele>218.0</ele><time>2026-04-20T22:57:37.055Z</time></trkpt><trkpt lat="39.4447543" lon="-121.4339441"><ele>215.5</ele><time>2026-04-20T22:57:38.054Z</time></trkpt><trkpt lat="39.4445435" lon="-121.4338257"><ele>213.0</ele><time>2026-04-20T22:57:39.055Z</time></trkpt><trkpt lat="39.4443207" lon="-121.4337395"><ele>212.5</ele><time>2026-04-20T22:57:40.055Z</time></trkpt><trkpt lat="39.4440959" lon="-121.4336751"><ele>212.0</ele><time>2026-04-20T22:57:41.055Z</time></trkpt><trkpt lat="39.4438728" lon="-121.4336083"><ele>213.0</ele><time>2026-04-20T22:57:42.055Z</time></trkpt><trkpt lat="39.443664" lon="-121.4335234"><ele>214.0</ele><time>2026-04-20T22:57:43.054Z</time></trkpt><trkpt lat="39.4434626" lon="-121.4334143"><ele>215.0</ele><time>2026-04-20T22:57:44.054Z</time></trkpt><trkpt lat="39.4432707" lon="-121.4332678"><ele>215.0</ele><time>2026-04-20T22:57:45.055Z</time></trkpt><trkpt lat="39.4430989" lon="-121.4331035"><ele>215.0</ele><time>2026-04-20T22:57:46.054Z</time></trkpt><trkpt lat="39.4429095" lon="-121.4329439"><ele>215.0</ele><time>2026-04-20T22:57:47.055Z</time></trkpt><trkpt lat="39.4427293" lon="-121.4327675"><ele>212.5</ele><time>2026-04-20T22:57:48.055Z</time></trkpt><trkpt lat="39.4425412" lon="-121.432579"><ele>210.0</ele><time>2026-04-20T22:57:49.055Z</time></trkpt><trkpt lat="39.4423492" lon="-121.4324164"><ele>210.0</ele><time>2026-04-20T22:57:50.055Z</time></trkpt><trkpt lat="39.4421328" lon="-121.4322728"><ele>210.0</ele><time>2026-04-20T22:57:51.055Z</time></trkpt><trkpt lat="39.4419235" lon="-121.4321446"><ele>208.5</ele><time>2026-04-20T22:57:52.055Z</time></trkpt><trkpt lat="39.4416978" lon="-121.4320299"><ele>207.0</ele><time>2026-04-20T22:57:53.054Z</time></trkpt><trkpt lat="39.4414802" lon="-121.4319101"><ele>206.0</ele><time>2026-04-20T22:57:54.055Z</time></trkpt><trkpt lat="39.4412649" lon="-121.4318031"><ele>205.0</ele><time>2026-04-20T22:57:55.054Z</time></trkpt><trkpt lat="39.4410445" lon="-121.4317071"><ele>205.0</ele><time>2026-04-20T22:57:56.054Z</time></trkpt><trkpt lat="39.4408121" lon="-121.4316453"><ele>205.0</ele><time>2026-04-20T22:57:57.055Z</time></trkpt><trkpt lat="39.4405856" lon="-121.4315808"><ele>206.0</ele><time>2026-04-20T22:57:58.055Z</time></trkpt><trkpt lat="39.4403456" lon="-121.4315261"><ele>207.0</ele><time>2026-04-20T22:57:59.055Z</time></trkpt><trkpt lat="39.4401134" lon="-121.43148"><ele>207.0</ele><time>2026-04-20T22:58:00.054Z</time></trkpt><trkpt lat="39.43988" lon="-121.4314311"><ele>207.0</ele><time>2026-04-20T22:58:01.055Z</time></trkpt><trkpt lat="39.4396462" lon="-121.4313871"><ele>207.5</ele><time>2026-04-20T22:58:02.055Z</time></trkpt><trkpt lat="39.4394168" lon="-121.4313467"><ele>208.0</ele><time>2026-04-20T22:58:03.055Z</time></trkpt><trkpt lat="39.4391878" lon="-121.4313067"><ele>208.5</ele><time>2026-04-20T22:58:04.054Z</time></trkpt><trkpt lat="39.4389539" lon="-121.4312601"><ele>209.0</ele><time>2026-04-20T22:58:05.055Z</time></trkpt><trkpt lat="39.4387267" lon="-121.4312118"><ele>208.0</ele><time>2026-04-20T22:58:06.055Z</time></trkpt><trkpt lat="39.4384883" lon="-121.431162"><ele>207.0</ele><time>2026-04-20T22:58:07.054Z</time></trkpt><trkpt lat="39.4382554" lon="-121.4311144"><ele>207.0</ele><time>2026-04-20T22:58:08.054Z</time></trkpt><trkpt lat="39.4380188" lon="-121.4310664"><ele>207.0</ele><time>2026-04-20T22:58:09.055Z</time></trkpt><trkpt lat="39.4377866" lon="-121.4310252"><ele>205.5</ele><time>2026-04-20T22:58:10.055Z</time></trkpt><trkpt lat="39.4375495" lon="-121.4309748"><ele>204.0</ele><time>2026-04-20T22:58:11.054Z</time></trkpt><trkpt lat="39.4373094" lon="-121.430922"><ele>205.0</ele><time>2026-04-20T22:58:12.055Z</time></trkpt><trkpt lat="39.4370722" lon="-121.4308691"><ele>206.0</ele><time>2026-04-20T22:58:13.054Z</time></trkpt><trkpt lat="39.4368321" lon="-121.4308243"><ele>206.0</ele><time>2026-04-20T22:58:14.054Z</time></trkpt><trkpt lat="39.4365922" lon="-121.4307685"><ele>206.0</ele><time>2026-04-20T22:58:15.054Z</time></trkpt><trkpt lat="39.4363461" lon="-121.4307156"><ele>205.0</ele><time>2026-04-20T22:58:16.055Z</time></trkpt><trkpt lat="39.4361033" lon="-121.4306683"><ele>204.0</ele><time>2026-04-20T22:58:17.054Z</time></trkpt><trkpt lat="39.4358565" lon="-121.4306192"><ele>204.0</ele><time>2026-04-20T22:58:18.055Z</time></trkpt><trkpt lat="39.4356117" lon="-121.4305748"><ele>204.0</ele><time>2026-04-20T22:58:19.054Z</time></trkpt><trkpt lat="39.4353693" lon="-121.4305489"><ele>203.0</ele><time>2026-04-20T22:58:20.055Z</time></trkpt><trkpt lat="39.4351187" lon="-121.4305567"><ele>202.0</ele><time>2026-04-20T22:58:21.054Z</time></trkpt><trkpt lat="39.4348708" lon="-121.4305649"><ele>201.5</ele><time>2026-04-20T22:58:22.054Z</time></trkpt><trkpt lat="39.4346187" lon="-121.4305758"><ele>201.0</ele><time>2026-04-20T22:58:23.055Z</time></trkpt><trkpt lat="39.4343563" lon="-121.4305798"><ele>201.0</ele><time>2026-04-20T22:58:24.054Z</time></trkpt><trkpt lat="39.4340974" lon="-121.4305846"><ele>201.0</ele><time>2026-04-20T22:58:25.055Z</time></trkpt><trkpt lat="39.4338441" lon="-121.4305886"><ele>201.0</ele><time>2026-04-20T22:58:26.054Z</time></trkpt><trkpt lat="39.4335846" lon="-121.4305969"><ele>201.0</ele><time>2026-04-20T22:58:27.055Z</time></trkpt><trkpt lat="39.4333213" lon="-121.4306056"><ele>201.0</ele><time>2026-04-20T22:58:28.055Z</time></trkpt><trkpt lat="39.4330601" lon="-121.4306126"><ele>201.0</ele><time>2026-04-20T22:58:29.055Z</time></trkpt><trkpt lat="39.4328039" lon="-121.4306187"><ele>199.5</ele><time>2026-04-20T22:58:30.055Z</time></trkpt><trkpt lat="39.4325468" lon="-121.4306287"><ele>198.0</ele><time>2026-04-20T22:58:31.055Z</time></trkpt><trkpt lat="39.4322883" lon="-121.4306427"><ele>196.5</ele><time>2026-04-20T22:58:32.054Z</time></trkpt><trkpt lat="39.4320276" lon="-121.4306475"><ele>195.0</ele><time>2026-04-20T22:58:33.055Z</time></trkpt><trkpt lat="39.4317735" lon="-121.4306546"><ele>195.0</ele><time>2026-04-20T22:58:34.055Z</time></trkpt><trkpt lat="39.4315217" lon="-121.4306698"><ele>195.0</ele><time>2026-04-20T22:58:35.054Z</time></trkpt><trkpt lat="39.4312787" lon="-121.4306773"><ele>194.0</ele><time>2026-04-20T22:58:36.054Z</time></trkpt><trkpt lat="39.4310396" lon="-121.4306846"><ele>193.0</ele><time>2026-04-20T22:58:37.055Z</time></trkpt><trkpt lat="39.4308" lon="-121.4306606"><ele>193.0</ele><time>2026-04-20T22:58:38.055Z</time></trkpt><trkpt lat="39.4305641" lon="-121.4306039"><ele>193.0</ele><time>2026-04-20T22:58:39.054Z</time></trkpt><trkpt lat="39.4303372" lon="-121.4304987"><ele>193.0</ele><time>2026-04-20T22:58:40.055Z</time></trkpt><trkpt lat="39.4301115" lon="-121.4303541"><ele>193.0</ele><time>2026-04-20T22:58:41.054Z</time></trkpt><trkpt lat="39.4299033" lon="-121.4302081"><ele>193.0</ele><time>2026-04-20T22:58:42.055Z</time></trkpt><trkpt lat="39.4296899" lon="-121.4300413"><ele>193.0</ele><time>2026-04-20T22:58:43.054Z</time></trkpt><trkpt lat="39.429511" lon="-121.4298605"><ele>194.0</ele><time>2026-04-20T22:58:44.054Z</time></trkpt><trkpt lat="39.4293226" lon="-121.4296945"><ele>195.0</ele><time>2026-04-20T22:58:45.055Z</time></trkpt><trkpt lat="39.4291098" lon="-121.4295639"><ele>195.0</ele><time>2026-04-20T22:58:46.054Z</time></trkpt><trkpt lat="39.4288747" lon="-121.4294932"><ele>195.0</ele><time>2026-04-20T22:58:47.054Z</time></trkpt><trkpt lat="39.4286255" lon="-121.4294429"><ele>192.5</ele><time>2026-04-20T22:58:48.054Z</time></trkpt><trkpt lat="39.4283883" lon="-121.4294253"><ele>190.0</ele><time>2026-04-20T22:58:49.055Z</time></trkpt><trkpt lat="39.4281528" lon="-121.4294082"><ele>188.5</ele><time>2026-04-20T22:58:50.055Z</time></trkpt><trkpt lat="39.4279112" lon="-121.4293796"><ele>187.0</ele><time>2026-04-20T22:58:51.054Z</time></trkpt><trkpt lat="39.427674" lon="-121.4293538"><ele>187.0</ele><time>2026-04-20T22:58:52.055Z</time></trkpt><trkpt lat="39.4274393" lon="-121.4293295"><ele>187.0</ele><time>2026-04-20T22:58:53.054Z</time></trkpt><trkpt lat="39.4271966" lon="-121.4293067"><ele>185.0</ele><time>2026-04-20T22:58:54.055Z</time></trkpt><trkpt lat="39.4269617" lon="-121.4292858"><ele>183.0</ele><time>2026-04-20T22:58:55.055Z</time></trkpt><trkpt lat="39.4267169" lon="-121.4292632"><ele>183.0</ele><time>2026-04-20T22:58:56.054Z</time></trkpt><trkpt lat="39.4264749" lon="-121.4292324"><ele>183.0</ele><time>2026-04-20T22:58:57.054Z</time></trkpt><trkpt lat="39.4262326" lon="-121.4292043"><ele>181.0</ele><time>2026-04-20T22:58:58.054Z</time></trkpt><trkpt lat="39.4259885" lon="-121.4291747"><ele>179.0</ele><time>2026-04-20T22:58:59.054Z</time></trkpt><trkpt lat="39.4257437" lon="-121.4291495"><ele>179.0</ele><time>2026-04-20T22:59:00.055Z</time></trkpt><trkpt lat="39.4255028" lon="-121.4291218"><ele>179.0</ele><time>2026-04-20T22:59:01.054Z</time></trkpt><trkpt lat="39.4252581" lon="-121.4290971"><ele>176.5</ele><time>2026-04-20T22:59:02.054Z</time></trkpt><trkpt lat="39.4250152" lon="-121.4290691"><ele>174.0</ele><time>2026-04-20T22:59:03.054Z</time></trkpt><trkpt lat="39.424771" lon="-121.4290469"><ele>173.0</ele><time>2026-04-20T22:59:04.055Z</time></trkpt><trkpt lat="39.4245318" lon="-121.4290261"><ele>172.0</ele><time>2026-04-20T22:59:05.054Z</time></trkpt><trkpt lat="39.4242843" lon="-121.4289995"><ele>172.0</ele><time>2026-04-20T22:59:06.055Z</time></trkpt><trkpt lat="39.4240439" lon="-121.4289568"><ele>172.0</ele><time>2026-04-20T22:59:07.054Z</time></trkpt><trkpt lat="39.4238029" lon="-121.4288913"><ele>171.0</ele><time>2026-04-20T22:59:08.055Z</time></trkpt><trkpt lat="39.4235699" lon="-121.4287926"><ele>170.0</ele><time>2026-04-20T22:59:09.054Z</time></trkpt><trkpt lat="39.4233409" lon="-121.4286791"><ele>170.0</ele><time>2026-04-20T22:59:10.055Z</time></trkpt><trkpt lat="39.4231252" lon="-121.4285419"><ele>170.0</ele><time>2026-04-20T22:59:11.054Z</time></trkpt><trkpt lat="39.4229111" lon="-121.4284044"><ele>167.5</ele><time>2026-04-20T22:59:12.054Z</time></trkpt><trkpt lat="39.4227019" lon="-121.4282626"><ele>165.0</ele><time>2026-04-20T22:59:13.054Z</time></trkpt><trkpt lat="39.4224864" lon="-121.42813"><ele>165.0</ele><time>2026-04-20T22:59:14.054Z</time></trkpt><trkpt lat="39.4222592" lon="-121.4280067"><ele>165.0</ele><time>2026-04-20T22:59:15.055Z</time></trkpt><trkpt lat="39.422025" lon="-121.4278998"><ele>167.0</ele><time>2026-04-20T22:59:16.054Z</time></trkpt><trkpt lat="39.4217855" lon="-121.4278007"><ele>169.0</ele><time>2026-04-20T22:59:17.055Z</time></trkpt><trkpt lat="39.4215439" lon="-121.4276929"><ele>165.5</ele><time>2026-04-20T22:59:18.055Z</time></trkpt><trkpt lat="39.421305" lon="-121.4275851"><ele>162.0</ele><time>2026-04-20T22:59:19.055Z</time></trkpt><trkpt lat="39.4210588" lon="-121.4274774"><ele>162.0</ele><time>2026-04-20T22:59:20.055Z</time></trkpt><trkpt lat="39.4208243" lon="-121.4273736"><ele>162.0</ele><time>2026-04-20T22:59:21.055Z</time></trkpt><trkpt lat="39.420585" lon="-121.4272738"><ele>159.5</ele><time>2026-04-20T22:59:22.054Z</time></trkpt><trkpt lat="39.4203466" lon="-121.4271988"><ele>157.0</ele><time>2026-04-20T22:59:23.055Z</time></trkpt><trkpt lat="39.4201119" lon="-121.4271504"><ele>157.0</ele><time>2026-04-20T22:59:24.054Z</time></trkpt><trkpt lat="39.4198661" lon="-121.4271499"><ele>157.0</ele><time>2026-04-20T22:59:25.055Z</time></trkpt><trkpt lat="39.4196154" lon="-121.4271655"><ele>161.0</ele><time>2026-04-20T22:59:26.054Z</time></trkpt><trkpt lat="39.4193763" lon="-121.4271907"><ele>165.0</ele><time>2026-04-20T22:59:27.054Z</time></trkpt><trkpt lat="39.4191324" lon="-121.4272223"><ele>165.0</ele><time>2026-04-20T22:59:28.055Z</time></trkpt><trkpt lat="39.4188845" lon="-121.4272291"><ele>165.0</ele><time>2026-04-20T22:59:29.055Z</time></trkpt><trkpt lat="39.4186516" lon="-121.4271989"><ele>173.0</ele><time>2026-04-20T22:59:30.054Z</time></trkpt><trkpt lat="39.4184294" lon="-121.4271397"><ele>181.0</ele><time>2026-04-20T22:59:31.055Z</time></trkpt><trkpt lat="39.4182273" lon="-121.4270185"><ele>181.0</ele><time>2026-04-20T22:59:32.055Z</time></trkpt><trkpt lat="39.4180189" lon="-121.4268904"><ele>181.0</ele><time>2026-04-20T22:59:33.054Z</time></trkpt><trkpt lat="39.4178283" lon="-121.42674"><ele>180.33333333333334</ele><time>2026-04-20T22:59:34.054Z</time></trkpt><trkpt lat="39.417668" lon="-121.4265514"><ele>179.66666666666666</ele><time>2026-04-20T22:59:35.054Z</time></trkpt><trkpt lat="39.4175155" lon="-121.4263468"><ele>179.0</ele><time>2026-04-20T22:59:36.054Z</time></trkpt><trkpt lat="39.4173662" lon="-121.4261463"><ele>181.33333333333331</ele><time>2026-04-20T22:59:37.055Z</time></trkpt><trkpt lat="39.4172047" lon="-121.4259625"><ele>183.66666666666666</ele><time>2026-04-20T22:59:38.054Z</time></trkpt><trkpt lat="39.4170267" lon="-121.4257954"><ele>186.0</ele><time>2026-04-20T22:59:39.055Z</time></trkpt><trkpt lat="39.4168435" lon="-121.4256361"><ele>186.0</ele><time>2026-04-20T22:59:40.054Z</time></trkpt><trkpt lat="39.4166572" lon="-121.4255014"><ele>186.0</ele><time>2026-04-20T22:59:41.054Z</time></trkpt><trkpt lat="39.4164659" lon="-121.4253936"><ele>186.0</ele><time>2026-04-20T22:59:42.054Z</time></trkpt><trkpt lat="39.4162712" lon="-121.4252971"><ele>187.66666666666666</ele><time>2026-04-20T22:59:43.054Z</time></trkpt><trkpt lat="39.4160763" lon="-121.4251986"><ele>189.33333333333331</ele><time>2026-04-20T22:59:44.054Z</time></trkpt><trkpt lat="39.415885" lon="-121.425094"><ele>191.0</ele><time>2026-04-20T22:59:45.054Z</time></trkpt><trkpt lat="39.4156861" lon="-121.4249818"><ele>191.0</ele><time>2026-04-20T22:59:46.055Z</time></trkpt><trkpt lat="39.4155043" lon="-121.4248472"><ele>191.0</ele><time>2026-04-20T22:59:47.055Z</time></trkpt><trkpt lat="39.4153247" lon="-121.4247003"><ele>191.0</ele><time>2026-04-20T22:59:48.055Z</time></trkpt><trkpt lat="39.4151535" lon="-121.4245387"><ele>190.66666666666666</ele><time>2026-04-20T22:59:49.054Z</time></trkpt><trkpt lat="39.4149725" lon="-121.424361"><ele>190.33333333333334</ele><time>2026-04-20T22:59:50.055Z</time></trkpt><trkpt lat="39.4147996" lon="-121.4241863"><ele>190.0</ele><time>2026-04-20T22:59:51.054Z</time></trkpt><trkpt lat="39.4146253" lon="-121.4240045"><ele>190.0</ele><time>2026-04-20T22:59:52.055Z</time></trkpt><trkpt lat="39.4144485" lon="-121.4238191"><ele>190.0</ele><time>2026-04-20T22:59:53.055Z</time></trkpt><trkpt lat="39.4142633" lon="-121.4236301"><ele>192.0</ele><time>2026-04-20T22:59:54.054Z</time></trkpt><trkpt lat="39.4140787" lon="-121.4234429"><ele>194.0</ele><time>2026-04-20T22:59:55.054Z</time></trkpt><trkpt lat="39.4138973" lon="-121.4232565"><ele>194.0</ele><time>2026-04-20T22:59:56.055Z</time></trkpt><trkpt lat="39.4137088" lon="-121.4230778"><ele>194.0</ele><time>2026-04-20T22:59:57.055Z</time></trkpt><trkpt lat="39.4135127" lon="-121.4229161"><ele>194.0</ele><time>2026-04-20T22:59:58.054Z</time></trkpt><trkpt lat="39.4133128" lon="-121.4227711"><ele>194.0</ele><time>2026-04-20T22:59:59.055Z</time></trkpt><trkpt lat="39.4131117" lon="-121.4226401"><ele>194.0</ele><time>2026-04-20T23:00:00.055Z</time></trkpt><trkpt lat="39.4128968" lon="-121.4225231"><ele>194.0</ele><time>2026-04-20T23:00:01.055Z</time></trkpt><trkpt lat="39.4126856" lon="-121.4224213"><ele>194.0</ele><time>2026-04-20T23:00:02.054Z</time></trkpt><trkpt lat="39.4124723" lon="-121.4223159"><ele>194.0</ele><time>2026-04-20T23:00:03.054Z</time></trkpt><trkpt lat="39.4122579" lon="-121.4222115"><ele>196.0</ele><time>2026-04-20T23:00:04.054Z</time></trkpt><trkpt lat="39.4120428" lon="-121.4221128"><ele>198.0</ele><time>2026-04-20T23:00:05.054Z</time></trkpt><trkpt lat="39.4118263" lon="-121.4220126"><ele>198.0</ele><time>2026-04-20T23:00:06.055Z</time></trkpt><trkpt lat="39.4116144" lon="-121.4219116"><ele>198.0</ele><time>2026-04-20T23:00:07.054Z</time></trkpt><trkpt lat="39.4114032" lon="-121.4217986"><ele>195.5</ele><time>2026-04-20T23:00:08.055Z</time></trkpt><trkpt lat="39.4111989" lon="-121.4216699"><ele>193.0</ele><time>2026-04-20T23:00:09.054Z</time></trkpt><trkpt lat="39.4110027" lon="-121.4215146"><ele>193.0</ele><time>2026-04-20T23:00:10.055Z</time></trkpt><trkpt lat="39.4108226" lon="-121.4213304"><ele>193.0</ele><time>2026-04-20T23:00:11.054Z</time></trkpt><trkpt lat="39.4106559" lon="-121.4211351"><ele>193.5</ele><time>2026-04-20T23:00:12.054Z</time></trkpt><trkpt lat="39.4104899" lon="-121.4209273"><ele>194.0</ele><time>2026-04-20T23:00:13.054Z</time></trkpt><trkpt lat="39.4103212" lon="-121.4207228"><ele>194.0</ele><time>2026-04-20T23:00:14.054Z</time></trkpt><trkpt lat="39.4101603" lon="-121.4205228"><ele>194.0</ele><time>2026-04-20T23:00:15.054Z</time></trkpt><trkpt lat="39.4099866" lon="-121.4203301"><ele>195.5</ele><time>2026-04-20T23:00:16.054Z</time></trkpt><trkpt lat="39.4097981" lon="-121.4201545"><ele>197.0</ele><time>2026-04-20T23:00:17.055Z</time></trkpt><trkpt lat="39.4096029" lon="-121.4200124"><ele>197.0</ele><time>2026-04-20T23:00:18.054Z</time></trkpt><trkpt lat="39.4094032" lon="-121.4199133"><ele>197.0</ele><time>2026-04-20T23:00:19.054Z</time></trkpt><trkpt lat="39.4091848" lon="-121.4198499"><ele>197.0</ele><time>2026-04-20T23:00:20.055Z</time></trkpt><trkpt lat="39.4089661" lon="-121.4197861"><ele>197.0</ele><time>2026-04-20T23:00:21.055Z</time></trkpt><trkpt lat="39.4087523" lon="-121.4197161"><ele>197.0</ele><time>2026-04-20T23:00:22.055Z</time></trkpt><trkpt lat="39.408541" lon="-121.4196427"><ele>197.0</ele><time>2026-04-20T23:00:23.055Z</time></trkpt><trkpt lat="39.4083187" lon="-121.4195546"><ele>198.66666666666669</ele><time>2026-04-20T23:00:24.054Z</time></trkpt><trkpt lat="39.4081109" lon="-121.4194593"><ele>200.33333333333331</ele><time>2026-04-20T23:00:25.055Z</time></trkpt><trkpt lat="39.4079063" lon="-121.4193541"><ele>202.0</ele><time>2026-04-20T23:00:26.054Z</time></trkpt><trkpt lat="39.4077039" lon="-121.4192294"><ele>202.66666666666666</ele><time>2026-04-20T23:00:27.054Z</time></trkpt><trkpt lat="39.4075135" lon="-121.4190957"><ele>203.33333333333331</ele><time>2026-04-20T23:00:28.055Z</time></trkpt><trkpt lat="39.4073258" lon="-121.418961"><ele>204.0</ele><time>2026-04-20T23:00:29.054Z</time></trkpt><trkpt lat="39.4071302" lon="-121.4188206"><ele>207.0</ele><time>2026-04-20T23:00:30.054Z</time></trkpt><trkpt lat="39.4069359" lon="-121.4186795"><ele>210.0</ele><time>2026-04-20T23:00:31.055Z</time></trkpt><trkpt lat="39.4067373" lon="-121.4185361"><ele>210.0</ele><time>2026-04-20T23:00:32.054Z</time></trkpt><trkpt lat="39.4065387" lon="-121.418388"><ele>210.0</ele><time>2026-04-20T23:00:33.055Z</time></trkpt><trkpt lat="39.4063414" lon="-121.4182428"><ele>208.5</ele><time>2026-04-20T23:00:34.055Z</time></trkpt><trkpt lat="39.406142" lon="-121.4181024"><ele>207.0</ele><time>2026-04-20T23:00:35.055Z</time></trkpt><trkpt lat="39.405935" lon="-121.4179557"><ele>210.5</ele><time>2026-04-20T23:00:36.054Z</time></trkpt><trkpt lat="39.4057385" lon="-121.4178068"><ele>214.0</ele><time>2026-04-20T23:00:37.055Z</time></trkpt><trkpt lat="39.4055377" lon="-121.4176516"><ele>214.5</ele><time>2026-04-20T23:00:38.055Z</time></trkpt><trkpt lat="39.4053397" lon="-121.4175049"><ele>215.0</ele><time>2026-04-20T23:00:39.055Z</time></trkpt><trkpt lat="39.4051394" lon="-121.4173671"><ele>215.0</ele><time>2026-04-20T23:00:40.054Z</time></trkpt><trkpt lat="39.4049306" lon="-121.4172455"><ele>215.0</ele><time>2026-04-20T23:00:41.055Z</time></trkpt><trkpt lat="39.404727" lon="-121.4171295"><ele>219.0</ele><time>2026-04-20T23:00:42.054Z</time></trkpt><trkpt lat="39.404504" lon="-121.4170272"><ele>223.0</ele><time>2026-04-20T23:00:43.055Z</time></trkpt><trkpt lat="39.404281" lon="-121.4169251"><ele>223.0</ele><time>2026-04-20T23:00:44.055Z</time></trkpt><trkpt lat="39.4040663" lon="-121.416824"><ele>223.0</ele><time>2026-04-20T23:00:45.055Z</time></trkpt><trkpt lat="39.4038436" lon="-121.4167256"><ele>224.0</ele><time>2026-04-20T23:00:46.054Z</time></trkpt><trkpt lat="39.4036182" lon="-121.416629"><ele>225.0</ele><time>2026-04-20T23:00:47.055Z</time></trkpt><trkpt lat="39.4033984" lon="-121.4165261"><ele>225.0</ele><time>2026-04-20T23:00:48.054Z</time></trkpt><trkpt lat="39.4031775" lon="-121.4164271"><ele>225.0</ele><time>2026-04-20T23:00:49.055Z</time></trkpt><trkpt lat="39.4029556" lon="-121.4163332"><ele>230.0</ele><time>2026-04-20T23:00:50.055Z</time></trkpt><trkpt lat="39.4027317" lon="-121.4162336"><ele>235.0</ele><time>2026-04-20T23:00:51.054Z</time></trkpt><trkpt lat="39.402505" lon="-121.4161319"><ele>235.0</ele><time>2026-04-20T23:00:52.054Z</time></trkpt><trkpt lat="39.4022746" lon="-121.4160318"><ele>235.0</ele><time>2026-04-20T23:00:53.054Z</time></trkpt><trkpt lat="39.402044" lon="-121.4159339"><ele>234.0</ele><time>2026-04-20T23:00:54.054Z</time></trkpt><trkpt lat="39.4018153" lon="-121.4158286"><ele>233.0</ele><time>2026-04-20T23:00:55.055Z</time></trkpt><trkpt lat="39.4015838" lon="-121.4157176"><ele>233.0</ele><time>2026-04-20T23:00:56.054Z</time></trkpt><trkpt lat="39.4013506" lon="-121.4156118"><ele>233.0</ele><time>2026-04-20T23:00:57.055Z</time></trkpt><trkpt lat="39.4011225" lon="-121.4155015"><ele>236.0</ele><time>2026-04-20T23:00:58.054Z</time></trkpt><trkpt lat="39.4008878" lon="-121.4154022"><ele>239.0</ele><time>2026-04-20T23:00:59.054Z</time></trkpt><trkpt lat="39.4006515" lon="-121.4153042"><ele>240.0</ele><time>2026-04-20T23:01:00.055Z</time></trkpt><trkpt lat="39.4004207" lon="-121.4152039"><ele>241.0</ele><time>2026-04-20T23:01:01.055Z</time></trkpt><trkpt lat="39.4001891" lon="-121.4151034"><ele>241.0</ele><time>2026-04-20T23:01:02.055Z</time></trkpt><trkpt lat="39.3999595" lon="-121.4149973"><ele>241.0</ele><time>2026-04-20T23:01:03.055Z</time></trkpt><trkpt lat="39.3997296" lon="-121.4148918"><ele>242.5</ele><time>2026-04-20T23:01:04.054Z</time></trkpt><trkpt lat="39.3994978" lon="-121.414791"><ele>244.0</ele><time>2026-04-20T23:01:05.055Z</time></trkpt><trkpt lat="39.399266" lon="-121.4146958"><ele>244.0</ele><time>2026-04-20T23:01:06.054Z</time></trkpt><trkpt lat="39.3990368" lon="-121.414594"><ele>244.0</ele><time>2026-04-20T23:01:07.054Z</time></trkpt><trkpt lat="39.3987929" lon="-121.4144921"><ele>241.5</ele><time>2026-04-20T23:01:08.055Z</time></trkpt><trkpt lat="39.398555" lon="-121.4143942"><ele>239.0</ele><time>2026-04-20T23:01:09.055Z</time></trkpt><trkpt lat="39.3983203" lon="-121.4142956"><ele>239.0</ele><time>2026-04-20T23:01:10.054Z</time></trkpt><trkpt lat="39.3980821" lon="-121.4141959"><ele>239.0</ele><time>2026-04-20T23:01:11.055Z</time></trkpt><trkpt lat="39.3978471" lon="-121.4140951"><ele>235.5</ele><time>2026-04-20T23:01:12.055Z</time></trkpt><trkpt lat="39.3976099" lon="-121.4139964"><ele>232.0</ele><time>2026-04-20T23:01:13.055Z</time></trkpt><trkpt lat="39.397373" lon="-121.4138938"><ele>230.5</ele><time>2026-04-20T23:01:14.054Z</time></trkpt><trkpt lat="39.3971354" lon="-121.4137885"><ele>229.0</ele><time>2026-04-20T23:01:15.055Z</time></trkpt><trkpt lat="39.3969011" lon="-121.4136747"><ele>229.0</ele><time>2026-04-20T23:01:16.054Z</time></trkpt><trkpt lat="39.3966733" lon="-121.4135587"><ele>229.0</ele><time>2026-04-20T23:01:17.054Z</time></trkpt><trkpt lat="39.3964392" lon="-121.413429"><ele>228.0</ele><time>2026-04-20T23:01:18.054Z</time></trkpt><trkpt lat="39.3962209" lon="-121.4132879"><ele>227.0</ele><time>2026-04-20T23:01:19.055Z</time></trkpt><trkpt lat="39.396009" lon="-121.4131299"><ele>227.0</ele><time>2026-04-20T23:01:20.055Z</time></trkpt><trkpt lat="39.3958026" lon="-121.4129684"><ele>227.0</ele><time>2026-04-20T23:01:21.054Z</time></trkpt><trkpt lat="39.3955953" lon="-121.4127993"><ele>226.5</ele><time>2026-04-20T23:01:22.055Z</time></trkpt><trkpt lat="39.3954005" lon="-121.4126308"><ele>226.0</ele><time>2026-04-20T23:01:23.054Z</time></trkpt><trkpt lat="39.3952007" lon="-121.4124643"><ele>226.0</ele><time>2026-04-20T23:01:24.055Z</time></trkpt><trkpt lat="39.3950086" lon="-121.4122981"><ele>226.0</ele><time>2026-04-20T23:01:25.055Z</time></trkpt><trkpt lat="39.394822" lon="-121.4121326"><ele>226.0</ele><time>2026-04-20T23:01:26.054Z</time></trkpt><trkpt lat="39.3946333" lon="-121.4119703"><ele>226.0</ele><time>2026-04-20T23:01:27.054Z</time></trkpt><trkpt lat="39.3944428" lon="-121.4118096"><ele>226.0</ele><time>2026-04-20T23:01:28.055Z</time></trkpt><trkpt lat="39.3942534" lon="-121.4116532"><ele>226.0</ele><time>2026-04-20T23:01:29.054Z</time></trkpt><trkpt lat="39.3940665" lon="-121.4115021"><ele>226.0</ele><time>2026-04-20T23:01:30.054Z</time></trkpt><trkpt lat="39.3938831" lon="-121.4113536"><ele>226.66666666666666</ele><time>2026-04-20T23:01:31.055Z</time></trkpt><trkpt lat="39.3937034" lon="-121.4112074"><ele>227.33333333333331</ele><time>2026-04-20T23:01:32.055Z</time></trkpt><trkpt lat="39.3935282" lon="-121.4110597"><ele>228.0</ele><time>2026-04-20T23:01:33.054Z</time></trkpt><trkpt lat="39.3933528" lon="-121.4109158"><ele>228.0</ele><time>2026-04-20T23:01:34.055Z</time></trkpt><trkpt lat="39.3931848" lon="-121.410778"><ele>228.0</ele><time>2026-04-20T23:01:35.055Z</time></trkpt><trkpt lat="39.3930177" lon="-121.4106314"><ele>228.0</ele><time>2026-04-20T23:01:36.054Z</time></trkpt><trkpt lat="39.3928518" lon="-121.4104919"><ele>228.66666666666669</ele><time>2026-04-20T23:01:37.054Z</time></trkpt><trkpt lat="39.3926849" lon="-121.4103576"><ele>229.33333333333334</ele><time>2026-04-20T23:01:38.054Z</time></trkpt><trkpt lat="39.392518" lon="-121.4102197"><ele>230.0</ele><time>2026-04-20T23:01:39.055Z</time></trkpt><trkpt lat="39.3923543" lon="-121.4100885"><ele>230.0</ele><time>2026-04-20T23:01:40.055Z</time></trkpt><trkpt lat="39.3921911" lon="-121.4099643"><ele>230.0</ele><time>2026-04-20T23:01:41.055Z</time></trkpt><trkpt lat="39.3920277" lon="-121.4098343"><ele>230.0</ele><time>2026-04-20T23:01:42.055Z</time></trkpt><trkpt lat="39.3918703" lon="-121.409708"><ele>230.66666666666669</ele><time>2026-04-20T23:01:43.054Z</time></trkpt><trkpt lat="39.3917164" lon="-121.4095879"><ele>231.33333333333331</ele><time>2026-04-20T23:01:44.054Z</time></trkpt><trkpt lat="39.3915698" lon="-121.4094663"><ele>232.0</ele><time>2026-04-20T23:01:45.054Z</time></trkpt><trkpt lat="39.391418" lon="-121.4093491"><ele>231.66666666666666</ele><time>2026-04-20T23:01:46.054Z</time></trkpt><trkpt lat="39.3912745" lon="-121.4092323"><ele>231.33333333333331</ele><time>2026-04-20T23:01:47.054Z</time></trkpt><trkpt lat="39.3911308" lon="-121.4091142"><ele>231.0</ele><time>2026-04-20T23:01:48.054Z</time></trkpt><trkpt lat="39.3909962" lon="-121.4089973"><ele>231.0</ele><time>2026-04-20T23:01:49.054Z</time></trkpt><trkpt lat="39.3908714" lon="-121.4088723"><ele>231.0</ele><time>2026-04-20T23:01:50.055Z</time></trkpt><trkpt lat="39.3907529" lon="-121.4087325"><ele>231.0</ele><time>2026-04-20T23:01:51.055Z</time></trkpt><trkpt lat="39.3906377" lon="-121.4085931"><ele>231.66666666666669</ele><time>2026-04-20T23:01:52.055Z</time></trkpt><trkpt lat="39.3905286" lon="-121.4084474"><ele>232.33333333333334</ele><time>2026-04-20T23:01:53.055Z</time></trkpt><trkpt lat="39.3904221" lon="-121.4082929"><ele>233.0</ele><time>2026-04-20T23:01:54.055Z</time></trkpt><trkpt lat="39.3903179" lon="-121.4081325"><ele>233.33333333333334</ele><time>2026-04-20T23:01:55.054Z</time></trkpt><trkpt lat="39.3902215" lon="-121.4079755"><ele>233.66666666666669</ele><time>2026-04-20T23:01:56.055Z</time></trkpt><trkpt lat="39.390128" lon="-121.4078233"><ele>234.0</ele><time>2026-04-20T23:01:57.054Z</time></trkpt><trkpt lat="39.390033" lon="-121.4076705"><ele>234.0</ele><time>2026-04-20T23:01:58.055Z</time></trkpt><trkpt lat="39.3899333" lon="-121.4075121"><ele>234.0</ele><time>2026-04-20T23:01:59.054Z</time></trkpt><trkpt lat="39.3898398" lon="-121.4073568"><ele>234.0</ele><time>2026-04-20T23:02:00.054Z</time></trkpt><trkpt lat="39.3897439" lon="-121.4071997"><ele>233.0</ele><time>2026-04-20T23:02:01.055Z</time></trkpt><trkpt lat="39.3896501" lon="-121.4070432"><ele>232.0</ele><time>2026-04-20T23:02:02.054Z</time></trkpt><trkpt lat="39.3895573" lon="-121.4068843"><ele>231.0</ele><time>2026-04-20T23:02:03.054Z</time></trkpt><trkpt lat="39.3894629" lon="-121.4067375"><ele>231.0</ele><time>2026-04-20T23:02:04.055Z</time></trkpt><trkpt lat="39.3893802" lon="-121.4065903"><ele>231.0</ele><time>2026-04-20T23:02:05.055Z</time></trkpt><trkpt lat="39.3892968" lon="-121.406444"><ele>231.0</ele><time>2026-04-20T23:02:06.055Z</time></trkpt><trkpt lat="39.3892173" lon="-121.4062993"><ele>231.0</ele><time>2026-04-20T23:02:07.054Z</time></trkpt><trkpt lat="39.3891386" lon="-121.4061661"><ele>231.4</ele><time>2026-04-20T23:02:08.055Z</time></trkpt><trkpt lat="39.3890631" lon="-121.4060401"><ele>231.8</ele><time>2026-04-20T23:02:09.054Z</time></trkpt><trkpt lat="39.3889999" lon="-121.4059182"><ele>232.20000000000002</ele><time>2026-04-20T23:02:10.054Z</time></trkpt><trkpt lat="39.388937" lon="-121.4058147"><ele>232.60000000000002</ele><time>2026-04-20T23:02:11.055Z</time></trkpt><trkpt lat="39.3888744" lon="-121.4057187"><ele>233.0</ele><time>2026-04-20T23:02:12.054Z</time></trkpt><trkpt lat="39.3888271" lon="-121.4056391"><ele>232.4</ele><time>2026-04-20T23:02:13.055Z</time></trkpt><trkpt lat="39.3887675" lon="-121.4055393"><ele>231.8</ele><time>2026-04-20T23:02:15.055Z</time></trkpt><trkpt lat="39.3887237" lon="-121.4054563"><ele>231.2</ele><time>2026-04-20T23:02:18.055Z</time></trkpt><trkpt lat="39.388647" lon="-121.4053164"><ele>230.6</ele><time>2026-04-20T23:02:20.054Z</time></trkpt><trkpt lat="39.3886024" lon="-121.4052384"><ele>230.0</ele><time>2026-04-20T23:02:21.055Z</time></trkpt><trkpt lat="39.3885422" lon="-121.4051363"><ele>230.0</ele><time>2026-04-20T23:02:22.055Z</time></trkpt><trkpt lat="39.3884817" lon="-121.4050447"><ele>230.0</ele><time>2026-04-20T23:02:23.054Z</time></trkpt><trkpt lat="39.3884059" lon="-121.4049418"><ele>230.0</ele><time>2026-04-20T23:02:24.055Z</time></trkpt><trkpt lat="39.3883411" lon="-121.4048289"><ele>230.0</ele><time>2026-04-20T23:02:25.055Z</time></trkpt><trkpt lat="39.3882684" lon="-121.4047117"><ele>230.0</ele><time>2026-04-20T23:02:26.055Z</time></trkpt><trkpt lat="39.388197" lon="-121.4045824"><ele>230.0</ele><time>2026-04-20T23:02:27.055Z</time></trkpt><trkpt lat="39.3881194" lon="-121.4044502"><ele>230.0</ele><time>2026-04-20T23:02:28.055Z</time></trkpt><trkpt lat="39.3880375" lon="-121.4043103"><ele>230.0</ele><time>2026-04-20T23:02:29.055Z</time></trkpt><trkpt lat="39.3879529" lon="-121.4041606"><ele>230.0</ele><time>2026-04-20T23:02:30.055Z</time></trkpt><trkpt lat="39.3878621" lon="-121.4040071"><ele>230.0</ele><time>2026-04-20T23:02:31.055Z</time></trkpt><trkpt lat="39.387766" lon="-121.4038572"><ele>230.0</ele><time>2026-04-20T23:02:32.055Z</time></trkpt><trkpt lat="39.3876753" lon="-121.4036956"><ele>230.0</ele><time>2026-04-20T23:02:33.055Z</time></trkpt><trkpt lat="39.3875792" lon="-121.4035385"><ele>231.0</ele><time>2026-04-20T23:02:34.055Z</time></trkpt><trkpt lat="39.3874861" lon="-121.4033739"><ele>232.0</ele><time>2026-04-20T23:02:35.055Z</time></trkpt><trkpt lat="39.387395" lon="-121.4032026"><ele>233.0</ele><time>2026-04-20T23:02:36.055Z</time></trkpt><trkpt lat="39.3872996" lon="-121.4030325"><ele>234.0</ele><time>2026-04-20T23:02:37.055Z</time></trkpt><trkpt lat="39.3871981" lon="-121.402864"><ele>235.0</ele><time>2026-04-20T23:02:38.054Z</time></trkpt><trkpt lat="39.3870946" lon="-121.4026906"><ele>236.0</ele><time>2026-04-20T23:02:39.055Z</time></trkpt><trkpt lat="39.3869879" lon="-121.4025151"><ele>236.33333333333334</ele><time>2026-04-20T23:02:40.055Z</time></trkpt><trkpt lat="39.3868799" lon="-121.4023336"><ele>236.66666666666669</ele><time>2026-04-20T23:02:41.055Z</time></trkpt><trkpt lat="39.3867683" lon="-121.4021584"><ele>237.0</ele><time>2026-04-20T23:02:42.054Z</time></trkpt><trkpt lat="39.3866342" lon="-121.4019915"><ele>237.66666666666669</ele><time>2026-04-20T23:02:43.055Z</time></trkpt><trkpt lat="39.3865066" lon="-121.4018559"><ele>238.33333333333334</ele><time>2026-04-20T23:02:44.055Z</time></trkpt><trkpt lat="39.3863753" lon="-121.4017237"><ele>239.0</ele><time>2026-04-20T23:02:45.054Z</time></trkpt><trkpt lat="39.3862329" lon="-121.4015912"><ele>239.0</ele><time>2026-04-20T23:02:46.054Z</time></trkpt><trkpt lat="39.3860973" lon="-121.4014616"><ele>239.0</ele><time>2026-04-20T23:02:47.055Z</time></trkpt><trkpt lat="39.3859668" lon="-121.4013423"><ele>239.0</ele><time>2026-04-20T23:02:48.054Z</time></trkpt><trkpt lat="39.3858342" lon="-121.4012207"><ele>239.0</ele><time>2026-04-20T23:02:49.054Z</time></trkpt><trkpt lat="39.3856983" lon="-121.4010872"><ele>239.0</ele><time>2026-04-20T23:02:50.054Z</time></trkpt><trkpt lat="39.3855614" lon="-121.4009426"><ele>239.0</ele><time>2026-04-20T23:02:51.055Z</time></trkpt><trkpt lat="39.3854274" lon="-121.4007949"><ele>239.0</ele><time>2026-04-20T23:02:52.054Z</time></trkpt><trkpt lat="39.3852933" lon="-121.4006488"><ele>239.0</ele><time>2026-04-20T23:02:53.055Z</time></trkpt><trkpt lat="39.3851613" lon="-121.4004999"><ele>239.0</ele><time>2026-04-20T23:02:54.054Z</time></trkpt><trkpt lat="39.385034" lon="-121.4003386"><ele>239.0</ele><time>2026-04-20T23:02:55.055Z</time></trkpt><trkpt lat="39.3849048" lon="-121.4001718"><ele>239.0</ele><time>2026-04-20T23:02:56.054Z</time></trkpt><trkpt lat="39.3847757" lon="-121.4000086"><ele>239.0</ele><time>2026-04-20T23:02:57.054Z</time></trkpt><trkpt lat="39.3846492" lon="-121.3998296"><ele>240.66666666666669</ele><time>2026-04-20T23:02:58.055Z</time></trkpt><trkpt lat="39.3845319" lon="-121.3996502"><ele>242.33333333333331</ele><time>2026-04-20T23:02:59.054Z</time></trkpt><trkpt lat="39.3844104" lon="-121.3994639"><ele>244.0</ele><time>2026-04-20T23:03:00.054Z</time></trkpt><trkpt lat="39.3842972" lon="-121.3992773"><ele>244.0</ele><time>2026-04-20T23:03:01.054Z</time></trkpt><trkpt lat="39.3841852" lon="-121.3990913"><ele>244.0</ele><time>2026-04-20T23:03:02.055Z</time></trkpt><trkpt lat="39.384074" lon="-121.3989021"><ele>244.0</ele><time>2026-04-20T23:03:03.054Z</time></trkpt><trkpt lat="39.3839693" lon="-121.3987105"><ele>244.0</ele><time>2026-04-20T23:03:04.054Z</time></trkpt><trkpt lat="39.3838608" lon="-121.3985173"><ele>244.0</ele><time>2026-04-20T23:03:05.055Z</time></trkpt><trkpt lat="39.38375" lon="-121.3983287"><ele>244.0</ele><time>2026-04-20T23:03:06.055Z</time></trkpt><trkpt lat="39.3836453" lon="-121.3981466"><ele>246.33333333333331</ele><time>2026-04-20T23:03:07.055Z</time></trkpt><trkpt lat="39.3835501" lon="-121.3979569"><ele>248.66666666666669</ele><time>2026-04-20T23:03:08.055Z</time></trkpt><trkpt lat="39.3834529" lon="-121.3977631"><ele>251.0</ele><time>2026-04-20T23:03:09.055Z</time></trkpt><trkpt lat="39.3833511" lon="-121.3975706"><ele>251.0</ele><time>2026-04-20T23:03:10.054Z</time></trkpt><trkpt lat="39.3832456" lon="-121.3973799"><ele>251.0</ele><time>2026-04-20T23:03:11.055Z</time></trkpt><trkpt lat="39.383146" lon="-121.3971838"><ele>251.0</ele><time>2026-04-20T23:03:12.055Z</time></trkpt><trkpt lat="39.3830478" lon="-121.3969953"><ele>252.66666666666669</ele><time>2026-04-20T23:03:13.055Z</time></trkpt><trkpt lat="39.3829551" lon="-121.396808"><ele>254.33333333333331</ele><time>2026-04-20T23:03:14.055Z</time></trkpt><trkpt lat="39.3828606" lon="-121.3966136"><ele>256.0</ele><time>2026-04-20T23:03:15.055Z</time></trkpt><trkpt lat="39.3827665" lon="-121.3964264"><ele>256.0</ele><time>2026-04-20T23:03:16.055Z</time></trkpt><trkpt lat="39.3826747" lon="-121.3962405"><ele>256.0</ele><time>2026-04-20T23:03:17.055Z</time></trkpt><trkpt lat="39.3825869" lon="-121.3960578"><ele>256.0</ele><time>2026-04-20T23:03:18.054Z</time></trkpt><trkpt lat="39.3824969" lon="-121.3958873"><ele>256.0</ele><time>2026-04-20T23:03:19.054Z</time></trkpt><trkpt lat="39.3823951" lon="-121.3957322"><ele>256.0</ele><time>2026-04-20T23:03:20.054Z</time></trkpt><trkpt lat="39.382276" lon="-121.3955882"><ele>256.0</ele><time>2026-04-20T23:03:21.055Z</time></trkpt><trkpt lat="39.382155" lon="-121.3954374"><ele>257.0</ele><time>2026-04-20T23:03:22.055Z</time></trkpt><trkpt lat="39.3820338" lon="-121.3952931"><ele>258.0</ele><time>2026-04-20T23:03:23.054Z</time></trkpt><trkpt lat="39.3819118" lon="-121.3951485"><ele>259.0</ele><time>2026-04-20T23:03:24.054Z</time></trkpt><trkpt lat="39.3818081" lon="-121.3949959"><ele>259.0</ele><time>2026-04-20T23:03:25.054Z</time></trkpt><trkpt lat="39.3816953" lon="-121.3948402"><ele>259.0</ele><time>2026-04-20T23:03:26.055Z</time></trkpt><trkpt lat="39.3815936" lon="-121.3946762"><ele>259.0</ele><time>2026-04-20T23:03:27.055Z</time></trkpt><trkpt lat="39.3814979" lon="-121.3945116"><ele>259.3333333333333</ele><time>2026-04-20T23:03:28.055Z</time></trkpt><trkpt lat="39.3814031" lon="-121.3943457"><ele>259.6666666666667</ele><time>2026-04-20T23:03:29.055Z</time></trkpt><trkpt lat="39.3813177" lon="-121.3941761"><ele>260.0</ele><time>2026-04-20T23:03:30.055Z</time></trkpt><trkpt lat="39.3812435" lon="-121.3939945"><ele>258.33333333333337</ele><time>2026-04-20T23:03:31.054Z</time></trkpt><trkpt lat="39.381184" lon="-121.3937948"><ele>256.6666666666667</ele><time>2026-04-20T23:03:32.054Z</time></trkpt><trkpt lat="39.3811316" lon="-121.393596"><ele>255.0</ele><time>2026-04-20T23:03:33.054Z</time></trkpt><trkpt lat="39.3810686" lon="-121.3933931"><ele>255.0</ele><time>2026-04-20T23:03:34.054Z</time></trkpt><trkpt lat="39.381" lon="-121.3931954"><ele>255.0</ele><time>2026-04-20T23:03:35.055Z</time></trkpt><trkpt lat="39.3809269" lon="-121.3929939"><ele>255.0</ele><time>2026-04-20T23:03:36.055Z</time></trkpt><trkpt lat="39.3808627" lon="-121.3927925"><ele>254.0</ele><time>2026-04-20T23:03:37.055Z</time></trkpt><trkpt lat="39.3807965" lon="-121.3925875"><ele>253.0</ele><time>2026-04-20T23:03:38.054Z</time></trkpt><trkpt lat="39.3807284" lon="-121.3923861"><ele>252.0</ele><time>2026-04-20T23:03:39.054Z</time></trkpt><trkpt lat="39.3806632" lon="-121.3921857"><ele>251.33333333333331</ele><time>2026-04-20T23:03:40.054Z</time></trkpt><trkpt lat="39.3805991" lon="-121.3919876"><ele>250.66666666666666</ele><time>2026-04-20T23:03:41.055Z</time></trkpt><trkpt lat="39.3805332" lon="-121.3918023"><ele>250.0</ele><time>2026-04-20T23:03:42.054Z</time></trkpt><trkpt lat="39.3804808" lon="-121.391631"><ele>249.5</ele><time>2026-04-20T23:03:43.054Z</time></trkpt><trkpt lat="39.380427" lon="-121.391452"><ele>249.0</ele><time>2026-04-20T23:03:44.054Z</time></trkpt><trkpt lat="39.3803735" lon="-121.391278"><ele>248.5</ele><time>2026-04-20T23:03:45.054Z</time></trkpt><trkpt lat="39.3803213" lon="-121.3911001"><ele>248.0</ele><time>2026-04-20T23:03:46.054Z</time></trkpt><trkpt lat="39.3802664" lon="-121.3909149"><ele>248.0</ele><time>2026-04-20T23:03:47.055Z</time></trkpt><trkpt lat="39.3802085" lon="-121.3907264"><ele>248.0</ele><time>2026-04-20T23:03:48.055Z</time></trkpt><trkpt lat="39.3801454" lon="-121.3905394"><ele>248.0</ele><time>2026-04-20T23:03:49.055Z</time></trkpt><trkpt lat="39.3800778" lon="-121.3903436"><ele>246.0</ele><time>2026-04-20T23:03:50.054Z</time></trkpt><trkpt lat="39.3800032" lon="-121.3901523"><ele>244.0</ele><time>2026-04-20T23:03:51.055Z</time></trkpt><trkpt lat="39.3799214" lon="-121.3899574"><ele>242.0</ele><time>2026-04-20T23:03:52.054Z</time></trkpt><trkpt lat="39.3798307" lon="-121.3897671"><ele>241.66666666666669</ele><time>2026-04-20T23:03:53.054Z</time></trkpt><trkpt lat="39.3797272" lon="-121.3895859"><ele>241.33333333333331</ele><time>2026-04-20T23:03:54.055Z</time></trkpt><trkpt lat="39.3796285" lon="-121.3894122"><ele>241.0</ele><time>2026-04-20T23:03:55.054Z</time></trkpt><trkpt lat="39.3795321" lon="-121.3892404"><ele>240.33333333333331</ele><time>2026-04-20T23:03:56.054Z</time></trkpt><trkpt lat="39.3794465" lon="-121.3890602"><ele>239.66666666666669</ele><time>2026-04-20T23:03:57.054Z</time></trkpt><trkpt lat="39.3793789" lon="-121.3888766"><ele>239.0</ele><time>2026-04-20T23:03:58.055Z</time></trkpt><trkpt lat="39.3793202" lon="-121.3886668"><ele>237.33333333333334</ele><time>2026-04-20T23:03:59.055Z</time></trkpt><trkpt lat="39.3792729" lon="-121.388446"><ele>235.66666666666669</ele><time>2026-04-20T23:04:00.055Z</time></trkpt><trkpt lat="39.3792521" lon="-121.3882224"><ele>234.0</ele><time>2026-04-20T23:04:01.055Z</time></trkpt><trkpt lat="39.379246" lon="-121.3879934"><ele>233.33333333333331</ele><time>2026-04-20T23:04:02.054Z</time></trkpt><trkpt lat="39.3792552" lon="-121.3877662"><ele>232.66666666666666</ele><time>2026-04-20T23:04:03.055Z</time></trkpt><trkpt lat="39.3792824" lon="-121.3875411"><ele>232.0</ele><time>2026-04-20T23:04:04.054Z</time></trkpt><trkpt lat="39.3793026" lon="-121.3873047"><ele>232.66666666666666</ele><time>2026-04-20T23:04:05.054Z</time></trkpt><trkpt lat="39.3793238" lon="-121.3870732"><ele>233.33333333333331</ele><time>2026-04-20T23:04:06.054Z</time></trkpt><trkpt lat="39.3793388" lon="-121.3868393"><ele>234.0</ele><time>2026-04-20T23:04:07.055Z</time></trkpt><trkpt lat="39.3793457" lon="-121.3865999"><ele>234.0</ele><time>2026-04-20T23:04:08.055Z</time></trkpt><trkpt lat="39.3793396" lon="-121.3863572"><ele>234.0</ele><time>2026-04-20T23:04:09.054Z</time></trkpt><trkpt lat="39.3793209" lon="-121.3861109"><ele>234.0</ele><time>2026-04-20T23:04:10.055Z</time></trkpt><trkpt lat="39.3793028" lon="-121.3858668"><ele>236.66666666666669</ele><time>2026-04-20T23:04:11.055Z</time></trkpt><trkpt lat="39.3792773" lon="-121.3856224"><ele>239.33333333333334</ele><time>2026-04-20T23:04:12.055Z</time></trkpt><trkpt lat="39.37925" lon="-121.3853797"><ele>242.0</ele><time>2026-04-20T23:04:13.055Z</time></trkpt><trkpt lat="39.3792202" lon="-121.3851424"><ele>242.33333333333334</ele><time>2026-04-20T23:04:14.055Z</time></trkpt><trkpt lat="39.3791882" lon="-121.3849065"><ele>242.66666666666669</ele><time>2026-04-20T23:04:15.054Z</time></trkpt><trkpt lat="39.3791592" lon="-121.3846816"><ele>243.0</ele><time>2026-04-20T23:04:16.055Z</time></trkpt><trkpt lat="39.3791393" lon="-121.3844559"><ele>243.0</ele><time>2026-04-20T23:04:17.055Z</time></trkpt><trkpt lat="39.3791125" lon="-121.3842329"><ele>243.0</ele><time>2026-04-20T23:04:18.055Z</time></trkpt><trkpt lat="39.3790998" lon="-121.3840047"><ele>243.0</ele><time>2026-04-20T23:04:19.055Z</time></trkpt><trkpt lat="39.3790857" lon="-121.3837799"><ele>242.33333333333331</ele><time>2026-04-20T23:04:20.055Z</time></trkpt><trkpt lat="39.3790716" lon="-121.3835452"><ele>241.66666666666666</ele><time>2026-04-20T23:04:21.055Z</time></trkpt><trkpt lat="39.3790545" lon="-121.3833079"><ele>241.0</ele><time>2026-04-20T23:04:22.054Z</time></trkpt><trkpt lat="39.3790397" lon="-121.3830648"><ele>240.33333333333331</ele><time>2026-04-20T23:04:23.054Z</time></trkpt><trkpt lat="39.3790222" lon="-121.3828206"><ele>239.66666666666669</ele><time>2026-04-20T23:04:24.054Z</time></trkpt><trkpt lat="39.3790031" lon="-121.3825647"><ele>239.0</ele><time>2026-04-20T23:04:25.055Z</time></trkpt><trkpt lat="39.3789882" lon="-121.3823144"><ele>240.0</ele><time>2026-04-20T23:04:26.054Z</time></trkpt><trkpt lat="39.3789685" lon="-121.3820659"><ele>241.0</ele><time>2026-04-20T23:04:27.055Z</time></trkpt><trkpt lat="39.3789484" lon="-121.3818136"><ele>242.0</ele><time>2026-04-20T23:04:28.054Z</time></trkpt><trkpt lat="39.378932" lon="-121.3815606"><ele>243.33333333333334</ele><time>2026-04-20T23:04:29.054Z</time></trkpt><trkpt lat="39.3789141" lon="-121.381308"><ele>244.66666666666669</ele><time>2026-04-20T23:04:30.054Z</time></trkpt><trkpt lat="39.3788952" lon="-121.3810643"><ele>246.0</ele><time>2026-04-20T23:04:31.055Z</time></trkpt><trkpt lat="39.3788758" lon="-121.3808241"><ele>246.0</ele><time>2026-04-20T23:04:32.055Z</time></trkpt><trkpt lat="39.3788562" lon="-121.3805899"><ele>246.0</ele><time>2026-04-20T23:04:33.054Z</time></trkpt><trkpt lat="39.3788369" lon="-121.3803695"><ele>246.0</ele><time>2026-04-20T23:04:34.055Z</time></trkpt><trkpt lat="39.3788209" lon="-121.380156"><ele>247.66666666666669</ele><time>2026-04-20T23:04:35.055Z</time></trkpt><trkpt lat="39.3787941" lon="-121.3799541"><ele>249.33333333333334</ele><time>2026-04-20T23:04:36.054Z</time></trkpt><trkpt lat="39.3787609" lon="-121.3797628"><ele>251.0</ele><time>2026-04-20T23:04:37.054Z</time></trkpt><trkpt lat="39.3787017" lon="-121.3795705"><ele>251.0</ele><time>2026-04-20T23:04:38.055Z</time></trkpt><trkpt lat="39.3786263" lon="-121.3793885"><ele>251.0</ele><time>2026-04-20T23:04:39.055Z</time></trkpt><trkpt lat="39.3785333" lon="-121.379224"><ele>251.0</ele><time>2026-04-20T23:04:40.055Z</time></trkpt><trkpt lat="39.3784306" lon="-121.3790675"><ele>251.0</ele><time>2026-04-20T23:04:41.055Z</time></trkpt><trkpt lat="39.3783025" lon="-121.3789238"><ele>251.0</ele><time>2026-04-20T23:04:42.054Z</time></trkpt><trkpt lat="39.3781658" lon="-121.3787854"><ele>251.0</ele><time>2026-04-20T23:04:43.054Z</time></trkpt><trkpt lat="39.3780299" lon="-121.3786579"><ele>249.0</ele><time>2026-04-20T23:04:44.054Z</time></trkpt><trkpt lat="39.3778907" lon="-121.3785199"><ele>247.0</ele><time>2026-04-20T23:04:45.055Z</time></trkpt><trkpt lat="39.3777438" lon="-121.378378"><ele>245.0</ele><time>2026-04-20T23:04:46.055Z</time></trkpt><trkpt lat="39.3775888" lon="-121.378233"><ele>245.0</ele><time>2026-04-20T23:04:47.055Z</time></trkpt><trkpt lat="39.3774335" lon="-121.3780873"><ele>245.0</ele><time>2026-04-20T23:04:48.055Z</time></trkpt><trkpt lat="39.377279" lon="-121.3779305"><ele>245.0</ele><time>2026-04-20T23:04:49.054Z</time></trkpt><trkpt lat="39.3771245" lon="-121.377765"><ele>241.66666666666669</ele><time>2026-04-20T23:04:50.054Z</time></trkpt><trkpt lat="39.3769697" lon="-121.3775969"><ele>238.33333333333331</ele><time>2026-04-20T23:04:51.054Z</time></trkpt><trkpt lat="39.3768125" lon="-121.3774319"><ele>235.0</ele><time>2026-04-20T23:04:52.054Z</time></trkpt><trkpt lat="39.3766495" lon="-121.3772633"><ele>234.33333333333331</ele><time>2026-04-20T23:04:53.054Z</time></trkpt><trkpt lat="39.3764885" lon="-121.3770915"><ele>233.66666666666669</ele><time>2026-04-20T23:04:54.054Z</time></trkpt><trkpt lat="39.3763291" lon="-121.3769266"><ele>233.0</ele><time>2026-04-20T23:04:55.054Z</time></trkpt><trkpt lat="39.3761729" lon="-121.3767604"><ele>232.0</ele><time>2026-04-20T23:04:56.054Z</time></trkpt><trkpt lat="39.3760169" lon="-121.3765966"><ele>231.0</ele><time>2026-04-20T23:04:57.055Z</time></trkpt><trkpt lat="39.375856" lon="-121.3764448"><ele>230.0</ele><time>2026-04-20T23:04:58.055Z</time></trkpt><trkpt lat="39.3756844" lon="-121.3763113"><ele>230.0</ele><time>2026-04-20T23:04:59.055Z</time></trkpt><trkpt lat="39.3755053" lon="-121.3762218"><ele>230.0</ele><time>2026-04-20T23:05:00.054Z</time></trkpt><trkpt lat="39.375327" lon="-121.3761386"><ele>230.0</ele><time>2026-04-20T23:05:01.055Z</time></trkpt><trkpt lat="39.3751533" lon="-121.3760539"><ele>230.0</ele><time>2026-04-20T23:05:02.055Z</time></trkpt><trkpt lat="39.3749803" lon="-121.3759698"><ele>230.0</ele><time>2026-04-20T23:05:03.055Z</time></trkpt><trkpt lat="39.3747994" lon="-121.3758787"><ele>230.0</ele><time>2026-04-20T23:05:04.054Z</time></trkpt><trkpt lat="39.3746105" lon="-121.3757974"><ele>229.66666666666669</ele><time>2026-04-20T23:05:05.055Z</time></trkpt><trkpt lat="39.3744368" lon="-121.3757168"><ele>229.33333333333331</ele><time>2026-04-20T23:05:06.054Z</time></trkpt><trkpt lat="39.3742587" lon="-121.3756302"><ele>229.0</ele><time>2026-04-20T23:05:07.054Z</time></trkpt><trkpt lat="39.3740794" lon="-121.3755373"><ele>228.0</ele><time>2026-04-20T23:05:08.054Z</time></trkpt><trkpt lat="39.3739078" lon="-121.375442"><ele>227.0</ele><time>2026-04-20T23:05:09.055Z</time></trkpt><trkpt lat="39.3737451" lon="-121.3753517"><ele>226.0</ele><time>2026-04-20T23:05:10.054Z</time></trkpt><trkpt lat="39.3735871" lon="-121.3752534"><ele>224.66666666666666</ele><time>2026-04-20T23:05:11.054Z</time></trkpt><trkpt lat="39.3734341" lon="-121.3751321"><ele>223.33333333333331</ele><time>2026-04-20T23:05:12.055Z</time></trkpt><trkpt lat="39.3732833" lon="-121.3750034"><ele>222.0</ele><time>2026-04-20T23:05:13.054Z</time></trkpt><trkpt lat="39.3731407" lon="-121.3748746"><ele>221.66666666666669</ele><time>2026-04-20T23:05:14.055Z</time></trkpt><trkpt lat="39.3730104" lon="-121.3747259"><ele>221.33333333333334</ele><time>2026-04-20T23:05:15.054Z</time></trkpt><trkpt lat="39.3728853" lon="-121.3745727"><ele>221.0</ele><time>2026-04-20T23:05:16.054Z</time></trkpt><trkpt lat="39.3727797" lon="-121.3744054"><ele>221.0</ele><time>2026-04-20T23:05:17.054Z</time></trkpt><trkpt lat="39.3726769" lon="-121.3742468"><ele>221.0</ele><time>2026-04-20T23:05:18.054Z</time></trkpt><trkpt lat="39.3725615" lon="-121.3741016"><ele>221.0</ele><time>2026-04-20T23:05:19.054Z</time></trkpt><trkpt lat="39.3724387" lon="-121.3739698"><ele>221.0</ele><time>2026-04-20T23:05:20.055Z</time></trkpt><trkpt lat="39.3722962" lon="-121.3738641"><ele>221.0</ele><time>2026-04-20T23:05:21.054Z</time></trkpt><trkpt lat="39.3721557" lon="-121.3737664"><ele>221.0</ele><time>2026-04-20T23:05:22.055Z</time></trkpt><trkpt lat="39.3720157" lon="-121.3736714"><ele>221.0</ele><time>2026-04-20T23:05:23.054Z</time></trkpt><trkpt lat="39.3718852" lon="-121.3735536"><ele>221.0</ele><time>2026-04-20T23:05:24.055Z</time></trkpt><trkpt lat="39.3717731" lon="-121.3734166"><ele>221.0</ele><time>2026-04-20T23:05:25.055Z</time></trkpt><trkpt lat="39.3716684" lon="-121.3732715"><ele>221.0</ele><time>2026-04-20T23:05:26.055Z</time></trkpt><trkpt lat="39.3715671" lon="-121.3731197"><ele>221.0</ele><time>2026-04-20T23:05:27.054Z</time></trkpt><trkpt lat="39.371461" lon="-121.3729695"><ele>221.0</ele><time>2026-04-20T23:05:28.055Z</time></trkpt><trkpt lat="39.3713628" lon="-121.3728198"><ele>219.0</ele><time>2026-04-20T23:05:29.054Z</time></trkpt><trkpt lat="39.3712591" lon="-121.3726859"><ele>217.0</ele><time>2026-04-20T23:05:30.055Z</time></trkpt><trkpt lat="39.3711436" lon="-121.3725758"><ele>215.0</ele><time>2026-04-20T23:05:31.054Z</time></trkpt><trkpt lat="39.3710128" lon="-121.3725067"><ele>213.0</ele><time>2026-04-20T23:05:32.055Z</time></trkpt><trkpt lat="39.3708633" lon="-121.3724807"><ele>213.0</ele><time>2026-04-20T23:05:33.055Z</time></trkpt><trkpt lat="39.3707122" lon="-121.3724495"><ele>213.0</ele><time>2026-04-20T23:05:34.055Z</time></trkpt><trkpt lat="39.3705582" lon="-121.3724258"><ele>213.0</ele><time>2026-04-20T23:05:35.055Z</time></trkpt><trkpt lat="39.3703975" lon="-121.3724109"><ele>215.0</ele><time>2026-04-20T23:05:36.055Z</time></trkpt><trkpt lat="39.3702365" lon="-121.3723912"><ele>217.0</ele><time>2026-04-20T23:05:37.055Z</time></trkpt><trkpt lat="39.3700735" lon="-121.3723736"><ele>219.0</ele><time>2026-04-20T23:05:38.055Z</time></trkpt><trkpt lat="39.3699204" lon="-121.3723417"><ele>219.0</ele><time>2026-04-20T23:05:39.054Z</time></trkpt><trkpt lat="39.3697673" lon="-121.3722899"><ele>219.0</ele><time>2026-04-20T23:05:40.055Z</time></trkpt><trkpt lat="39.3696181" lon="-121.3722261"><ele>219.0</ele><time>2026-04-20T23:05:41.054Z</time></trkpt><trkpt lat="39.3694758" lon="-121.3721364"><ele>214.75</ele><time>2026-04-20T23:05:42.054Z</time></trkpt><trkpt lat="39.3693416" lon="-121.3720433"><ele>210.5</ele><time>2026-04-20T23:05:43.054Z</time></trkpt><trkpt lat="39.3692104" lon="-121.3719481"><ele>206.25</ele><time>2026-04-20T23:05:44.055Z</time></trkpt><trkpt lat="39.3690774" lon="-121.3718712"><ele>202.0</ele><time>2026-04-20T23:05:45.054Z</time></trkpt><trkpt lat="39.368948" lon="-121.3718401"><ele>200.75</ele><time>2026-04-20T23:05:46.054Z</time></trkpt><trkpt lat="39.3688173" lon="-121.3718436"><ele>199.5</ele><time>2026-04-20T23:05:47.054Z</time></trkpt><trkpt lat="39.3686817" lon="-121.3718902"><ele>198.25</ele><time>2026-04-20T23:05:48.054Z</time></trkpt><trkpt lat="39.3685538" lon="-121.3719412"><ele>197.0</ele><time>2026-04-20T23:05:49.054Z</time></trkpt><trkpt lat="39.3684088" lon="-121.3720133"><ele>197.0</ele><time>2026-04-20T23:05:50.054Z</time></trkpt><trkpt lat="39.3682568" lon="-121.3720714"><ele>197.0</ele><time>2026-04-20T23:05:51.054Z</time></trkpt><trkpt lat="39.3681016" lon="-121.3720896"><ele>197.0</ele><time>2026-04-20T23:05:52.055Z</time></trkpt><trkpt lat="39.3679393" lon="-121.372092"><ele>199.66666666666669</ele><time>2026-04-20T23:05:53.054Z</time></trkpt><trkpt lat="39.367767" lon="-121.3720776"><ele>202.33333333333331</ele><time>2026-04-20T23:05:54.054Z</time></trkpt><trkpt lat="39.3676" lon="-121.3720338"><ele>205.0</ele><time>2026-04-20T23:05:55.055Z</time></trkpt><trkpt lat="39.3674277" lon="-121.3719875"><ele>205.0</ele><time>2026-04-20T23:05:56.055Z</time></trkpt><trkpt lat="39.3672612" lon="-121.3719416"><ele>205.0</ele><time>2026-04-20T23:05:57.054Z</time></trkpt><trkpt lat="39.3670965" lon="-121.3718963"><ele>205.0</ele><time>2026-04-20T23:05:58.055Z</time></trkpt><trkpt lat="39.3669303" lon="-121.3718406"><ele>205.0</ele><time>2026-04-20T23:05:59.055Z</time></trkpt><trkpt lat="39.3667576" lon="-121.3717792"><ele>205.0</ele><time>2026-04-20T23:06:00.055Z</time></trkpt><trkpt lat="39.3665814" lon="-121.3717176"><ele>205.0</ele><time>2026-04-20T23:06:01.055Z</time></trkpt><trkpt lat="39.3663911" lon="-121.3716312"><ele>204.0</ele><time>2026-04-20T23:06:02.055Z</time></trkpt><trkpt lat="39.3662137" lon="-121.3715415"><ele>203.0</ele><time>2026-04-20T23:06:03.055Z</time></trkpt><trkpt lat="39.3660423" lon="-121.3714444"><ele>202.0</ele><time>2026-04-20T23:06:04.055Z</time></trkpt><trkpt lat="39.3658727" lon="-121.3713512"><ele>205.66666666666666</ele><time>2026-04-20T23:06:05.055Z</time></trkpt><trkpt lat="39.3657019" lon="-121.3712617"><ele>209.33333333333331</ele><time>2026-04-20T23:06:06.055Z</time></trkpt><trkpt lat="39.3655297" lon="-121.3711839"><ele>213.0</ele><time>2026-04-20T23:06:07.055Z</time></trkpt><trkpt lat="39.3653603" lon="-121.3710938"><ele>213.0</ele><time>2026-04-20T23:06:08.054Z</time></trkpt><trkpt lat="39.3651913" lon="-121.371004"><ele>213.0</ele><time>2026-04-20T23:06:09.054Z</time></trkpt><trkpt lat="39.3650357" lon="-121.3709103"><ele>213.0</ele><time>2026-04-20T23:06:10.055Z</time></trkpt><trkpt lat="39.3648859" lon="-121.3708258"><ele>213.0</ele><time>2026-04-20T23:06:11.054Z</time></trkpt><trkpt lat="39.3647299" lon="-121.3707722"><ele>213.0</ele><time>2026-04-20T23:06:12.055Z</time></trkpt><trkpt lat="39.3645655" lon="-121.3707495"><ele>213.0</ele><time>2026-04-20T23:06:13.055Z</time></trkpt><trkpt lat="39.3643921" lon="-121.3707825"><ele>213.66666666666669</ele><time>2026-04-20T23:06:14.055Z</time></trkpt><trkpt lat="39.364224" lon="-121.3708079"><ele>214.33333333333334</ele><time>2026-04-20T23:06:15.055Z</time></trkpt><trkpt lat="39.3640569" lon="-121.3708277"><ele>215.0</ele><time>2026-04-20T23:06:16.055Z</time></trkpt><trkpt lat="39.363901" lon="-121.3708488"><ele>217.66666666666669</ele><time>2026-04-20T23:06:17.055Z</time></trkpt><trkpt lat="39.3637451" lon="-121.3708607"><ele>220.33333333333331</ele><time>2026-04-20T23:06:18.055Z</time></trkpt><trkpt lat="39.3635925" lon="-121.3708741"><ele>223.0</ele><time>2026-04-20T23:06:19.054Z</time></trkpt><trkpt lat="39.3634479" lon="-121.3708785"><ele>223.0</ele><time>2026-04-20T23:06:20.055Z</time></trkpt><trkpt lat="39.3633044" lon="-121.3708462"><ele>223.0</ele><time>2026-04-20T23:06:21.054Z</time></trkpt><trkpt lat="39.3631695" lon="-121.3707917"><ele>223.0</ele><time>2026-04-20T23:06:22.055Z</time></trkpt><trkpt lat="39.3630206" lon="-121.3707167"><ele>223.0</ele><time>2026-04-20T23:06:23.055Z</time></trkpt><trkpt lat="39.3628621" lon="-121.3706336"><ele>220.33333333333331</ele><time>2026-04-20T23:06:24.055Z</time></trkpt><trkpt lat="39.3627071" lon="-121.3705503"><ele>217.66666666666669</ele><time>2026-04-20T23:06:25.054Z</time></trkpt><trkpt lat="39.3625515" lon="-121.3704709"><ele>215.0</ele><time>2026-04-20T23:06:26.055Z</time></trkpt><trkpt lat="39.3623868" lon="-121.3703855"><ele>218.33333333333334</ele><time>2026-04-20T23:06:27.054Z</time></trkpt><trkpt lat="39.3622258" lon="-121.3703042"><ele>221.66666666666669</ele><time>2026-04-20T23:06:28.055Z</time></trkpt><trkpt lat="39.3620571" lon="-121.370211"><ele>225.0</ele><time>2026-04-20T23:06:29.055Z</time></trkpt><trkpt lat="39.3618908" lon="-121.3701228"><ele>225.0</ele><time>2026-04-20T23:06:30.054Z</time></trkpt><trkpt lat="39.3617164" lon="-121.3700282"><ele>225.0</ele><time>2026-04-20T23:06:31.055Z</time></trkpt><trkpt lat="39.3615376" lon="-121.3699277"><ele>225.0</ele><time>2026-04-20T23:06:32.054Z</time></trkpt><trkpt lat="39.3613536" lon="-121.3698304"><ele>223.0</ele><time>2026-04-20T23:06:33.055Z</time></trkpt><trkpt lat="39.3611601" lon="-121.3697275"><ele>221.0</ele><time>2026-04-20T23:06:34.055Z</time></trkpt><trkpt lat="39.3609624" lon="-121.3696237"><ele>219.0</ele><time>2026-04-20T23:06:35.055Z</time></trkpt><trkpt lat="39.3607684" lon="-121.3695211"><ele>221.66666666666669</ele><time>2026-04-20T23:06:36.055Z</time></trkpt><trkpt lat="39.3605802" lon="-121.3694363"><ele>224.33333333333334</ele><time>2026-04-20T23:06:37.055Z</time></trkpt><trkpt lat="39.3603944" lon="-121.3693392"><ele>227.0</ele><time>2026-04-20T23:06:38.054Z</time></trkpt><trkpt lat="39.3602041" lon="-121.3692415"><ele>227.0</ele><time>2026-04-20T23:06:39.054Z</time></trkpt><trkpt lat="39.3600174" lon="-121.3691357"><ele>227.0</ele><time>2026-04-20T23:06:40.055Z</time></trkpt><trkpt lat="39.359828" lon="-121.3690346"><ele>227.0</ele><time>2026-04-20T23:06:41.054Z</time></trkpt><trkpt lat="39.3596408" lon="-121.3689365"><ele>226.33333333333334</ele><time>2026-04-20T23:06:42.054Z</time></trkpt><trkpt lat="39.3594581" lon="-121.368827"><ele>225.66666666666669</ele><time>2026-04-20T23:06:43.054Z</time></trkpt><trkpt lat="39.3592833" lon="-121.3687021"><ele>225.0</ele><time>2026-04-20T23:06:44.055Z</time></trkpt><trkpt lat="39.3591124" lon="-121.36857"><ele>225.0</ele><time>2026-04-20T23:06:45.055Z</time></trkpt><trkpt lat="39.3589384" lon="-121.3684395"><ele>225.0</ele><time>2026-04-20T23:06:46.054Z</time></trkpt><trkpt lat="39.358763" lon="-121.3683079"><ele>225.0</ele><time>2026-04-20T23:06:47.054Z</time></trkpt><trkpt lat="39.358592" lon="-121.3681681"><ele>223.66666666666669</ele><time>2026-04-20T23:06:48.054Z</time></trkpt><trkpt lat="39.3584184" lon="-121.3680368"><ele>222.33333333333334</ele><time>2026-04-20T23:06:49.054Z</time></trkpt><trkpt lat="39.3582375" lon="-121.3679062"><ele>221.0</ele><time>2026-04-20T23:06:50.055Z</time></trkpt><trkpt lat="39.3580619" lon="-121.3677693"><ele>221.33333333333334</ele><time>2026-04-20T23:06:51.055Z</time></trkpt><trkpt lat="39.3578857" lon="-121.3676281"><ele>221.66666666666669</ele><time>2026-04-20T23:06:52.054Z</time></trkpt><trkpt lat="39.3577143" lon="-121.3675001"><ele>222.0</ele><time>2026-04-20T23:06:53.054Z</time></trkpt><trkpt lat="39.3575456" lon="-121.3673721"><ele>222.0</ele><time>2026-04-20T23:06:54.055Z</time></trkpt><trkpt lat="39.3573786" lon="-121.3672527"><ele>222.0</ele><time>2026-04-20T23:06:55.055Z</time></trkpt><trkpt lat="39.3572208" lon="-121.3671262"><ele>222.0</ele><time>2026-04-20T23:06:56.055Z</time></trkpt><trkpt lat="39.3570678" lon="-121.3670005"><ele>223.0</ele><time>2026-04-20T23:06:57.055Z</time></trkpt><trkpt lat="39.3569113" lon="-121.366872"><ele>224.0</ele><time>2026-04-20T23:06:58.055Z</time></trkpt><trkpt lat="39.3567582" lon="-121.3667471"><ele>225.0</ele><time>2026-04-20T23:06:59.054Z</time></trkpt><trkpt lat="39.3566054" lon="-121.3666357"><ele>225.0</ele><time>2026-04-20T23:07:00.054Z</time></trkpt><trkpt lat="39.3564602" lon="-121.3665267"><ele>225.0</ele><time>2026-04-20T23:07:01.054Z</time></trkpt><trkpt lat="39.3563204" lon="-121.366415"><ele>225.0</ele><time>2026-04-20T23:07:02.055Z</time></trkpt><trkpt lat="39.3561822" lon="-121.3663162"><ele>225.33333333333331</ele><time>2026-04-20T23:07:03.054Z</time></trkpt><trkpt lat="39.3560523" lon="-121.3662116"><ele>225.66666666666666</ele><time>2026-04-20T23:07:04.055Z</time></trkpt><trkpt lat="39.3559211" lon="-121.3661079"><ele>226.0</ele><time>2026-04-20T23:07:05.055Z</time></trkpt><trkpt lat="39.3557944" lon="-121.3659963"><ele>226.0</ele><time>2026-04-20T23:07:06.055Z</time></trkpt><trkpt lat="39.3556775" lon="-121.3658932"><ele>226.0</ele><time>2026-04-20T23:07:07.054Z</time></trkpt><trkpt lat="39.3555583" lon="-121.3658036"><ele>226.0</ele><time>2026-04-20T23:07:08.055Z</time></trkpt><trkpt lat="39.3554417" lon="-121.3657209"><ele>226.0</ele><time>2026-04-20T23:07:09.055Z</time></trkpt><trkpt lat="39.3553176" lon="-121.365663"><ele>225.75</ele><time>2026-04-20T23:07:10.054Z</time></trkpt><trkpt lat="39.3551761" lon="-121.3656365"><ele>225.5</ele><time>2026-04-20T23:07:11.054Z</time></trkpt><trkpt lat="39.3550307" lon="-121.3656361"><ele>225.25</ele><time>2026-04-20T23:07:12.055Z</time></trkpt><trkpt lat="39.3548789" lon="-121.3656345"><ele>225.0</ele><time>2026-04-20T23:07:13.054Z</time></trkpt><trkpt lat="39.3547262" lon="-121.3656417"><ele>225.33333333333331</ele><time>2026-04-20T23:07:14.055Z</time></trkpt><trkpt lat="39.354571" lon="-121.3656429"><ele>225.66666666666666</ele><time>2026-04-20T23:07:15.054Z</time></trkpt><trkpt lat="39.3544114" lon="-121.3656485"><ele>226.0</ele><time>2026-04-20T23:07:16.055Z</time></trkpt><trkpt lat="39.3542495" lon="-121.3656417"><ele>226.0</ele><time>2026-04-20T23:07:17.054Z</time></trkpt><trkpt lat="39.3540872" lon="-121.3656401"><ele>226.0</ele><time>2026-04-20T23:07:18.054Z</time></trkpt><trkpt lat="39.3539247" lon="-121.3656382"><ele>226.0</ele><time>2026-04-20T23:07:19.054Z</time></trkpt><trkpt lat="39.3537601" lon="-121.3656454"><ele>226.33333333333331</ele><time>2026-04-20T23:07:20.054Z</time></trkpt><trkpt lat="39.3535963" lon="-121.3656383"><ele>226.66666666666669</ele><time>2026-04-20T23:07:21.055Z</time></trkpt><trkpt lat="39.3534244" lon="-121.3656293"><ele>227.0</ele><time>2026-04-20T23:07:22.054Z</time></trkpt><trkpt lat="39.3532477" lon="-121.3656352"><ele>227.0</ele><time>2026-04-20T23:07:23.054Z</time></trkpt><trkpt lat="39.3530718" lon="-121.3656266"><ele>227.0</ele><time>2026-04-20T23:07:24.055Z</time></trkpt><trkpt lat="39.3529009" lon="-121.3656234"><ele>227.0</ele><time>2026-04-20T23:07:25.054Z</time></trkpt><trkpt lat="39.3527251" lon="-121.3656238"><ele>227.0</ele><time>2026-04-20T23:07:26.055Z</time></trkpt><trkpt lat="39.3525436" lon="-121.3656179"><ele>227.0</ele><time>2026-04-20T23:07:27.055Z</time></trkpt><trkpt lat="39.3523618" lon="-121.36562"><ele>227.0</ele><time>2026-04-20T23:07:28.055Z</time></trkpt><trkpt lat="39.3521785" lon="-121.3656265"><ele>227.0</ele><time>2026-04-20T23:07:29.055Z</time></trkpt><trkpt lat="39.3519971" lon="-121.3656306"><ele>227.0</ele><time>2026-04-20T23:07:30.054Z</time></trkpt><trkpt lat="39.3518108" lon="-121.3656248"><ele>227.0</ele><time>2026-04-20T23:07:31.055Z</time></trkpt><trkpt lat="39.3516214" lon="-121.3656257"><ele>227.0</ele><time>2026-04-20T23:07:32.054Z</time></trkpt><trkpt lat="39.3514346" lon="-121.3656167"><ele>227.0</ele><time>2026-04-20T23:07:33.055Z</time></trkpt><trkpt lat="39.351241" lon="-121.3656132"><ele>227.0</ele><time>2026-04-20T23:07:34.055Z</time></trkpt><trkpt lat="39.3510506" lon="-121.3656045"><ele>229.33333333333334</ele><time>2026-04-20T23:07:35.055Z</time></trkpt><trkpt lat="39.350855" lon="-121.3656036"><ele>231.66666666666669</ele><time>2026-04-20T23:07:36.054Z</time></trkpt><trkpt lat="39.3506507" lon="-121.3655977"><ele>234.0</ele><time>2026-04-20T23:07:37.055Z</time></trkpt><trkpt lat="39.3504443" lon="-121.3655953"><ele>234.33333333333331</ele><time>2026-04-20T23:07:38.055Z</time></trkpt><trkpt lat="39.3502308" lon="-121.3655902"><ele>234.66666666666666</ele><time>2026-04-20T23:07:39.055Z</time></trkpt><trkpt lat="39.3500261" lon="-121.3655837"><ele>235.0</ele><time>2026-04-20T23:07:40.055Z</time></trkpt><trkpt lat="39.3498182" lon="-121.3655818"><ele>235.33333333333331</ele><time>2026-04-20T23:07:41.055Z</time></trkpt><trkpt lat="39.3496001" lon="-121.3655788"><ele>235.66666666666669</ele><time>2026-04-20T23:07:42.054Z</time></trkpt><trkpt lat="39.3493777" lon="-121.3655868"><ele>236.0</ele><time>2026-04-20T23:07:43.055Z</time></trkpt><trkpt lat="39.3491538" lon="-121.3655895"><ele>236.0</ele><time>2026-04-20T23:07:44.055Z</time></trkpt><trkpt lat="39.3489327" lon="-121.3655904"><ele>236.0</ele><time>2026-04-20T23:07:45.054Z</time></trkpt><trkpt lat="39.3487045" lon="-121.3655869"><ele>236.0</ele><time>2026-04-20T23:07:46.054Z</time></trkpt><trkpt lat="39.3484789" lon="-121.365586"><ele>237.66666666666669</ele><time>2026-04-20T23:07:47.054Z</time></trkpt><trkpt lat="39.3482521" lon="-121.36559"><ele>239.33333333333331</ele><time>2026-04-20T23:07:48.054Z</time></trkpt><trkpt lat="39.3480342" lon="-121.3655918"><ele>241.0</ele><time>2026-04-20T23:07:49.054Z</time></trkpt><trkpt lat="39.347816" lon="-121.3655946"><ele>241.0</ele><time>2026-04-20T23:07:50.055Z</time></trkpt><trkpt lat="39.3476027" lon="-121.3655963"><ele>241.0</ele><time>2026-04-20T23:07:51.054Z</time></trkpt><trkpt lat="39.3473952" lon="-121.3655994"><ele>241.0</ele><time>2026-04-20T23:07:52.054Z</time></trkpt><trkpt lat="39.3471697" lon="-121.3656005"><ele>239.5</ele><time>2026-04-20T23:07:53.055Z</time></trkpt><trkpt lat="39.3469369" lon="-121.3656064"><ele>238.0</ele><time>2026-04-20T23:07:54.054Z</time></trkpt><trkpt lat="39.3467014" lon="-121.3656093"><ele>238.0</ele><time>2026-04-20T23:07:55.054Z</time></trkpt><trkpt lat="39.346461" lon="-121.3656084"><ele>238.0</ele><time>2026-04-20T23:07:56.054Z</time></trkpt><trkpt lat="39.3462199" lon="-121.3656091"><ele>236.0</ele><time>2026-04-20T23:07:57.054Z</time></trkpt><trkpt lat="39.3459746" lon="-121.3656082"><ele>234.0</ele><time>2026-04-20T23:07:58.055Z</time></trkpt><trkpt lat="39.3457286" lon="-121.3656069"><ele>233.5</ele><time>2026-04-20T23:07:59.054Z</time></trkpt><trkpt lat="39.3454807" lon="-121.3655995"><ele>233.0</ele><time>2026-04-20T23:08:00.055Z</time></trkpt><trkpt lat="39.3452329" lon="-121.3655929"><ele>233.0</ele><time>2026-04-20T23:08:01.055Z</time></trkpt><trkpt lat="39.3449867" lon="-121.365593"><ele>233.0</ele><time>2026-04-20T23:08:02.054Z</time></trkpt><trkpt lat="39.3447472" lon="-121.3655997"><ele>231.5</ele><time>2026-04-20T23:08:03.055Z</time></trkpt><trkpt lat="39.3445149" lon="-121.3656095"><ele>230.0</ele><time>2026-04-20T23:08:04.054Z</time></trkpt><trkpt lat="39.3442839" lon="-121.3656205"><ele>230.0</ele><time>2026-04-20T23:08:05.054Z</time></trkpt><trkpt lat="39.3440492" lon="-121.3656234"><ele>230.0</ele><time>2026-04-20T23:08:06.054Z</time></trkpt><trkpt lat="39.3438121" lon="-121.3656155"><ele>229.0</ele><time>2026-04-20T23:08:07.054Z</time></trkpt><trkpt lat="39.3435799" lon="-121.3656158"><ele>228.0</ele><time>2026-04-20T23:08:08.055Z</time></trkpt><trkpt lat="39.3433473" lon="-121.3656124"><ele>228.0</ele><time>2026-04-20T23:08:09.054Z</time></trkpt><trkpt lat="39.3431147" lon="-121.3656099"><ele>228.0</ele><time>2026-04-20T23:08:10.054Z</time></trkpt><trkpt lat="39.3428807" lon="-121.3656026"><ele>228.0</ele><time>2026-04-20T23:08:11.055Z</time></trkpt><trkpt lat="39.3426478" lon="-121.365595"><ele>228.0</ele><time>2026-04-20T23:08:12.055Z</time></trkpt><trkpt lat="39.3424146" lon="-121.3655888"><ele>229.5</ele><time>2026-04-20T23:08:13.054Z</time></trkpt><trkpt lat="39.3421819" lon="-121.3655864"><ele>231.0</ele><time>2026-04-20T23:08:14.055Z</time></trkpt><trkpt lat="39.3419559" lon="-121.3655932"><ele>231.0</ele><time>2026-04-20T23:08:15.054Z</time></trkpt><trkpt lat="39.3417355" lon="-121.3655989"><ele>231.0</ele><time>2026-04-20T23:08:16.055Z</time></trkpt><trkpt lat="39.3415119" lon="-121.3656012"><ele>231.0</ele><time>2026-04-20T23:08:17.055Z</time></trkpt><trkpt lat="39.3412957" lon="-121.3656018"><ele>230.33333333333331</ele><time>2026-04-20T23:08:18.054Z</time></trkpt><trkpt lat="39.341081" lon="-121.3655994"><ele>229.66666666666666</ele><time>2026-04-20T23:08:19.055Z</time></trkpt><trkpt lat="39.3408601" lon="-121.3655918"><ele>229.0</ele><time>2026-04-20T23:08:20.055Z</time></trkpt><trkpt lat="39.3406351" lon="-121.3655898"><ele>229.0</ele><time>2026-04-20T23:08:21.055Z</time></trkpt><trkpt lat="39.3404236" lon="-121.3656026"><ele>229.0</ele><time>2026-04-20T23:08:22.055Z</time></trkpt><trkpt lat="39.3402071" lon="-121.3656089"><ele>229.0</ele><time>2026-04-20T23:08:23.054Z</time></trkpt><trkpt lat="39.3399898" lon="-121.3656075"><ele>229.0</ele><time>2026-04-20T23:08:24.055Z</time></trkpt><trkpt lat="39.3397683" lon="-121.3656062"><ele>229.0</ele><time>2026-04-20T23:08:25.055Z</time></trkpt><trkpt lat="39.3395553" lon="-121.3656094"><ele>229.0</ele><time>2026-04-20T23:08:26.055Z</time></trkpt><trkpt lat="39.3393551" lon="-121.3656068"><ele>229.33333333333331</ele><time>2026-04-20T23:08:27.055Z</time></trkpt><trkpt lat="39.3391565" lon="-121.3656022"><ele>229.66666666666669</ele><time>2026-04-20T23:08:28.054Z</time></trkpt><trkpt lat="39.3389527" lon="-121.3656016"><ele>230.0</ele><time>2026-04-20T23:08:29.054Z</time></trkpt><trkpt lat="39.3387442" lon="-121.3656"><ele>230.0</ele><time>2026-04-20T23:08:30.055Z</time></trkpt><trkpt lat="39.3385319" lon="-121.3655957"><ele>230.0</ele><time>2026-04-20T23:08:31.054Z</time></trkpt><trkpt lat="39.3383286" lon="-121.3655885"><ele>230.0</ele><time>2026-04-20T23:08:32.054Z</time></trkpt><trkpt lat="39.3381177" lon="-121.3655947"><ele>229.33333333333334</ele><time>2026-04-20T23:08:33.054Z</time></trkpt><trkpt lat="39.3379137" lon="-121.3655983"><ele>228.66666666666669</ele><time>2026-04-20T23:08:34.054Z</time></trkpt><trkpt lat="39.3377111" lon="-121.3656013"><ele>228.0</ele><time>2026-04-20T23:08:35.054Z</time></trkpt><trkpt lat="39.3375132" lon="-121.3656004"><ele>228.0</ele><time>2026-04-20T23:08:36.054Z</time></trkpt><trkpt lat="39.3373126" lon="-121.3655985"><ele>228.0</ele><time>2026-04-20T23:08:37.055Z</time></trkpt><trkpt lat="39.33712" lon="-121.365596"><ele>228.0</ele><time>2026-04-20T23:08:38.054Z</time></trkpt><trkpt lat="39.3369257" lon="-121.3656013"><ele>228.33333333333331</ele><time>2026-04-20T23:08:39.054Z</time></trkpt><trkpt lat="39.3367309" lon="-121.3655981"><ele>228.66666666666666</ele><time>2026-04-20T23:08:40.054Z</time></trkpt><trkpt lat="39.3365406" lon="-121.3655944"><ele>229.0</ele><time>2026-04-20T23:08:41.055Z</time></trkpt><trkpt lat="39.3363464" lon="-121.3655879"><ele>228.33333333333331</ele><time>2026-04-20T23:08:42.054Z</time></trkpt><trkpt lat="39.336148" lon="-121.3655894"><ele>227.66666666666669</ele><time>2026-04-20T23:08:43.055Z</time></trkpt><trkpt lat="39.3359568" lon="-121.3655896"><ele>227.0</ele><time>2026-04-20T23:08:44.055Z</time></trkpt><trkpt lat="39.3357613" lon="-121.3655825"><ele>227.0</ele><time>2026-04-20T23:08:45.055Z</time></trkpt><trkpt lat="39.3355721" lon="-121.3655847"><ele>227.0</ele><time>2026-04-20T23:08:46.054Z</time></trkpt><trkpt lat="39.3353879" lon="-121.3655863"><ele>227.0</ele><time>2026-04-20T23:08:47.055Z</time></trkpt><trkpt lat="39.3351926" lon="-121.3655853"><ele>227.0</ele><time>2026-04-20T23:08:48.055Z</time></trkpt><trkpt lat="39.3350017" lon="-121.3655846"><ele>227.0</ele><time>2026-04-20T23:08:49.055Z</time></trkpt><trkpt lat="39.3348069" lon="-121.3655839"><ele>227.0</ele><time>2026-04-20T23:08:50.054Z</time></trkpt><trkpt lat="39.3346195" lon="-121.3655853"><ele>228.66666666666669</ele><time>2026-04-20T23:08:51.055Z</time></trkpt><trkpt lat="39.3344387" lon="-121.3655787"><ele>230.33333333333331</ele><time>2026-04-20T23:08:52.055Z</time></trkpt><trkpt lat="39.3342497" lon="-121.3655741"><ele>232.0</ele><time>2026-04-20T23:08:53.055Z</time></trkpt><trkpt lat="39.3340768" lon="-121.3655639"><ele>232.0</ele><time>2026-04-20T23:08:54.054Z</time></trkpt><trkpt lat="39.3339131" lon="-121.365562"><ele>232.0</ele><time>2026-04-20T23:08:55.055Z</time></trkpt><trkpt lat="39.3337591" lon="-121.3655566"><ele>232.0</ele><time>2026-04-20T23:08:56.054Z</time></trkpt><trkpt lat="39.333612" lon="-121.3655624"><ele>231.75</ele><time>2026-04-20T23:08:57.055Z</time></trkpt><trkpt lat="39.3334805" lon="-121.3655646"><ele>231.5</ele><time>2026-04-20T23:08:58.055Z</time></trkpt><trkpt lat="39.3333528" lon="-121.3655699"><ele>231.25</ele><time>2026-04-20T23:08:59.054Z</time></trkpt><trkpt lat="39.3332376" lon="-121.3655706"><ele>231.0</ele><time>2026-04-20T23:09:00.054Z</time></trkpt><trkpt lat="39.3331427" lon="-121.3655597"><ele>231.0</ele><time>2026-04-20T23:09:01.054Z</time></trkpt><trkpt lat="39.3330648" lon="-121.3655692"><ele>231.0</ele><time>2026-04-20T23:09:02.054Z</time></trkpt><trkpt lat="39.3329798" lon="-121.3655754"><ele>231.0</ele><time>2026-04-20T23:09:04.055Z</time></trkpt><trkpt lat="39.3329092" lon="-121.3655374"><ele>231.0</ele><time>2026-04-20T23:09:07.055Z</time></trkpt><trkpt lat="39.3328575" lon="-121.3654665"><ele>231.0</ele><time>2026-04-20T23:09:08.054Z</time></trkpt><trkpt lat="39.3328181" lon="-121.3653908"><ele>231.0</ele><time>2026-04-20T23:09:09.054Z</time></trkpt><trkpt lat="39.3327842" lon="-121.3652963"><ele>231.8</ele><time>2026-04-20T23:09:10.055Z</time></trkpt><trkpt lat="39.3327301" lon="-121.3652018"><ele>232.60000000000002</ele><time>2026-04-20T23:09:11.055Z</time></trkpt><trkpt lat="39.3326618" lon="-121.3651087"><ele>233.4</ele><time>2026-04-20T23:09:12.055Z</time></trkpt><trkpt lat="39.332582" lon="-121.365016"><ele>234.2</ele><time>2026-04-20T23:09:13.054Z</time></trkpt><trkpt lat="39.332486" lon="-121.36493"><ele>235.0</ele><time>2026-04-20T23:09:14.055Z</time></trkpt><trkpt lat="39.3323776" lon="-121.3648531"><ele>235.0</ele><time>2026-04-20T23:09:15.055Z</time></trkpt><trkpt lat="39.3322607" lon="-121.3647875"><ele>235.0</ele><time>2026-04-20T23:09:16.054Z</time></trkpt><trkpt lat="39.3321261" lon="-121.36473"><ele>235.0</ele><time>2026-04-20T23:09:17.054Z</time></trkpt><trkpt lat="39.3319897" lon="-121.3646734"><ele>235.0</ele><time>2026-04-20T23:09:18.054Z</time></trkpt><trkpt lat="39.3318415" lon="-121.3646038"><ele>235.66666666666666</ele><time>2026-04-20T23:09:19.055Z</time></trkpt><trkpt lat="39.3316916" lon="-121.3645355"><ele>236.33333333333331</ele><time>2026-04-20T23:09:20.055Z</time></trkpt><trkpt lat="39.3315331" lon="-121.364467"><ele>237.0</ele><time>2026-04-20T23:09:21.055Z</time></trkpt><trkpt lat="39.3313727" lon="-121.3643797"><ele>238.66666666666669</ele><time>2026-04-20T23:09:22.055Z</time></trkpt><trkpt lat="39.3312196" lon="-121.3642786"><ele>240.33333333333334</ele><time>2026-04-20T23:09:23.055Z</time></trkpt><trkpt lat="39.3310774" lon="-121.3641452"><ele>242.0</ele><time>2026-04-20T23:09:24.055Z</time></trkpt><trkpt lat="39.3309448" lon="-121.3640032"><ele>242.33333333333334</ele><time>2026-04-20T23:09:25.054Z</time></trkpt><trkpt lat="39.3308414" lon="-121.3638272"><ele>242.66666666666669</ele><time>2026-04-20T23:09:26.054Z</time></trkpt><trkpt lat="39.3307601" lon="-121.3636306"><ele>243.0</ele><time>2026-04-20T23:09:27.054Z</time></trkpt><trkpt lat="39.3307" lon="-121.3634269"><ele>243.0</ele><time>2026-04-20T23:09:28.054Z</time></trkpt><trkpt lat="39.3306448" lon="-121.3632231"><ele>243.0</ele><time>2026-04-20T23:09:29.054Z</time></trkpt><trkpt lat="39.3305918" lon="-121.3630154"><ele>243.0</ele><time>2026-04-20T23:09:30.055Z</time></trkpt><trkpt lat="39.3305276" lon="-121.3628094"><ele>243.66666666666669</ele><time>2026-04-20T23:09:31.054Z</time></trkpt><trkpt lat="39.3304682" lon="-121.3626017"><ele>244.33333333333334</ele><time>2026-04-20T23:09:32.054Z</time></trkpt><trkpt lat="39.330422" lon="-121.3623899"><ele>245.0</ele><time>2026-04-20T23:09:33.055Z</time></trkpt><trkpt lat="39.3303802" lon="-121.3621686"><ele>242.33333333333334</ele><time>2026-04-20T23:09:34.054Z</time></trkpt><trkpt lat="39.3303584" lon="-121.3619259"><ele>239.66666666666669</ele><time>2026-04-20T23:09:35.055Z</time></trkpt><trkpt lat="39.330359" lon="-121.3616746"><ele>237.0</ele><time>2026-04-20T23:09:36.054Z</time></trkpt><trkpt lat="39.330368" lon="-121.3614197"><ele>237.66666666666669</ele><time>2026-04-20T23:09:37.054Z</time></trkpt><trkpt lat="39.3303812" lon="-121.361164"><ele>238.33333333333334</ele><time>2026-04-20T23:09:38.054Z</time></trkpt><trkpt lat="39.3303975" lon="-121.3609083"><ele>239.0</ele><time>2026-04-20T23:09:39.054Z</time></trkpt><trkpt lat="39.330409" lon="-121.3606476"><ele>239.0</ele><time>2026-04-20T23:09:40.055Z</time></trkpt><trkpt lat="39.3304097" lon="-121.3603853"><ele>239.0</ele><time>2026-04-20T23:09:41.055Z</time></trkpt><trkpt lat="39.3304096" lon="-121.3601212"><ele>239.0</ele><time>2026-04-20T23:09:42.054Z</time></trkpt><trkpt lat="39.3304084" lon="-121.3598536"><ele>239.0</ele><time>2026-04-20T23:09:43.054Z</time></trkpt><trkpt lat="39.330412" lon="-121.3595852"><ele>239.0</ele><time>2026-04-20T23:09:44.055Z</time></trkpt><trkpt lat="39.3304117" lon="-121.3593239"><ele>239.0</ele><time>2026-04-20T23:09:45.055Z</time></trkpt><trkpt lat="39.3304133" lon="-121.359062"><ele>239.33333333333334</ele><time>2026-04-20T23:09:46.054Z</time></trkpt><trkpt lat="39.3304141" lon="-121.3588006"><ele>239.66666666666669</ele><time>2026-04-20T23:09:47.055Z</time></trkpt><trkpt lat="39.3304208" lon="-121.3585414"><ele>240.0</ele><time>2026-04-20T23:09:48.054Z</time></trkpt><trkpt lat="39.3304435" lon="-121.3582873"><ele>240.66666666666669</ele><time>2026-04-20T23:09:49.055Z</time></trkpt><trkpt lat="39.3304644" lon="-121.3580266"><ele>241.33333333333334</ele><time>2026-04-20T23:09:50.055Z</time></trkpt><trkpt lat="39.3304934" lon="-121.3577709"><ele>242.0</ele><time>2026-04-20T23:09:51.055Z</time></trkpt><trkpt lat="39.3305278" lon="-121.3575252"><ele>245.0</ele><time>2026-04-20T23:09:52.054Z</time></trkpt><trkpt lat="39.3305584" lon="-121.3572711"><ele>248.0</ele><time>2026-04-20T23:09:53.054Z</time></trkpt><trkpt lat="39.3305902" lon="-121.3570207"><ele>251.0</ele><time>2026-04-20T23:09:54.055Z</time></trkpt><trkpt lat="39.3306205" lon="-121.3567657"><ele>251.0</ele><time>2026-04-20T23:09:55.054Z</time></trkpt><trkpt lat="39.3306521" lon="-121.3565018"><ele>251.0</ele><time>2026-04-20T23:09:56.054Z</time></trkpt><trkpt lat="39.330676" lon="-121.3562451"><ele>251.0</ele><time>2026-04-20T23:09:57.054Z</time></trkpt><trkpt lat="39.3307032" lon="-121.3559795"><ele>251.0</ele><time>2026-04-20T23:09:58.054Z</time></trkpt><trkpt lat="39.3307293" lon="-121.3557195"><ele>251.0</ele><time>2026-04-20T23:09:59.055Z</time></trkpt><trkpt lat="39.3307651" lon="-121.3554677"><ele>251.0</ele><time>2026-04-20T23:10:00.055Z</time></trkpt><trkpt lat="39.3307937" lon="-121.3552246"><ele>252.33333333333334</ele><time>2026-04-20T23:10:01.055Z</time></trkpt><trkpt lat="39.3308259" lon="-121.354985"><ele>253.66666666666669</ele><time>2026-04-20T23:10:02.055Z</time></trkpt><trkpt lat="39.3308439" lon="-121.3547433"><ele>255.0</ele><time>2026-04-20T23:10:03.054Z</time></trkpt><trkpt lat="39.3308501" lon="-121.3544916"><ele>255.66666666666669</ele><time>2026-04-20T23:10:04.055Z</time></trkpt><trkpt lat="39.3308329" lon="-121.3542414"><ele>256.33333333333337</ele><time>2026-04-20T23:10:05.055Z</time></trkpt><trkpt lat="39.3308108" lon="-121.3540018"><ele>257.0</ele><time>2026-04-20T23:10:06.055Z</time></trkpt><trkpt lat="39.3307831" lon="-121.353766"><ele>258.33333333333337</ele><time>2026-04-20T23:10:07.054Z</time></trkpt><trkpt lat="39.3307666" lon="-121.3535349"><ele>259.6666666666667</ele><time>2026-04-20T23:10:08.055Z</time></trkpt><trkpt lat="39.3307489" lon="-121.3533095"><ele>261.0</ele><time>2026-04-20T23:10:09.055Z</time></trkpt><trkpt lat="39.3307298" lon="-121.3530817"><ele>262.3333333333333</ele><time>2026-04-20T23:10:10.055Z</time></trkpt><trkpt lat="39.3307084" lon="-121.352851"><ele>263.66666666666663</ele><time>2026-04-20T23:10:11.055Z</time></trkpt><trkpt lat="39.3306915" lon="-121.3526276"><ele>265.0</ele><time>2026-04-20T23:10:12.054Z</time></trkpt><trkpt lat="39.3306788" lon="-121.3523957"><ele>267.0</ele><time>2026-04-20T23:10:13.054Z</time></trkpt><trkpt lat="39.3306683" lon="-121.3521673"><ele>269.0</ele><time>2026-04-20T23:10:14.055Z</time></trkpt><trkpt lat="39.3306556" lon="-121.3519397"><ele>271.0</ele><time>2026-04-20T23:10:15.054Z</time></trkpt><trkpt lat="39.3306397" lon="-121.3517173"><ele>271.0</ele><time>2026-04-20T23:10:16.054Z</time></trkpt><trkpt lat="39.3306248" lon="-121.3514918"><ele>271.0</ele><time>2026-04-20T23:10:17.054Z</time></trkpt><trkpt lat="39.3306048" lon="-121.3512689"><ele>271.0</ele><time>2026-04-20T23:10:18.054Z</time></trkpt><trkpt lat="39.3305867" lon="-121.3510469"><ele>273.66666666666663</ele><time>2026-04-20T23:10:19.054Z</time></trkpt><trkpt lat="39.3305719" lon="-121.3508214"><ele>276.3333333333333</ele><time>2026-04-20T23:10:20.054Z</time></trkpt><trkpt lat="39.3305476" lon="-121.3505926"><ele>279.0</ele><time>2026-04-20T23:10:21.054Z</time></trkpt><trkpt lat="39.3305172" lon="-121.3503687"><ele>280.3333333333333</ele><time>2026-04-20T23:10:22.054Z</time></trkpt><trkpt lat="39.3304837" lon="-121.3501403"><ele>281.66666666666663</ele><time>2026-04-20T23:10:23.054Z</time></trkpt><trkpt lat="39.3304537" lon="-121.3499053"><ele>283.0</ele><time>2026-04-20T23:10:24.054Z</time></trkpt><trkpt lat="39.3304077" lon="-121.3496673"><ele>283.0</ele><time>2026-04-20T23:10:25.054Z</time></trkpt><trkpt lat="39.3303562" lon="-121.3494223"><ele>283.0</ele><time>2026-04-20T23:10:26.054Z</time></trkpt><trkpt lat="39.3303011" lon="-121.3491812"><ele>283.0</ele><time>2026-04-20T23:10:27.054Z</time></trkpt><trkpt lat="39.3302429" lon="-121.3489337"><ele>280.3333333333333</ele><time>2026-04-20T23:10:28.054Z</time></trkpt><trkpt lat="39.3301743" lon="-121.348681"><ele>277.6666666666667</ele><time>2026-04-20T23:10:29.055Z</time></trkpt><trkpt lat="39.3301069" lon="-121.3484196"><ele>275.0</ele><time>2026-04-20T23:10:30.055Z</time></trkpt><trkpt lat="39.330035" lon="-121.348156"><ele>273.33333333333337</ele><time>2026-04-20T23:10:31.054Z</time></trkpt><trkpt lat="39.3299643" lon="-121.3478846"><ele>271.6666666666667</ele><time>2026-04-20T23:10:32.054Z</time></trkpt><trkpt lat="39.3298917" lon="-121.347612"><ele>270.0</ele><time>2026-04-20T23:10:33.055Z</time></trkpt><trkpt lat="39.3298223" lon="-121.3473275"><ele>270.0</ele><time>2026-04-20T23:10:34.054Z</time></trkpt><trkpt lat="39.3297547" lon="-121.3470429"><ele>270.0</ele><time>2026-04-20T23:10:35.054Z</time></trkpt><trkpt lat="39.3296941" lon="-121.3467569"><ele>270.0</ele><time>2026-04-20T23:10:36.055Z</time></trkpt><trkpt lat="39.32963" lon="-121.3464676"><ele>270.0</ele><time>2026-04-20T23:10:37.055Z</time></trkpt><trkpt lat="39.3295737" lon="-121.3461832"><ele>270.0</ele><time>2026-04-20T23:10:38.054Z</time></trkpt><trkpt lat="39.32952" lon="-121.3458955"><ele>270.0</ele><time>2026-04-20T23:10:39.055Z</time></trkpt><trkpt lat="39.3294809" lon="-121.3456203"><ele>270.0</ele><time>2026-04-20T23:10:40.054Z</time></trkpt><trkpt lat="39.3294526" lon="-121.3453321"><ele>269.0</ele><time>2026-04-20T23:10:41.054Z</time></trkpt><trkpt lat="39.3294159" lon="-121.3450564"><ele>268.0</ele><time>2026-04-20T23:10:42.054Z</time></trkpt><trkpt lat="39.3293809" lon="-121.3447808"><ele>267.0</ele><time>2026-04-20T23:10:43.055Z</time></trkpt><trkpt lat="39.329337" lon="-121.3445023"><ele>265.6666666666667</ele><time>2026-04-20T23:10:44.054Z</time></trkpt><trkpt lat="39.3292932" lon="-121.3442305"><ele>264.33333333333337</ele><time>2026-04-20T23:10:45.055Z</time></trkpt><trkpt lat="39.329252" lon="-121.3439573"><ele>263.0</ele><time>2026-04-20T23:10:46.055Z</time></trkpt><trkpt lat="39.3292013" lon="-121.3437025"><ele>262.6666666666667</ele><time>2026-04-20T23:10:47.055Z</time></trkpt><trkpt lat="39.3291458" lon="-121.3434535"><ele>262.3333333333333</ele><time>2026-04-20T23:10:48.055Z</time></trkpt><trkpt lat="39.3290834" lon="-121.3432169"><ele>262.0</ele><time>2026-04-20T23:10:49.055Z</time></trkpt><trkpt lat="39.3290245" lon="-121.3429946"><ele>262.0</ele><time>2026-04-20T23:10:50.054Z</time></trkpt><trkpt lat="39.3289593" lon="-121.342797"><ele>262.0</ele><time>2026-04-20T23:10:51.054Z</time></trkpt><trkpt lat="39.3288846" lon="-121.3426153"><ele>262.0</ele><time>2026-04-20T23:10:52.054Z</time></trkpt><trkpt lat="39.3288224" lon="-121.3424394"><ele>262.0</ele><time>2026-04-20T23:10:53.055Z</time></trkpt><trkpt lat="39.3287608" lon="-121.3422914"><ele>262.0</ele><time>2026-04-20T23:10:54.054Z</time></trkpt><trkpt lat="39.3287101" lon="-121.342175"><ele>262.0</ele><time>2026-04-20T23:10:55.054Z</time></trkpt><trkpt lat="39.3286676" lon="-121.3420712"><ele>262.0</ele><time>2026-04-20T23:10:56.055Z</time></trkpt><trkpt lat="39.3286236" lon="-121.3419517"><ele>262.0</ele><time>2026-04-20T23:10:58.055Z</time></trkpt><trkpt lat="39.3286119" lon="-121.3418697"><ele>263.16666666666663</ele><time>2026-04-20T23:11:03.054Z</time></trkpt><trkpt lat="39.3286398" lon="-121.3417593"><ele>264.3333333333333</ele><time>2026-04-20T23:11:05.054Z</time></trkpt><trkpt lat="39.328693" lon="-121.3416959"><ele>265.5</ele><time>2026-04-20T23:11:06.054Z</time></trkpt><trkpt lat="39.3287558" lon="-121.3416394"><ele>266.6666666666667</ele><time>2026-04-20T23:11:07.055Z</time></trkpt><trkpt lat="39.3288412" lon="-121.3415866"><ele>267.83333333333337</ele><time>2026-04-20T23:11:08.055Z</time></trkpt><trkpt lat="39.3289377" lon="-121.3415271"><ele>269.0</ele><time>2026-04-20T23:11:09.055Z</time></trkpt><trkpt lat="39.3290551" lon="-121.341456"><ele>270.0</ele><time>2026-04-20T23:11:10.055Z</time></trkpt><trkpt lat="39.3291783" lon="-121.341394"><ele>271.0</ele><time>2026-04-20T23:11:11.055Z</time></trkpt><trkpt lat="39.3293035" lon="-121.3413201"><ele>272.0</ele><time>2026-04-20T23:11:12.055Z</time></trkpt><trkpt lat="39.3294418" lon="-121.3412359"><ele>273.0</ele><time>2026-04-20T23:11:13.054Z</time></trkpt><trkpt lat="39.3295893" lon="-121.3411418"><ele>276.3333333333333</ele><time>2026-04-20T23:11:14.055Z</time></trkpt><trkpt lat="39.329747" lon="-121.3410499"><ele>279.66666666666663</ele><time>2026-04-20T23:11:15.054Z</time></trkpt><trkpt lat="39.3299122" lon="-121.3409571"><ele>283.0</ele><time>2026-04-20T23:11:16.055Z</time></trkpt><trkpt lat="39.330078" lon="-121.3408562"><ele>283.0</ele><time>2026-04-20T23:11:17.055Z</time></trkpt><trkpt lat="39.3302443" lon="-121.3407525"><ele>283.0</ele><time>2026-04-20T23:11:18.054Z</time></trkpt><trkpt lat="39.3304214" lon="-121.340651"><ele>283.0</ele><time>2026-04-20T23:11:19.055Z</time></trkpt><trkpt lat="39.3305939" lon="-121.3405416"><ele>288.0</ele><time>2026-04-20T23:11:20.054Z</time></trkpt><trkpt lat="39.3307738" lon="-121.3404393"><ele>293.0</ele><time>2026-04-20T23:11:21.054Z</time></trkpt><trkpt lat="39.3309588" lon="-121.3403444"><ele>298.0</ele><time>2026-04-20T23:11:22.054Z</time></trkpt><trkpt lat="39.3311622" lon="-121.3402535"><ele>298.0</ele><time>2026-04-20T23:11:23.055Z</time></trkpt><trkpt lat="39.3313639" lon="-121.340166"><ele>298.0</ele><time>2026-04-20T23:11:24.055Z</time></trkpt><trkpt lat="39.3315729" lon="-121.3400893"><ele>298.0</ele><time>2026-04-20T23:11:25.054Z</time></trkpt><trkpt lat="39.3317808" lon="-121.3400131"><ele>297.66666666666663</ele><time>2026-04-20T23:11:26.054Z</time></trkpt><trkpt lat="39.3319889" lon="-121.3399391"><ele>297.3333333333333</ele><time>2026-04-20T23:11:27.055Z</time></trkpt><trkpt lat="39.3322035" lon="-121.3398793"><ele>297.0</ele><time>2026-04-20T23:11:28.055Z</time></trkpt><trkpt lat="39.3324174" lon="-121.3398134"><ele>297.0</ele><time>2026-04-20T23:11:29.055Z</time></trkpt><trkpt lat="39.3326361" lon="-121.3397479"><ele>297.0</ele><time>2026-04-20T23:11:30.054Z</time></trkpt><trkpt lat="39.3328556" lon="-121.3396817"><ele>309.5</ele><time>2026-04-20T23:11:31.054Z</time></trkpt><trkpt lat="39.3330807" lon="-121.3396159"><ele>322.0</ele><time>2026-04-20T23:11:32.055Z</time></trkpt><trkpt lat="39.3333032" lon="-121.3395485"><ele>322.0</ele><time>2026-04-20T23:11:33.055Z</time></trkpt><trkpt lat="39.3335229" lon="-121.3394786"><ele>322.0</ele><time>2026-04-20T23:11:34.054Z</time></trkpt><trkpt lat="39.3337489" lon="-121.339409"><ele>319.0</ele><time>2026-04-20T23:11:35.055Z</time></trkpt><trkpt lat="39.3339696" lon="-121.339347"><ele>316.0</ele><time>2026-04-20T23:11:36.055Z</time></trkpt><trkpt lat="39.3341898" lon="-121.3392898"><ele>316.0</ele><time>2026-04-20T23:11:37.054Z</time></trkpt><trkpt lat="39.3344145" lon="-121.3392274"><ele>316.0</ele><time>2026-04-20T23:11:38.054Z</time></trkpt><trkpt lat="39.3346361" lon="-121.3391643"><ele>314.5</ele><time>2026-04-20T23:11:39.055Z</time></trkpt><trkpt lat="39.3348604" lon="-121.339095"><ele>313.0</ele><time>2026-04-20T23:11:40.054Z</time></trkpt><trkpt lat="39.3350899" lon="-121.3390358"><ele>313.0</ele><time>2026-04-20T23:11:41.054Z</time></trkpt><trkpt lat="39.335319" lon="-121.3389675"><ele>313.0</ele><time>2026-04-20T23:11:42.055Z</time></trkpt><trkpt lat="39.3355477" lon="-121.3388981"><ele>318.5</ele><time>2026-04-20T23:11:43.054Z</time></trkpt><trkpt lat="39.3357799" lon="-121.3388315"><ele>324.0</ele><time>2026-04-20T23:11:44.055Z</time></trkpt><trkpt lat="39.3360188" lon="-121.3387669"><ele>324.0</ele><time>2026-04-20T23:11:45.055Z</time></trkpt><trkpt lat="39.3362537" lon="-121.3387057"><ele>324.0</ele><time>2026-04-20T23:11:46.054Z</time></trkpt><trkpt lat="39.3364952" lon="-121.3386344"><ele>321.0</ele><time>2026-04-20T23:11:47.055Z</time></trkpt><trkpt lat="39.3367388" lon="-121.3385617"><ele>318.0</ele><time>2026-04-20T23:11:48.054Z</time></trkpt><trkpt lat="39.3369809" lon="-121.3384925"><ele>320.5</ele><time>2026-04-20T23:11:49.055Z</time></trkpt><trkpt lat="39.3372354" lon="-121.3384162"><ele>323.0</ele><time>2026-04-20T23:11:50.055Z</time></trkpt><trkpt lat="39.3374823" lon="-121.3383554"><ele>323.0</ele><time>2026-04-20T23:11:51.054Z</time></trkpt><trkpt lat="39.337732" lon="-121.3382831"><ele>323.0</ele><time>2026-04-20T23:11:52.054Z</time></trkpt><trkpt lat="39.337982" lon="-121.3382045"><ele>327.0</ele><time>2026-04-20T23:11:53.054Z</time></trkpt><trkpt lat="39.3382333" lon="-121.3381342"><ele>331.0</ele><time>2026-04-20T23:11:54.055Z</time></trkpt><trkpt lat="39.3384818" lon="-121.3380614"><ele>332.0</ele><time>2026-04-20T23:11:55.054Z</time></trkpt><trkpt lat="39.3387282" lon="-121.3379903"><ele>333.0</ele><time>2026-04-20T23:11:56.055Z</time></trkpt><trkpt lat="39.3389792" lon="-121.3379158"><ele>338.0</ele><time>2026-04-20T23:11:57.055Z</time></trkpt><trkpt lat="39.3392294" lon="-121.3378418"><ele>343.0</ele><time>2026-04-20T23:11:58.055Z</time></trkpt><trkpt lat="39.3394732" lon="-121.3377816"><ele>343.0</ele><time>2026-04-20T23:11:59.054Z</time></trkpt><trkpt lat="39.3397157" lon="-121.3377185"><ele>343.0</ele><time>2026-04-20T23:12:00.055Z</time></trkpt><trkpt lat="39.3399567" lon="-121.3376434"><ele>346.5</ele><time>2026-04-20T23:12:01.055Z</time></trkpt><trkpt lat="39.3401994" lon="-121.337578"><ele>350.0</ele><time>2026-04-20T23:12:02.055Z</time></trkpt><trkpt lat="39.3404386" lon="-121.3375141"><ele>350.0</ele><time>2026-04-20T23:12:03.055Z</time></trkpt><trkpt lat="39.34068" lon="-121.3374492"><ele>350.0</ele><time>2026-04-20T23:12:04.055Z</time></trkpt><trkpt lat="39.3409178" lon="-121.3373821"><ele>350.0</ele><time>2026-04-20T23:12:05.054Z</time></trkpt><trkpt lat="39.3411472" lon="-121.337305"><ele>350.0</ele><time>2026-04-20T23:12:06.055Z</time></trkpt><trkpt lat="39.3413671" lon="-121.3372108"><ele>358.5</ele><time>2026-04-20T23:12:07.054Z</time></trkpt><trkpt lat="39.34159" lon="-121.3371034"><ele>367.0</ele><time>2026-04-20T23:12:08.054Z</time></trkpt><trkpt lat="39.3418068" lon="-121.3369738"><ele>367.0</ele><time>2026-04-20T23:12:09.054Z</time></trkpt><trkpt lat="39.3420117" lon="-121.3368228"><ele>367.0</ele><time>2026-04-20T23:12:10.055Z</time></trkpt><trkpt lat="39.3422131" lon="-121.3366488"><ele>364.5</ele><time>2026-04-20T23:12:11.054Z</time></trkpt><trkpt lat="39.3423957" lon="-121.3364581"><ele>362.0</ele><time>2026-04-20T23:12:12.055Z</time></trkpt><trkpt lat="39.342568" lon="-121.3362541"><ele>367.0</ele><time>2026-04-20T23:12:13.054Z</time></trkpt><trkpt lat="39.3427334" lon="-121.3360391"><ele>372.0</ele><time>2026-04-20T23:12:14.055Z</time></trkpt><trkpt lat="39.342899" lon="-121.3358183"><ele>369.0</ele><time>2026-04-20T23:12:15.055Z</time></trkpt><trkpt lat="39.3430681" lon="-121.3355868"><ele>366.0</ele><time>2026-04-20T23:12:16.055Z</time></trkpt><trkpt lat="39.3432437" lon="-121.3353506"><ele>366.0</ele><time>2026-04-20T23:12:17.054Z</time></trkpt><trkpt lat="39.3434165" lon="-121.3351174"><ele>366.0</ele><time>2026-04-20T23:12:18.055Z</time></trkpt><trkpt lat="39.3435907" lon="-121.3348899"><ele>369.0</ele><time>2026-04-20T23:12:19.055Z</time></trkpt><trkpt lat="39.3437663" lon="-121.3346554"><ele>372.0</ele><time>2026-04-20T23:12:20.054Z</time></trkpt><trkpt lat="39.3439371" lon="-121.3344193"><ele>375.5</ele><time>2026-04-20T23:12:21.055Z</time></trkpt><trkpt lat="39.3441109" lon="-121.3341873"><ele>379.0</ele><time>2026-04-20T23:12:22.055Z</time></trkpt><trkpt lat="39.3442825" lon="-121.3339551"><ele>381.5</ele><time>2026-04-20T23:12:23.054Z</time></trkpt><trkpt lat="39.3444549" lon="-121.3337261"><ele>384.0</ele><time>2026-04-20T23:12:24.054Z</time></trkpt><trkpt lat="39.3446226" lon="-121.3334988"><ele>386.5</ele><time>2026-04-20T23:12:25.055Z</time></trkpt><trkpt lat="39.344789" lon="-121.3332784"><ele>389.0</ele><time>2026-04-20T23:12:26.055Z</time></trkpt><trkpt lat="39.3449574" lon="-121.3330665"><ele>390.0</ele><time>2026-04-20T23:12:27.055Z</time></trkpt><trkpt lat="39.3451419" lon="-121.3328714"><ele>391.0</ele><time>2026-04-20T23:12:28.055Z</time></trkpt><trkpt lat="39.3453341" lon="-121.3326858"><ele>391.0</ele><time>2026-04-20T23:12:29.054Z</time></trkpt><trkpt lat="39.3455335" lon="-121.332516"><ele>391.0</ele><time>2026-04-20T23:12:30.055Z</time></trkpt><trkpt lat="39.3457442" lon="-121.3323617"><ele>392.0</ele><time>2026-04-20T23:12:31.054Z</time></trkpt><trkpt lat="39.3459522" lon="-121.3322176"><ele>393.0</ele><time>2026-04-20T23:12:32.054Z</time></trkpt><trkpt lat="39.3461518" lon="-121.332068"><ele>393.0</ele><time>2026-04-20T23:12:33.054Z</time></trkpt><trkpt lat="39.3463557" lon="-121.3319115"><ele>393.0</ele><time>2026-04-20T23:12:34.055Z</time></trkpt><trkpt lat="39.3465541" lon="-121.3317526"><ele>398.0</ele><time>2026-04-20T23:12:35.054Z</time></trkpt><trkpt lat="39.3467522" lon="-121.3315999"><ele>403.0</ele><time>2026-04-20T23:12:36.055Z</time></trkpt><trkpt lat="39.3469519" lon="-121.3314467"><ele>408.0</ele><time>2026-04-20T23:12:37.055Z</time></trkpt><trkpt lat="39.3471518" lon="-121.3312948"><ele>413.0</ele><time>2026-04-20T23:12:38.055Z</time></trkpt><trkpt lat="39.3473522" lon="-121.3311506"><ele>415.0</ele><time>2026-04-20T23:12:39.054Z</time></trkpt><trkpt lat="39.3475475" lon="-121.3309977"><ele>417.0</ele><time>2026-04-20T23:12:40.055Z</time></trkpt><trkpt lat="39.3477443" lon="-121.330853"><ele>417.0</ele><time>2026-04-20T23:12:41.055Z</time></trkpt><trkpt lat="39.3479407" lon="-121.3307139"><ele>417.0</ele><time>2026-04-20T23:12:42.055Z</time></trkpt><trkpt lat="39.3481391" lon="-121.3305734"><ele>418.0</ele><time>2026-04-20T23:12:43.055Z</time></trkpt><trkpt lat="39.3483472" lon="-121.3304427"><ele>419.0</ele><time>2026-04-20T23:12:44.055Z</time></trkpt><trkpt lat="39.34855" lon="-121.3303366"><ele>419.0</ele><time>2026-04-20T23:12:45.054Z</time></trkpt><trkpt lat="39.3487535" lon="-121.3302382"><ele>419.0</ele><time>2026-04-20T23:12:46.054Z</time></trkpt><trkpt lat="39.348966" lon="-121.3301321"><ele>419.0</ele><time>2026-04-20T23:12:47.055Z</time></trkpt><trkpt lat="39.3491761" lon="-121.3300389"><ele>417.3333333333333</ele><time>2026-04-20T23:12:48.055Z</time></trkpt><trkpt lat="39.3493817" lon="-121.329947"><ele>415.66666666666663</ele><time>2026-04-20T23:12:49.055Z</time></trkpt><trkpt lat="39.3495846" lon="-121.3298467"><ele>414.0</ele><time>2026-04-20T23:12:50.054Z</time></trkpt><trkpt lat="39.3497794" lon="-121.3297307"><ele>409.0</ele><time>2026-04-20T23:12:51.054Z</time></trkpt><trkpt lat="39.3499551" lon="-121.3295756"><ele>404.0</ele><time>2026-04-20T23:12:52.054Z</time></trkpt><trkpt lat="39.3501275" lon="-121.3294118"><ele>399.0</ele><time>2026-04-20T23:12:53.055Z</time></trkpt><trkpt lat="39.350277" lon="-121.3292083"><ele>399.0</ele><time>2026-04-20T23:12:54.055Z</time></trkpt><trkpt lat="39.3504112" lon="-121.3289994"><ele>399.0</ele><time>2026-04-20T23:12:55.054Z</time></trkpt><trkpt lat="39.3505435" lon="-121.3287819"><ele>399.0</ele><time>2026-04-20T23:12:56.054Z</time></trkpt><trkpt lat="39.3506829" lon="-121.3285664"><ele>401.33333333333337</ele><time>2026-04-20T23:12:57.055Z</time></trkpt><trkpt lat="39.3508299" lon="-121.3283469"><ele>403.6666666666667</ele><time>2026-04-20T23:12:58.055Z</time></trkpt><trkpt lat="39.3509854" lon="-121.3281435"><ele>406.0</ele><time>2026-04-20T23:12:59.054Z</time></trkpt><trkpt lat="39.3511627" lon="-121.327976"><ele>403.0</ele><time>2026-04-20T23:13:00.055Z</time></trkpt><trkpt lat="39.3513632" lon="-121.3278477"><ele>400.0</ele><time>2026-04-20T23:13:01.054Z</time></trkpt><trkpt lat="39.3515672" lon="-121.3277222"><ele>400.0</ele><time>2026-04-20T23:13:02.055Z</time></trkpt><trkpt lat="39.3517731" lon="-121.327646"><ele>400.0</ele><time>2026-04-20T23:13:03.055Z</time></trkpt><trkpt lat="39.3519908" lon="-121.327597"><ele>400.0</ele><time>2026-04-20T23:13:04.055Z</time></trkpt><trkpt lat="39.3522209" lon="-121.3275436"><ele>399.5</ele><time>2026-04-20T23:13:05.054Z</time></trkpt><trkpt lat="39.3524522" lon="-121.327492"><ele>399.0</ele><time>2026-04-20T23:13:06.054Z</time></trkpt><trkpt lat="39.3526773" lon="-121.3274281"><ele>399.0</ele><time>2026-04-20T23:13:07.054Z</time></trkpt><trkpt lat="39.3529064" lon="-121.3273707"><ele>399.0</ele><time>2026-04-20T23:13:08.054Z</time></trkpt><trkpt lat="39.3531392" lon="-121.3273129"><ele>400.5</ele><time>2026-04-20T23:13:09.055Z</time></trkpt><trkpt lat="39.3533696" lon="-121.327262"><ele>402.0</ele><time>2026-04-20T23:13:10.054Z</time></trkpt><trkpt lat="39.3536001" lon="-121.3271991"><ele>397.5</ele><time>2026-04-20T23:13:11.054Z</time></trkpt><trkpt lat="39.3538378" lon="-121.3271334"><ele>393.0</ele><time>2026-04-20T23:13:12.055Z</time></trkpt><trkpt lat="39.3540693" lon="-121.3270764"><ele>393.0</ele><time>2026-04-20T23:13:13.054Z</time></trkpt><trkpt lat="39.3542972" lon="-121.3270128"><ele>393.0</ele><time>2026-04-20T23:13:14.054Z</time></trkpt><trkpt lat="39.354522" lon="-121.3269526"><ele>396.0</ele><time>2026-04-20T23:13:15.054Z</time></trkpt><trkpt lat="39.3547452" lon="-121.3268853"><ele>399.0</ele><time>2026-04-20T23:13:16.055Z</time></trkpt><trkpt lat="39.3549702" lon="-121.3268195"><ele>399.0</ele><time>2026-04-20T23:13:17.054Z</time></trkpt><trkpt lat="39.3551956" lon="-121.3267574"><ele>399.0</ele><time>2026-04-20T23:13:18.054Z</time></trkpt><trkpt lat="39.3554195" lon="-121.3266938"><ele>401.5</ele><time>2026-04-20T23:13:19.054Z</time></trkpt><trkpt lat="39.3556394" lon="-121.3266284"><ele>404.0</ele><time>2026-04-20T23:13:20.055Z</time></trkpt><trkpt lat="39.3558621" lon="-121.32656"><ele>404.0</ele><time>2026-04-20T23:13:21.055Z</time></trkpt><trkpt lat="39.3560818" lon="-121.3264916"><ele>404.0</ele><time>2026-04-20T23:13:22.054Z</time></trkpt><trkpt lat="39.3563009" lon="-121.3264228"><ele>400.5</ele><time>2026-04-20T23:13:23.055Z</time></trkpt><trkpt lat="39.3565255" lon="-121.3263416"><ele>397.0</ele><time>2026-04-20T23:13:24.055Z</time></trkpt><trkpt lat="39.3567578" lon="-121.326274"><ele>397.0</ele><time>2026-04-20T23:13:25.054Z</time></trkpt><trkpt lat="39.356987" lon="-121.3262049"><ele>397.0</ele><time>2026-04-20T23:13:26.055Z</time></trkpt><trkpt lat="39.3572173" lon="-121.3261332"><ele>401.5</ele><time>2026-04-20T23:13:27.055Z</time></trkpt><trkpt lat="39.357448" lon="-121.3260587"><ele>406.0</ele><time>2026-04-20T23:13:28.054Z</time></trkpt><trkpt lat="39.3576809" lon="-121.325985"><ele>406.0</ele><time>2026-04-20T23:13:29.054Z</time></trkpt><trkpt lat="39.3579085" lon="-121.3259152"><ele>406.0</ele><time>2026-04-20T23:13:30.055Z</time></trkpt><trkpt lat="39.3581377" lon="-121.3258467"><ele>411.0</ele><time>2026-04-20T23:13:31.055Z</time></trkpt><trkpt lat="39.3583606" lon="-121.3257752"><ele>416.0</ele><time>2026-04-20T23:13:32.055Z</time></trkpt><trkpt lat="39.3585841" lon="-121.3256975"><ele>416.0</ele><time>2026-04-20T23:13:33.054Z</time></trkpt><trkpt lat="39.3588116" lon="-121.3256275"><ele>416.0</ele><time>2026-04-20T23:13:34.054Z</time></trkpt><trkpt lat="39.359039" lon="-121.3255604"><ele>417.66666666666663</ele><time>2026-04-20T23:13:35.055Z</time></trkpt><trkpt lat="39.3592548" lon="-121.3254953"><ele>419.33333333333337</ele><time>2026-04-20T23:13:36.055Z</time></trkpt><trkpt lat="39.3594749" lon="-121.325432"><ele>421.0</ele><time>2026-04-20T23:13:37.055Z</time></trkpt><trkpt lat="39.3596928" lon="-121.3253613"><ele>421.0</ele><time>2026-04-20T23:13:38.054Z</time></trkpt><trkpt lat="39.3599034" lon="-121.3252924"><ele>421.0</ele><time>2026-04-20T23:13:39.055Z</time></trkpt><trkpt lat="39.3601163" lon="-121.3252233"><ele>421.0</ele><time>2026-04-20T23:13:40.055Z</time></trkpt><trkpt lat="39.3603247" lon="-121.3251645"><ele>420.6666666666667</ele><time>2026-04-20T23:13:41.055Z</time></trkpt><trkpt lat="39.3605356" lon="-121.3250993"><ele>420.33333333333337</ele><time>2026-04-20T23:13:42.055Z</time></trkpt><trkpt lat="39.3607398" lon="-121.32504"><ele>420.0</ele><time>2026-04-20T23:13:43.055Z</time></trkpt><trkpt lat="39.3609454" lon="-121.3249713"><ele>420.0</ele><time>2026-04-20T23:13:44.055Z</time></trkpt><trkpt lat="39.3611549" lon="-121.3249131"><ele>420.0</ele><time>2026-04-20T23:13:45.055Z</time></trkpt><trkpt lat="39.3613599" lon="-121.3248537"><ele>420.0</ele><time>2026-04-20T23:13:46.055Z</time></trkpt><trkpt lat="39.3615541" lon="-121.3247829"><ele>416.66666666666663</ele><time>2026-04-20T23:13:47.055Z</time></trkpt><trkpt lat="39.3617364" lon="-121.3246937"><ele>413.3333333333333</ele><time>2026-04-20T23:13:48.054Z</time></trkpt><trkpt lat="39.3619091" lon="-121.324606"><ele>410.0</ele><time>2026-04-20T23:13:49.054Z</time></trkpt><trkpt lat="39.3620795" lon="-121.3245206"><ele>409.0</ele><time>2026-04-20T23:13:50.054Z</time></trkpt><trkpt lat="39.3622345" lon="-121.3244313"><ele>408.0</ele><time>2026-04-20T23:13:51.055Z</time></trkpt><trkpt lat="39.3623681" lon="-121.3243486"><ele>407.0</ele><time>2026-04-20T23:13:52.054Z</time></trkpt><trkpt lat="39.3624906" lon="-121.3242752"><ele>407.0</ele><time>2026-04-20T23:13:53.055Z</time></trkpt><trkpt lat="39.3625963" lon="-121.3242093"><ele>407.0</ele><time>2026-04-20T23:13:54.054Z</time></trkpt><trkpt lat="39.3626758" lon="-121.3241455"><ele>407.0</ele><time>2026-04-20T23:13:55.054Z</time></trkpt><trkpt lat="39.3627365" lon="-121.324075"><ele>407.0</ele><time>2026-04-20T23:13:56.054Z</time></trkpt><trkpt lat="39.3627754" lon="-121.3239798"><ele>407.0</ele><time>2026-04-20T23:13:57.054Z</time></trkpt><trkpt lat="39.3627946" lon="-121.3238792"><ele>406.0</ele><time>2026-04-20T23:13:58.054Z</time></trkpt><trkpt lat="39.3627905" lon="-121.3237508"><ele>405.0</ele><time>2026-04-20T23:13:59.054Z</time></trkpt><trkpt lat="39.3627647" lon="-121.3236117"><ele>404.0</ele><time>2026-04-20T23:14:00.055Z</time></trkpt><trkpt lat="39.362728" lon="-121.3234664"><ele>403.0</ele><time>2026-04-20T23:14:01.054Z</time></trkpt><trkpt lat="39.3626959" lon="-121.3233013"><ele>403.0</ele><time>2026-04-20T23:14:02.054Z</time></trkpt><trkpt lat="39.3626605" lon="-121.3231204"><ele>403.0</ele><time>2026-04-20T23:14:03.055Z</time></trkpt><trkpt lat="39.362611" lon="-121.3229289"><ele>403.0</ele><time>2026-04-20T23:14:04.054Z</time></trkpt><trkpt lat="39.3625693" lon="-121.3227132"><ele>402.6666666666667</ele><time>2026-04-20T23:14:05.055Z</time></trkpt><trkpt lat="39.3625278" lon="-121.3224855"><ele>402.33333333333337</ele><time>2026-04-20T23:14:06.054Z</time></trkpt><trkpt lat="39.3624823" lon="-121.3222499"><ele>402.0</ele><time>2026-04-20T23:14:07.055Z</time></trkpt><trkpt lat="39.362428" lon="-121.3219994"><ele>399.0</ele><time>2026-04-20T23:14:08.055Z</time></trkpt><trkpt lat="39.3623757" lon="-121.3217369"><ele>396.0</ele><time>2026-04-20T23:14:09.055Z</time></trkpt><trkpt lat="39.3623227" lon="-121.3214585"><ele>393.0</ele><time>2026-04-20T23:14:10.054Z</time></trkpt><trkpt lat="39.3622588" lon="-121.3211815"><ele>391.0</ele><time>2026-04-20T23:14:11.054Z</time></trkpt><trkpt lat="39.3621989" lon="-121.3208874"><ele>389.0</ele><time>2026-04-20T23:14:12.055Z</time></trkpt><trkpt lat="39.3621313" lon="-121.3205958"><ele>382.5</ele><time>2026-04-20T23:14:13.055Z</time></trkpt><trkpt lat="39.3620699" lon="-121.3203058"><ele>376.0</ele><time>2026-04-20T23:14:14.055Z</time></trkpt><trkpt lat="39.3620091" lon="-121.3200136"><ele>376.5</ele><time>2026-04-20T23:14:15.054Z</time></trkpt><trkpt lat="39.3619455" lon="-121.3197135"><ele>377.0</ele><time>2026-04-20T23:14:16.054Z</time></trkpt><trkpt lat="39.3618855" lon="-121.3194073"><ele>377.0</ele><time>2026-04-20T23:14:17.055Z</time></trkpt><trkpt lat="39.3618324" lon="-121.3190989"><ele>377.0</ele><time>2026-04-20T23:14:18.055Z</time></trkpt><trkpt lat="39.3617931" lon="-121.3187929"><ele>379.5</ele><time>2026-04-20T23:14:19.055Z</time></trkpt><trkpt lat="39.3617659" lon="-121.3184767"><ele>382.0</ele><time>2026-04-20T23:14:20.055Z</time></trkpt><trkpt lat="39.3617455" lon="-121.3181697"><ele>377.0</ele><time>2026-04-20T23:14:21.055Z</time></trkpt><trkpt lat="39.3617324" lon="-121.3178554"><ele>372.0</ele><time>2026-04-20T23:14:22.055Z</time></trkpt><trkpt lat="39.3617249" lon="-121.3175481"><ele>372.0</ele><time>2026-04-20T23:14:23.055Z</time></trkpt><trkpt lat="39.3617243" lon="-121.3172405"><ele>372.0</ele><time>2026-04-20T23:14:24.054Z</time></trkpt><trkpt lat="39.3617173" lon="-121.3169326"><ele>371.0</ele><time>2026-04-20T23:14:25.054Z</time></trkpt><trkpt lat="39.3617157" lon="-121.3166231"><ele>370.0</ele><time>2026-04-20T23:14:26.054Z</time></trkpt><trkpt lat="39.3617126" lon="-121.3163175"><ele>370.0</ele><time>2026-04-20T23:14:27.055Z</time></trkpt><trkpt lat="39.3617079" lon="-121.3160111"><ele>370.0</ele><time>2026-04-20T23:14:28.054Z</time></trkpt><trkpt lat="39.3617025" lon="-121.3156986"><ele>375.5</ele><time>2026-04-20T23:14:29.055Z</time></trkpt><trkpt lat="39.3617017" lon="-121.3153826"><ele>381.0</ele><time>2026-04-20T23:14:30.055Z</time></trkpt><trkpt lat="39.3617009" lon="-121.3150662"><ele>381.0</ele><time>2026-04-20T23:14:31.055Z</time></trkpt><trkpt lat="39.3617022" lon="-121.3147542"><ele>381.0</ele><time>2026-04-20T23:14:32.055Z</time></trkpt><trkpt lat="39.3617032" lon="-121.3144383"><ele>383.0</ele><time>2026-04-20T23:14:33.054Z</time></trkpt><trkpt lat="39.3617032" lon="-121.3141189"><ele>385.0</ele><time>2026-04-20T23:14:34.054Z</time></trkpt><trkpt lat="39.3617015" lon="-121.3137983"><ele>386.0</ele><time>2026-04-20T23:14:35.055Z</time></trkpt><trkpt lat="39.3617053" lon="-121.3134832"><ele>387.0</ele><time>2026-04-20T23:14:36.054Z</time></trkpt><trkpt lat="39.3617041" lon="-121.3131736"><ele>387.5</ele><time>2026-04-20T23:14:37.054Z</time></trkpt><trkpt lat="39.3616972" lon="-121.3128586"><ele>388.0</ele><time>2026-04-20T23:14:38.055Z</time></trkpt><trkpt lat="39.3616952" lon="-121.3125448"><ele>388.0</ele><time>2026-04-20T23:14:39.054Z</time></trkpt><trkpt lat="39.3616931" lon="-121.3122414"><ele>388.0</ele><time>2026-04-20T23:14:40.054Z</time></trkpt><trkpt lat="39.3616911" lon="-121.3119362"><ele>389.5</ele><time>2026-04-20T23:14:41.055Z</time></trkpt><trkpt lat="39.3616876" lon="-121.3116358"><ele>391.0</ele><time>2026-04-20T23:14:42.054Z</time></trkpt><trkpt lat="39.3616873" lon="-121.3113416"><ele>393.5</ele><time>2026-04-20T23:14:43.055Z</time></trkpt><trkpt lat="39.3616861" lon="-121.3110481"><ele>396.0</ele><time>2026-04-20T23:14:44.054Z</time></trkpt><trkpt lat="39.3616799" lon="-121.3107539"><ele>399.5</ele><time>2026-04-20T23:14:45.055Z</time></trkpt><trkpt lat="39.3616825" lon="-121.3104644"><ele>403.0</ele><time>2026-04-20T23:14:46.054Z</time></trkpt><trkpt lat="39.361682" lon="-121.3101705"><ele>403.0</ele><time>2026-04-20T23:14:47.054Z</time></trkpt><trkpt lat="39.3616849" lon="-121.3098764"><ele>403.0</ele><time>2026-04-20T23:14:48.054Z</time></trkpt><trkpt lat="39.3616762" lon="-121.3095697"><ele>405.5</ele><time>2026-04-20T23:14:49.055Z</time></trkpt><trkpt lat="39.3616679" lon="-121.3092708"><ele>408.0</ele><time>2026-04-20T23:14:50.055Z</time></trkpt><trkpt lat="39.3616557" lon="-121.3089714"><ele>407.5</ele><time>2026-04-20T23:14:51.054Z</time></trkpt><trkpt lat="39.3616243" lon="-121.3086724"><ele>407.0</ele><time>2026-04-20T23:14:52.055Z</time></trkpt><trkpt lat="39.3615802" lon="-121.3083722"><ele>404.5</ele><time>2026-04-20T23:14:53.054Z</time></trkpt><trkpt lat="39.3615095" lon="-121.3080681"><ele>402.0</ele><time>2026-04-20T23:14:54.054Z</time></trkpt><trkpt lat="39.3614215" lon="-121.3077808"><ele>405.5</ele><time>2026-04-20T23:14:55.055Z</time></trkpt><trkpt lat="39.3613419" lon="-121.3074908"><ele>409.0</ele><time>2026-04-20T23:14:56.055Z</time></trkpt><trkpt lat="39.3612537" lon="-121.3071992"><ele>409.0</ele><time>2026-04-20T23:14:57.055Z</time></trkpt><trkpt lat="39.3611603" lon="-121.3069094"><ele>409.0</ele><time>2026-04-20T23:14:58.055Z</time></trkpt><trkpt lat="39.3610698" lon="-121.306614"><ele>407.0</ele><time>2026-04-20T23:14:59.055Z</time></trkpt><trkpt lat="39.3609839" lon="-121.3063109"><ele>405.0</ele><time>2026-04-20T23:15:00.054Z</time></trkpt><trkpt lat="39.3608989" lon="-121.3060052"><ele>405.0</ele><time>2026-04-20T23:15:01.054Z</time></trkpt><trkpt lat="39.3608259" lon="-121.3056942"><ele>405.0</ele><time>2026-04-20T23:15:02.055Z</time></trkpt><trkpt lat="39.3607726" lon="-121.3053619"><ele>405.0</ele><time>2026-04-20T23:15:03.055Z</time></trkpt><trkpt lat="39.3607367" lon="-121.3050315"><ele>405.0</ele><time>2026-04-20T23:15:04.054Z</time></trkpt><trkpt lat="39.3607207" lon="-121.3046994"><ele>405.0</ele><time>2026-04-20T23:15:05.054Z</time></trkpt><trkpt lat="39.3607372" lon="-121.3043626"><ele>405.0</ele><time>2026-04-20T23:15:06.054Z</time></trkpt><trkpt lat="39.3607832" lon="-121.3040236"><ele>409.5</ele><time>2026-04-20T23:15:07.054Z</time></trkpt><trkpt lat="39.3608416" lon="-121.3036919"><ele>414.0</ele><time>2026-04-20T23:15:08.055Z</time></trkpt><trkpt lat="39.3609153" lon="-121.3033738"><ele>421.0</ele><time>2026-04-20T23:15:09.054Z</time></trkpt><trkpt lat="39.3609974" lon="-121.3030665"><ele>428.0</ele><time>2026-04-20T23:15:10.054Z</time></trkpt><trkpt lat="39.3610807" lon="-121.3027611"><ele>428.0</ele><time>2026-04-20T23:15:11.055Z</time></trkpt><trkpt lat="39.3611572" lon="-121.302462"><ele>428.0</ele><time>2026-04-20T23:15:12.054Z</time></trkpt><trkpt lat="39.3612316" lon="-121.3021563"><ele>433.5</ele><time>2026-04-20T23:15:13.055Z</time></trkpt><trkpt lat="39.3612942" lon="-121.3018422"><ele>439.0</ele><time>2026-04-20T23:15:14.055Z</time></trkpt><trkpt lat="39.3613468" lon="-121.3015204"><ele>438.0</ele><time>2026-04-20T23:15:15.054Z</time></trkpt><trkpt lat="39.361368" lon="-121.3012043"><ele>437.0</ele><time>2026-04-20T23:15:16.055Z</time></trkpt><trkpt lat="39.3613693" lon="-121.3008843"><ele>444.0</ele><time>2026-04-20T23:15:17.054Z</time></trkpt><trkpt lat="39.3613622" lon="-121.3005698"><ele>451.0</ele><time>2026-04-20T23:15:18.055Z</time></trkpt><trkpt lat="39.3613217" lon="-121.3002554"><ele>451.0</ele><time>2026-04-20T23:15:19.055Z</time></trkpt><trkpt lat="39.3612726" lon="-121.299949"><ele>451.0</ele><time>2026-04-20T23:15:20.054Z</time></trkpt><trkpt lat="39.361189" lon="-121.2996564"><ele>450.0</ele><time>2026-04-20T23:15:21.054Z</time></trkpt><trkpt lat="39.3611011" lon="-121.2993594"><ele>449.0</ele><time>2026-04-20T23:15:22.055Z</time></trkpt><trkpt lat="39.3610152" lon="-121.2990599"><ele>449.5</ele><time>2026-04-20T23:15:23.055Z</time></trkpt><trkpt lat="39.3609275" lon="-121.2987638"><ele>450.0</ele><time>2026-04-20T23:15:24.054Z</time></trkpt><trkpt lat="39.3608322" lon="-121.2984708"><ele>450.0</ele><time>2026-04-20T23:15:25.054Z</time></trkpt><trkpt lat="39.360747" lon="-121.2981673"><ele>450.0</ele><time>2026-04-20T23:15:26.055Z</time></trkpt><trkpt lat="39.3606573" lon="-121.2978658"><ele>449.5</ele><time>2026-04-20T23:15:27.055Z</time></trkpt><trkpt lat="39.3605618" lon="-121.297563"><ele>449.0</ele><time>2026-04-20T23:15:28.054Z</time></trkpt><trkpt lat="39.3604675" lon="-121.2972557"><ele>449.5</ele><time>2026-04-20T23:15:29.054Z</time></trkpt><trkpt lat="39.3603729" lon="-121.2969537"><ele>450.0</ele><time>2026-04-20T23:15:30.054Z</time></trkpt><trkpt lat="39.3602782" lon="-121.2966384"><ele>447.0</ele><time>2026-04-20T23:15:31.055Z</time></trkpt><trkpt lat="39.3601813" lon="-121.2963289"><ele>444.0</ele><time>2026-04-20T23:15:32.055Z</time></trkpt><trkpt lat="39.3600836" lon="-121.2960148"><ele>444.0</ele><time>2026-04-20T23:15:33.055Z</time></trkpt><trkpt lat="39.3599855" lon="-121.2957052"><ele>444.0</ele><time>2026-04-20T23:15:34.055Z</time></trkpt><trkpt lat="39.3598898" lon="-121.295388"><ele>444.5</ele><time>2026-04-20T23:15:35.055Z</time></trkpt><trkpt lat="39.3597938" lon="-121.2950652"><ele>445.0</ele><time>2026-04-20T23:15:36.054Z</time></trkpt><trkpt lat="39.359694" lon="-121.2947519"><ele>451.0</ele><time>2026-04-20T23:15:37.055Z</time></trkpt><trkpt lat="39.3595982" lon="-121.2944349"><ele>457.0</ele><time>2026-04-20T23:15:38.055Z</time></trkpt><trkpt lat="39.3595045" lon="-121.2941236"><ele>457.5</ele><time>2026-04-20T23:15:39.055Z</time></trkpt><trkpt lat="39.3594166" lon="-121.2938091"><ele>458.0</ele><time>2026-04-20T23:15:40.054Z</time></trkpt><trkpt lat="39.3593442" lon="-121.2934786"><ele>458.0</ele><time>2026-04-20T23:15:41.054Z</time></trkpt><trkpt lat="39.3592913" lon="-121.2931659"><ele>458.0</ele><time>2026-04-20T23:15:42.055Z</time></trkpt><trkpt lat="39.359247" lon="-121.2928352"><ele>457.0</ele><time>2026-04-20T23:15:43.054Z</time></trkpt><trkpt lat="39.3592204" lon="-121.2925029"><ele>456.0</ele><time>2026-04-20T23:15:44.054Z</time></trkpt><trkpt lat="39.3592028" lon="-121.2921664"><ele>455.5</ele><time>2026-04-20T23:15:45.055Z</time></trkpt><trkpt lat="39.3591803" lon="-121.2918331"><ele>455.0</ele><time>2026-04-20T23:15:46.054Z</time></trkpt><trkpt lat="39.3591656" lon="-121.291494"><ele>455.5</ele><time>2026-04-20T23:15:47.054Z</time></trkpt><trkpt lat="39.3591481" lon="-121.2911623"><ele>456.0</ele><time>2026-04-20T23:15:48.055Z</time></trkpt><trkpt lat="39.3591243" lon="-121.2908396"><ele>455.0</ele><time>2026-04-20T23:15:49.054Z</time></trkpt><trkpt lat="39.3591038" lon="-121.2905155"><ele>454.0</ele><time>2026-04-20T23:15:50.055Z</time></trkpt><trkpt lat="39.3590809" lon="-121.2901968"><ele>454.0</ele><time>2026-04-20T23:15:51.054Z</time></trkpt><trkpt lat="39.3590456" lon="-121.2898852"><ele>454.0</ele><time>2026-04-20T23:15:52.054Z</time></trkpt><trkpt lat="39.3590059" lon="-121.289572"><ele>450.0</ele><time>2026-04-20T23:15:53.054Z</time></trkpt><trkpt lat="39.3589545" lon="-121.2892632"><ele>446.0</ele><time>2026-04-20T23:15:54.055Z</time></trkpt><trkpt lat="39.3588915" lon="-121.2889474"><ele>457.5</ele><time>2026-04-20T23:15:55.054Z</time></trkpt><trkpt lat="39.3588243" lon="-121.2886474"><ele>469.0</ele><time>2026-04-20T23:15:56.055Z</time></trkpt><trkpt lat="39.3587389" lon="-121.288348"><ele>463.5</ele><time>2026-04-20T23:15:57.054Z</time></trkpt><trkpt lat="39.3586497" lon="-121.2880554"><ele>458.0</ele><time>2026-04-20T23:15:58.054Z</time></trkpt><trkpt lat="39.3585519" lon="-121.2877674"><ele>458.0</ele><time>2026-04-20T23:15:59.055Z</time></trkpt><trkpt lat="39.3584594" lon="-121.2874848"><ele>458.0</ele><time>2026-04-20T23:16:00.055Z</time></trkpt><trkpt lat="39.3583671" lon="-121.2871938"><ele>453.5</ele><time>2026-04-20T23:16:01.055Z</time></trkpt><trkpt lat="39.3582776" lon="-121.2869114"><ele>449.0</ele><time>2026-04-20T23:16:02.054Z</time></trkpt><trkpt lat="39.3581836" lon="-121.2866228"><ele>447.0</ele><time>2026-04-20T23:16:03.055Z</time></trkpt><trkpt lat="39.3580854" lon="-121.2863395"><ele>445.0</ele><time>2026-04-20T23:16:04.054Z</time></trkpt><trkpt lat="39.3579885" lon="-121.2860695"><ele>448.0</ele><time>2026-04-20T23:16:05.055Z</time></trkpt><trkpt lat="39.3578916" lon="-121.2857947"><ele>451.0</ele><time>2026-04-20T23:16:06.055Z</time></trkpt><trkpt lat="39.3577958" lon="-121.2855205"><ele>451.0</ele><time>2026-04-20T23:16:07.054Z</time></trkpt><trkpt lat="39.3577024" lon="-121.2852452"><ele>451.0</ele><time>2026-04-20T23:16:08.055Z</time></trkpt><trkpt lat="39.3576087" lon="-121.2849766"><ele>455.5</ele><time>2026-04-20T23:16:09.055Z</time></trkpt><trkpt lat="39.3575148" lon="-121.2847052"><ele>460.0</ele><time>2026-04-20T23:16:10.054Z</time></trkpt><trkpt lat="39.3574208" lon="-121.2844432"><ele>460.0</ele><time>2026-04-20T23:16:11.055Z</time></trkpt><trkpt lat="39.3573278" lon="-121.284178"><ele>460.0</ele><time>2026-04-20T23:16:12.055Z</time></trkpt><trkpt lat="39.3572427" lon="-121.2839027"><ele>459.0</ele><time>2026-04-20T23:16:13.055Z</time></trkpt><trkpt lat="39.3571513" lon="-121.2836433"><ele>458.0</ele><time>2026-04-20T23:16:14.054Z</time></trkpt><trkpt lat="39.3570551" lon="-121.2833812"><ele>457.0</ele><time>2026-04-20T23:16:15.055Z</time></trkpt><trkpt lat="39.3569696" lon="-121.2831227"><ele>457.6666666666667</ele><time>2026-04-20T23:16:16.054Z</time></trkpt><trkpt lat="39.3568821" lon="-121.2828579"><ele>458.33333333333337</ele><time>2026-04-20T23:16:17.054Z</time></trkpt><trkpt lat="39.3567945" lon="-121.2826012"><ele>459.0</ele><time>2026-04-20T23:16:18.055Z</time></trkpt><trkpt lat="39.3567088" lon="-121.2823412"><ele>460.33333333333337</ele><time>2026-04-20T23:16:19.054Z</time></trkpt><trkpt lat="39.3566256" lon="-121.2820849"><ele>461.6666666666667</ele><time>2026-04-20T23:16:20.055Z</time></trkpt><trkpt lat="39.3565478" lon="-121.2818272"><ele>463.0</ele><time>2026-04-20T23:16:21.055Z</time></trkpt><trkpt lat="39.3564795" lon="-121.2815659"><ele>463.6666666666667</ele><time>2026-04-20T23:16:22.054Z</time></trkpt><trkpt lat="39.3564345" lon="-121.2813128"><ele>464.33333333333337</ele><time>2026-04-20T23:16:23.055Z</time></trkpt><trkpt lat="39.3564076" lon="-121.2810581"><ele>465.0</ele><time>2026-04-20T23:16:24.055Z</time></trkpt><trkpt lat="39.3563902" lon="-121.2807927"><ele>466.0</ele><time>2026-04-20T23:16:25.055Z</time></trkpt><trkpt lat="39.3563893" lon="-121.2805418"><ele>467.0</ele><time>2026-04-20T23:16:26.055Z</time></trkpt><trkpt lat="39.356383" lon="-121.2802973"><ele>468.0</ele><time>2026-04-20T23:16:27.054Z</time></trkpt><trkpt lat="39.3563902" lon="-121.2800759"><ele>468.0</ele><time>2026-04-20T23:16:28.054Z</time></trkpt><trkpt lat="39.3564034" lon="-121.2798694"><ele>468.0</ele><time>2026-04-20T23:16:29.055Z</time></trkpt><trkpt lat="39.3564261" lon="-121.2796713"><ele>468.0</ele><time>2026-04-20T23:16:30.055Z</time></trkpt><trkpt lat="39.3564528" lon="-121.2794811"><ele>468.4</ele><time>2026-04-20T23:16:31.054Z</time></trkpt><trkpt lat="39.3564683" lon="-121.2793183"><ele>468.79999999999995</ele><time>2026-04-20T23:16:32.054Z</time></trkpt><trkpt lat="39.3564777" lon="-121.279175"><ele>469.2</ele><time>2026-04-20T23:16:33.055Z</time></trkpt><trkpt lat="39.3564789" lon="-121.2790555"><ele>469.6</ele><time>2026-04-20T23:16:34.054Z</time></trkpt><trkpt lat="39.3564671" lon="-121.2789562"><ele>470.0</ele><time>2026-04-20T23:16:35.055Z</time></trkpt><trkpt lat="39.3564099" lon="-121.2788646"><ele>468.0</ele><time>2026-04-20T23:16:36.055Z</time></trkpt><trkpt lat="39.3563305" lon="-121.2787809"><ele>466.0</ele><time>2026-04-20T23:16:37.054Z</time></trkpt><trkpt lat="39.356233" lon="-121.2786969"><ele>464.0</ele><time>2026-04-20T23:16:38.054Z</time></trkpt><trkpt lat="39.3561282" lon="-121.2786141"><ele>462.0</ele><time>2026-04-20T23:16:39.054Z</time></trkpt><trkpt lat="39.3560072" lon="-121.2785191"><ele>462.0</ele><time>2026-04-20T23:16:40.054Z</time></trkpt><trkpt lat="39.3558697" lon="-121.278424"><ele>462.0</ele><time>2026-04-20T23:16:41.054Z</time></trkpt><trkpt lat="39.3557112" lon="-121.2783067"><ele>462.0</ele><time>2026-04-20T23:16:42.055Z</time></trkpt><trkpt lat="39.3555506" lon="-121.2781773"><ele>461.66666666666663</ele><time>2026-04-20T23:16:43.055Z</time></trkpt><trkpt lat="39.3553806" lon="-121.2780494"><ele>461.3333333333333</ele><time>2026-04-20T23:16:44.054Z</time></trkpt><trkpt lat="39.355204" lon="-121.2779212"><ele>461.0</ele><time>2026-04-20T23:16:45.055Z</time></trkpt><trkpt lat="39.3550178" lon="-121.2777919"><ele>461.0</ele><time>2026-04-20T23:16:46.054Z</time></trkpt><trkpt lat="39.3548396" lon="-121.2776616"><ele>461.0</ele><time>2026-04-20T23:16:47.054Z</time></trkpt><trkpt lat="39.3546592" lon="-121.2775216"><ele>461.0</ele><time>2026-04-20T23:16:48.055Z</time></trkpt><trkpt lat="39.3544807" lon="-121.277378"><ele>461.0</ele><time>2026-04-20T23:16:49.054Z</time></trkpt><trkpt lat="39.3542951" lon="-121.2772359"><ele>461.0</ele><time>2026-04-20T23:16:50.054Z</time></trkpt><trkpt lat="39.3541141" lon="-121.2770878"><ele>461.0</ele><time>2026-04-20T23:16:51.055Z</time></trkpt><trkpt lat="39.3539268" lon="-121.2769453"><ele>463.3333333333333</ele><time>2026-04-20T23:16:52.055Z</time></trkpt><trkpt lat="39.3537438" lon="-121.276802"><ele>465.66666666666663</ele><time>2026-04-20T23:16:53.054Z</time></trkpt><trkpt lat="39.3535624" lon="-121.2766613"><ele>468.0</ele><time>2026-04-20T23:16:54.055Z</time></trkpt><trkpt lat="39.3533816" lon="-121.276518"><ele>467.66666666666663</ele><time>2026-04-20T23:16:55.054Z</time></trkpt><trkpt lat="39.3532064" lon="-121.2763741"><ele>467.3333333333333</ele><time>2026-04-20T23:16:56.055Z</time></trkpt><trkpt lat="39.3530319" lon="-121.2762333"><ele>467.0</ele><time>2026-04-20T23:16:57.055Z</time></trkpt><trkpt lat="39.3528594" lon="-121.2760957"><ele>466.66666666666663</ele><time>2026-04-20T23:16:58.054Z</time></trkpt><trkpt lat="39.3526828" lon="-121.2759519"><ele>466.33333333333337</ele><time>2026-04-20T23:16:59.055Z</time></trkpt><trkpt lat="39.3525093" lon="-121.2758021"><ele>466.0</ele><time>2026-04-20T23:17:00.054Z</time></trkpt><trkpt lat="39.3523355" lon="-121.2756572"><ele>465.33333333333337</ele><time>2026-04-20T23:17:01.055Z</time></trkpt><trkpt lat="39.3521548" lon="-121.2755064"><ele>464.66666666666663</ele><time>2026-04-20T23:17:02.054Z</time></trkpt><trkpt lat="39.3519803" lon="-121.2753572"><ele>464.0</ele><time>2026-04-20T23:17:03.055Z</time></trkpt><trkpt lat="39.3518049" lon="-121.2752068"><ele>464.0</ele><time>2026-04-20T23:17:04.055Z</time></trkpt><trkpt lat="39.3516217" lon="-121.2750573"><ele>464.0</ele><time>2026-04-20T23:17:05.054Z</time></trkpt><trkpt lat="39.3514406" lon="-121.2749092"><ele>464.0</ele><time>2026-04-20T23:17:06.055Z</time></trkpt><trkpt lat="39.3512615" lon="-121.2747677"><ele>464.66666666666663</ele><time>2026-04-20T23:17:07.054Z</time></trkpt><trkpt lat="39.3510822" lon="-121.274624"><ele>465.33333333333337</ele><time>2026-04-20T23:17:08.054Z</time></trkpt><trkpt lat="39.3509058" lon="-121.2744792"><ele>466.0</ele><time>2026-04-20T23:17:09.054Z</time></trkpt><trkpt lat="39.350721" lon="-121.2743295"><ele>465.6666666666667</ele><time>2026-04-20T23:17:10.054Z</time></trkpt><trkpt lat="39.3505371" lon="-121.2741799"><ele>465.33333333333337</ele><time>2026-04-20T23:17:11.055Z</time></trkpt><trkpt lat="39.3503594" lon="-121.2740267"><ele>465.0</ele><time>2026-04-20T23:17:12.054Z</time></trkpt><trkpt lat="39.3501779" lon="-121.2738757"><ele>466.0</ele><time>2026-04-20T23:17:13.054Z</time></trkpt><trkpt lat="39.3499935" lon="-121.2737354"><ele>467.0</ele><time>2026-04-20T23:17:14.055Z</time></trkpt><trkpt lat="39.3498129" lon="-121.2736007"><ele>468.0</ele><time>2026-04-20T23:17:15.054Z</time></trkpt><trkpt lat="39.3496283" lon="-121.2734668"><ele>468.0</ele><time>2026-04-20T23:17:16.054Z</time></trkpt><trkpt lat="39.3494431" lon="-121.2733429"><ele>468.0</ele><time>2026-04-20T23:17:17.055Z</time></trkpt><trkpt lat="39.34925" lon="-121.2732191"><ele>468.0</ele><time>2026-04-20T23:17:18.055Z</time></trkpt><trkpt lat="39.3490548" lon="-121.2730951"><ele>469.0</ele><time>2026-04-20T23:17:19.054Z</time></trkpt><trkpt lat="39.3488611" lon="-121.2729755"><ele>470.0</ele><time>2026-04-20T23:17:20.055Z</time></trkpt><trkpt lat="39.3486721" lon="-121.2728506"><ele>471.0</ele><time>2026-04-20T23:17:21.054Z</time></trkpt><trkpt lat="39.3484812" lon="-121.2727244"><ele>471.0</ele><time>2026-04-20T23:17:22.055Z</time></trkpt><trkpt lat="39.3482865" lon="-121.2725953"><ele>471.0</ele><time>2026-04-20T23:17:23.055Z</time></trkpt><trkpt lat="39.3480922" lon="-121.2724657"><ele>471.0</ele><time>2026-04-20T23:17:24.054Z</time></trkpt><trkpt lat="39.3478956" lon="-121.2723346"><ele>471.33333333333337</ele><time>2026-04-20T23:17:25.054Z</time></trkpt><trkpt lat="39.3477028" lon="-121.272203"><ele>471.6666666666667</ele><time>2026-04-20T23:17:26.054Z</time></trkpt><trkpt lat="39.3475119" lon="-121.2720757"><ele>472.0</ele><time>2026-04-20T23:17:27.055Z</time></trkpt><trkpt lat="39.347321" lon="-121.2719519"><ele>471.6666666666667</ele><time>2026-04-20T23:17:28.055Z</time></trkpt><trkpt lat="39.3471307" lon="-121.2718274"><ele>471.33333333333337</ele><time>2026-04-20T23:17:29.055Z</time></trkpt><trkpt lat="39.3469455" lon="-121.2717082"><ele>471.0</ele><time>2026-04-20T23:17:30.055Z</time></trkpt><trkpt lat="39.3467596" lon="-121.2715922"><ele>471.0</ele><time>2026-04-20T23:17:31.054Z</time></trkpt><trkpt lat="39.3465745" lon="-121.2714727"><ele>471.0</ele><time>2026-04-20T23:17:32.055Z</time></trkpt><trkpt lat="39.3463871" lon="-121.2713502"><ele>471.0</ele><time>2026-04-20T23:17:33.054Z</time></trkpt><trkpt lat="39.3461999" lon="-121.2712319"><ele>472.66666666666663</ele><time>2026-04-20T23:17:34.054Z</time></trkpt><trkpt lat="39.3460176" lon="-121.271109"><ele>474.3333333333333</ele><time>2026-04-20T23:17:35.054Z</time></trkpt><trkpt lat="39.3458436" lon="-121.2709911"><ele>476.0</ele><time>2026-04-20T23:17:36.054Z</time></trkpt><trkpt lat="39.3456733" lon="-121.2708734"><ele>476.0</ele><time>2026-04-20T23:17:37.054Z</time></trkpt><trkpt lat="39.3455087" lon="-121.2707554"><ele>476.0</ele><time>2026-04-20T23:17:38.054Z</time></trkpt><trkpt lat="39.3453414" lon="-121.2706429"><ele>476.0</ele><time>2026-04-20T23:17:39.055Z</time></trkpt><trkpt lat="39.3451761" lon="-121.270531"><ele>476.0</ele><time>2026-04-20T23:17:40.054Z</time></trkpt><trkpt lat="39.345015" lon="-121.2704233"><ele>476.0</ele><time>2026-04-20T23:17:41.054Z</time></trkpt><trkpt lat="39.3448559" lon="-121.2703243"><ele>476.0</ele><time>2026-04-20T23:17:42.055Z</time></trkpt><trkpt lat="39.3446879" lon="-121.270224"><ele>476.3333333333333</ele><time>2026-04-20T23:17:43.054Z</time></trkpt><trkpt lat="39.3445253" lon="-121.2701309"><ele>476.66666666666663</ele><time>2026-04-20T23:17:44.054Z</time></trkpt><trkpt lat="39.3443676" lon="-121.2700494"><ele>477.0</ele><time>2026-04-20T23:17:45.055Z</time></trkpt><trkpt lat="39.3442089" lon="-121.2699649"><ele>477.0</ele><time>2026-04-20T23:17:46.055Z</time></trkpt><trkpt lat="39.3440563" lon="-121.2698743"><ele>477.0</ele><time>2026-04-20T23:17:47.054Z</time></trkpt><trkpt lat="39.3439053" lon="-121.2697881"><ele>477.0</ele><time>2026-04-20T23:17:48.054Z</time></trkpt><trkpt lat="39.3437476" lon="-121.2697067"><ele>478.0</ele><time>2026-04-20T23:17:49.054Z</time></trkpt><trkpt lat="39.3435965" lon="-121.2696341"><ele>479.0</ele><time>2026-04-20T23:17:50.055Z</time></trkpt><trkpt lat="39.3434396" lon="-121.2695571"><ele>480.0</ele><time>2026-04-20T23:17:51.055Z</time></trkpt><trkpt lat="39.3432881" lon="-121.2694776"><ele>480.0</ele><time>2026-04-20T23:17:52.054Z</time></trkpt><trkpt lat="39.3431491" lon="-121.2693974"><ele>480.0</ele><time>2026-04-20T23:17:53.055Z</time></trkpt><trkpt lat="39.3430131" lon="-121.2693164"><ele>480.0</ele><time>2026-04-20T23:17:54.054Z</time></trkpt><trkpt lat="39.342878" lon="-121.2692307"><ele>480.25</ele><time>2026-04-20T23:17:55.054Z</time></trkpt><trkpt lat="39.3427477" lon="-121.2691418"><ele>480.5</ele><time>2026-04-20T23:17:56.055Z</time></trkpt><trkpt lat="39.3426174" lon="-121.269045"><ele>480.75</ele><time>2026-04-20T23:17:57.054Z</time></trkpt><trkpt lat="39.3424889" lon="-121.2689413"><ele>481.0</ele><time>2026-04-20T23:17:58.054Z</time></trkpt><trkpt lat="39.3423661" lon="-121.2688375"><ele>481.0</ele><time>2026-04-20T23:17:59.054Z</time></trkpt><trkpt lat="39.3422455" lon="-121.2687247"><ele>481.0</ele><time>2026-04-20T23:18:00.054Z</time></trkpt><trkpt lat="39.3421409" lon="-121.2686055"><ele>481.0</ele><time>2026-04-20T23:18:01.055Z</time></trkpt><trkpt lat="39.3420329" lon="-121.2684887"><ele>481.0</ele><time>2026-04-20T23:18:02.055Z</time></trkpt><trkpt lat="39.3419261" lon="-121.2683609"><ele>481.0</ele><time>2026-04-20T23:18:03.054Z</time></trkpt><trkpt lat="39.3418213" lon="-121.2682429"><ele>481.0</ele><time>2026-04-20T23:18:04.055Z</time></trkpt><trkpt lat="39.3417171" lon="-121.2681246"><ele>481.0</ele><time>2026-04-20T23:18:05.054Z</time></trkpt><trkpt lat="39.341613" lon="-121.2680041"><ele>481.0</ele><time>2026-04-20T23:18:06.054Z</time></trkpt><trkpt lat="39.3415126" lon="-121.267887"><ele>481.0</ele><time>2026-04-20T23:18:07.054Z</time></trkpt><trkpt lat="39.3414125" lon="-121.2677736"><ele>481.0</ele><time>2026-04-20T23:18:08.055Z</time></trkpt><trkpt lat="39.3413172" lon="-121.2676639"><ele>481.0</ele><time>2026-04-20T23:18:09.055Z</time></trkpt><trkpt lat="39.3412152" lon="-121.2675569"><ele>481.0</ele><time>2026-04-20T23:18:10.055Z</time></trkpt><trkpt lat="39.3411175" lon="-121.2674461"><ele>481.5</ele><time>2026-04-20T23:18:11.055Z</time></trkpt><trkpt lat="39.3410162" lon="-121.2673307"><ele>482.0</ele><time>2026-04-20T23:18:12.054Z</time></trkpt><trkpt lat="39.3409142" lon="-121.267217"><ele>482.5</ele><time>2026-04-20T23:18:13.055Z</time></trkpt><trkpt lat="39.3408124" lon="-121.2671017"><ele>483.0</ele><time>2026-04-20T23:18:14.054Z</time></trkpt><trkpt lat="39.34072" lon="-121.2669836"><ele>483.25</ele><time>2026-04-20T23:18:15.054Z</time></trkpt><trkpt lat="39.3406212" lon="-121.2668714"><ele>483.5</ele><time>2026-04-20T23:18:16.055Z</time></trkpt><trkpt lat="39.3405147" lon="-121.2667589"><ele>483.75</ele><time>2026-04-20T23:18:17.055Z</time></trkpt><trkpt lat="39.340411" lon="-121.2666467"><ele>484.0</ele><time>2026-04-20T23:18:18.054Z</time></trkpt><trkpt lat="39.3403182" lon="-121.2665314"><ele>485.0</ele><time>2026-04-20T23:18:19.054Z</time></trkpt><trkpt lat="39.3402177" lon="-121.2664208"><ele>486.0</ele><time>2026-04-20T23:18:20.054Z</time></trkpt><trkpt lat="39.3401182" lon="-121.2663097"><ele>487.0</ele><time>2026-04-20T23:18:21.054Z</time></trkpt><trkpt lat="39.3400188" lon="-121.2662051"><ele>488.0</ele><time>2026-04-20T23:18:22.055Z</time></trkpt><trkpt lat="39.339923" lon="-121.2661046"><ele>488.0</ele><time>2026-04-20T23:18:23.054Z</time></trkpt><trkpt lat="39.3398348" lon="-121.2660014"><ele>488.0</ele><time>2026-04-20T23:18:24.054Z</time></trkpt><trkpt lat="39.3397459" lon="-121.2659087"><ele>488.0</ele><time>2026-04-20T23:18:25.054Z</time></trkpt><trkpt lat="39.3396541" lon="-121.2658305"><ele>488.0</ele><time>2026-04-20T23:18:26.055Z</time></trkpt><trkpt lat="39.3395508" lon="-121.2657669"><ele>488.0</ele><time>2026-04-20T23:18:27.054Z</time></trkpt><trkpt lat="39.3394421" lon="-121.2657414"><ele>488.0</ele><time>2026-04-20T23:18:28.055Z</time></trkpt><trkpt lat="39.3393169" lon="-121.2657537"><ele>488.0</ele><time>2026-04-20T23:18:29.055Z</time></trkpt><trkpt lat="39.3391936" lon="-121.265751"><ele>488.0</ele><time>2026-04-20T23:18:30.055Z</time></trkpt><trkpt lat="39.3390664" lon="-121.2657508"><ele>488.0</ele><time>2026-04-20T23:18:31.054Z</time></trkpt><trkpt lat="39.3389436" lon="-121.265759"><ele>488.0</ele><time>2026-04-20T23:18:32.054Z</time></trkpt><trkpt lat="39.3388167" lon="-121.265769"><ele>488.0</ele><time>2026-04-20T23:18:33.054Z</time></trkpt><trkpt lat="39.3387023" lon="-121.2657696"><ele>488.0</ele><time>2026-04-20T23:18:34.055Z</time></trkpt><trkpt lat="39.3385781" lon="-121.2657414"><ele>489.25</ele><time>2026-04-20T23:18:35.055Z</time></trkpt><trkpt lat="39.3384585" lon="-121.2657012"><ele>490.5</ele><time>2026-04-20T23:18:36.055Z</time></trkpt><trkpt lat="39.3383434" lon="-121.2656572"><ele>491.75</ele><time>2026-04-20T23:18:37.055Z</time></trkpt><trkpt lat="39.3382188" lon="-121.2656166"><ele>493.0</ele><time>2026-04-20T23:18:38.054Z</time></trkpt><trkpt lat="39.3380969" lon="-121.2655762"><ele>495.5</ele><time>2026-04-20T23:18:39.054Z</time></trkpt><trkpt lat="39.3379706" lon="-121.2655259"><ele>498.0</ele><time>2026-04-20T23:18:40.055Z</time></trkpt><trkpt lat="39.3378499" lon="-121.2654731"><ele>500.5</ele><time>2026-04-20T23:18:41.055Z</time></trkpt><trkpt lat="39.3377206" lon="-121.2654287"><ele>503.0</ele><time>2026-04-20T23:18:42.054Z</time></trkpt><trkpt lat="39.3375949" lon="-121.2653851"><ele>503.0</ele><time>2026-04-20T23:18:43.055Z</time></trkpt><trkpt lat="39.3374655" lon="-121.2653261"><ele>503.0</ele><time>2026-04-20T23:18:44.055Z</time></trkpt><trkpt lat="39.3373392" lon="-121.2652576"><ele>503.0</ele><time>2026-04-20T23:18:45.054Z</time></trkpt><trkpt lat="39.3372033" lon="-121.2651901"><ele>503.0</ele><time>2026-04-20T23:18:46.054Z</time></trkpt><trkpt lat="39.3370788" lon="-121.2651069"><ele>501.25</ele><time>2026-04-20T23:18:47.054Z</time></trkpt><trkpt lat="39.3369505" lon="-121.265035"><ele>499.5</ele><time>2026-04-20T23:18:48.055Z</time></trkpt><trkpt lat="39.3368208" lon="-121.2649543"><ele>497.75</ele><time>2026-04-20T23:18:49.055Z</time></trkpt><trkpt lat="39.3366923" lon="-121.2648786"><ele>496.0</ele><time>2026-04-20T23:18:50.054Z</time></trkpt><trkpt lat="39.3365601" lon="-121.2647979"><ele>497.75</ele><time>2026-04-20T23:18:51.055Z</time></trkpt><trkpt lat="39.3364299" lon="-121.2647184"><ele>499.5</ele><time>2026-04-20T23:18:52.054Z</time></trkpt><trkpt lat="39.3362994" lon="-121.2646278"><ele>501.25</ele><time>2026-04-20T23:18:53.054Z</time></trkpt><trkpt lat="39.3361652" lon="-121.2645359"><ele>503.0</ele><time>2026-04-20T23:18:54.054Z</time></trkpt><trkpt lat="39.3360331" lon="-121.2644448"><ele>503.0</ele><time>2026-04-20T23:18:55.054Z</time></trkpt><trkpt lat="39.3359077" lon="-121.2643506"><ele>503.0</ele><time>2026-04-20T23:18:56.055Z</time></trkpt><trkpt lat="39.3357783" lon="-121.2642508"><ele>503.0</ele><time>2026-04-20T23:18:57.055Z</time></trkpt><trkpt lat="39.3356481" lon="-121.2641464"><ele>503.0</ele><time>2026-04-20T23:18:58.054Z</time></trkpt><trkpt lat="39.3355284" lon="-121.2640311"><ele>505.25</ele><time>2026-04-20T23:18:59.055Z</time></trkpt><trkpt lat="39.3354144" lon="-121.2639025"><ele>507.5</ele><time>2026-04-20T23:19:00.054Z</time></trkpt><trkpt lat="39.3353083" lon="-121.26378"><ele>509.75</ele><time>2026-04-20T23:19:01.055Z</time></trkpt><trkpt lat="39.3352067" lon="-121.2636595"><ele>512.0</ele><time>2026-04-20T23:19:02.055Z</time></trkpt><trkpt lat="39.3351051" lon="-121.2635309"><ele>512.0</ele><time>2026-04-20T23:19:03.054Z</time></trkpt><trkpt lat="39.3350123" lon="-121.2634103"><ele>512.0</ele><time>2026-04-20T23:19:04.055Z</time></trkpt><trkpt lat="39.3349262" lon="-121.2632981"><ele>512.0</ele><time>2026-04-20T23:19:05.054Z</time></trkpt><trkpt lat="39.3348448" lon="-121.2631649"><ele>512.0</ele><time>2026-04-20T23:19:06.054Z</time></trkpt><trkpt lat="39.3347767" lon="-121.2630247"><ele>514.25</ele><time>2026-04-20T23:19:07.055Z</time></trkpt><trkpt lat="39.3347064" lon="-121.262882"><ele>516.5</ele><time>2026-04-20T23:19:08.055Z</time></trkpt><trkpt lat="39.3346487" lon="-121.262745"><ele>518.75</ele><time>2026-04-20T23:19:09.055Z</time></trkpt><trkpt lat="39.3345753" lon="-121.2626088"><ele>521.0</ele><time>2026-04-20T23:19:10.055Z</time></trkpt><trkpt lat="39.3345036" lon="-121.2624759"><ele>521.0</ele><time>2026-04-20T23:19:11.054Z</time></trkpt><trkpt lat="39.3344295" lon="-121.2623408"><ele>521.0</ele><time>2026-04-20T23:19:12.054Z</time></trkpt><trkpt lat="39.3343751" lon="-121.2621966"><ele>521.0</ele><time>2026-04-20T23:19:13.054Z</time></trkpt><trkpt lat="39.3343325" lon="-121.2620432"><ele>521.0</ele><time>2026-04-20T23:19:14.054Z</time></trkpt><trkpt lat="39.3343007" lon="-121.2618809"><ele>521.25</ele><time>2026-04-20T23:19:15.054Z</time></trkpt><trkpt lat="39.3342773" lon="-121.2617297"><ele>521.5</ele><time>2026-04-20T23:19:16.055Z</time></trkpt><trkpt lat="39.3342684" lon="-121.2615817"><ele>521.75</ele><time>2026-04-20T23:19:17.055Z</time></trkpt><trkpt lat="39.3342605" lon="-121.2614391"><ele>522.0</ele><time>2026-04-20T23:19:18.055Z</time></trkpt><trkpt lat="39.3342579" lon="-121.2612827"><ele>522.0</ele><time>2026-04-20T23:19:19.054Z</time></trkpt><trkpt lat="39.3342559" lon="-121.2611338"><ele>522.0</ele><time>2026-04-20T23:19:20.055Z</time></trkpt><trkpt lat="39.3342545" lon="-121.2609819"><ele>522.0</ele><time>2026-04-20T23:19:21.054Z</time></trkpt><trkpt lat="39.3342432" lon="-121.2608335"><ele>522.0</ele><time>2026-04-20T23:19:22.055Z</time></trkpt><trkpt lat="39.3342175" lon="-121.2606842"><ele>522.25</ele><time>2026-04-20T23:19:23.054Z</time></trkpt><trkpt lat="39.334185" lon="-121.2605351"><ele>522.5</ele><time>2026-04-20T23:19:24.054Z</time></trkpt><trkpt lat="39.3341503" lon="-121.2603927"><ele>522.75</ele><time>2026-04-20T23:19:25.055Z</time></trkpt><trkpt lat="39.3340964" lon="-121.2602547"><ele>523.0</ele><time>2026-04-20T23:19:26.055Z</time></trkpt><trkpt lat="39.3340237" lon="-121.2601379"><ele>523.0</ele><time>2026-04-20T23:19:27.055Z</time></trkpt><trkpt lat="39.3339426" lon="-121.2600339"><ele>523.0</ele><time>2026-04-20T23:19:28.055Z</time></trkpt><trkpt lat="39.3338498" lon="-121.2599573"><ele>523.0</ele><time>2026-04-20T23:19:29.054Z</time></trkpt><trkpt lat="39.3337372" lon="-121.2599232"><ele>523.0</ele><time>2026-04-20T23:19:30.055Z</time></trkpt><trkpt lat="39.3336115" lon="-121.2599112"><ele>525.25</ele><time>2026-04-20T23:19:31.054Z</time></trkpt><trkpt lat="39.3334848" lon="-121.2599017"><ele>527.5</ele><time>2026-04-20T23:19:32.054Z</time></trkpt><trkpt lat="39.3333577" lon="-121.25987"><ele>529.75</ele><time>2026-04-20T23:19:33.055Z</time></trkpt><trkpt lat="39.3332315" lon="-121.2598268"><ele>532.0</ele><time>2026-04-20T23:19:34.055Z</time></trkpt><trkpt lat="39.3330983" lon="-121.2597496"><ele>533.25</ele><time>2026-04-20T23:19:35.055Z</time></trkpt><trkpt lat="39.3329792" lon="-121.2596559"><ele>534.5</ele><time>2026-04-20T23:19:36.054Z</time></trkpt><trkpt lat="39.3328602" lon="-121.259563"><ele>535.75</ele><time>2026-04-20T23:19:37.054Z</time></trkpt><trkpt lat="39.3327445" lon="-121.2594732"><ele>537.0</ele><time>2026-04-20T23:19:38.054Z</time></trkpt><trkpt lat="39.3326193" lon="-121.2593942"><ele>537.0</ele><time>2026-04-20T23:19:39.055Z</time></trkpt><trkpt lat="39.3324876" lon="-121.2593279"><ele>537.0</ele><time>2026-04-20T23:19:40.055Z</time></trkpt><trkpt lat="39.3323638" lon="-121.2592596"><ele>537.0</ele><time>2026-04-20T23:19:41.054Z</time></trkpt><trkpt lat="39.3322345" lon="-121.2592038"><ele>537.0</ele><time>2026-04-20T23:19:42.055Z</time></trkpt><trkpt lat="39.3320992" lon="-121.2591484"><ele>537.0</ele><time>2026-04-20T23:19:43.054Z</time></trkpt><trkpt lat="39.3319642" lon="-121.259086"><ele>537.0</ele><time>2026-04-20T23:19:44.055Z</time></trkpt><trkpt lat="39.3318425" lon="-121.259005"><ele>537.0</ele><time>2026-04-20T23:19:45.055Z</time></trkpt><trkpt lat="39.3317229" lon="-121.2589266"><ele>537.0</ele><time>2026-04-20T23:19:46.054Z</time></trkpt><trkpt lat="39.3316139" lon="-121.2588234"><ele>537.0</ele><time>2026-04-20T23:19:47.054Z</time></trkpt><trkpt lat="39.3315312" lon="-121.2586865"><ele>537.0</ele><time>2026-04-20T23:19:48.054Z</time></trkpt><trkpt lat="39.3314522" lon="-121.2585346"><ele>537.0</ele><time>2026-04-20T23:19:49.055Z</time></trkpt><trkpt lat="39.3313919" lon="-121.2583728"><ele>537.0</ele><time>2026-04-20T23:19:50.055Z</time></trkpt><trkpt lat="39.331332" lon="-121.2582215"><ele>538.25</ele><time>2026-04-20T23:19:51.055Z</time></trkpt><trkpt lat="39.3312774" lon="-121.2580642"><ele>539.5</ele><time>2026-04-20T23:19:52.055Z</time></trkpt><trkpt lat="39.3312056" lon="-121.2579105"><ele>540.75</ele><time>2026-04-20T23:19:53.054Z</time></trkpt><trkpt lat="39.3311119" lon="-121.2577493"><ele>542.0</ele><time>2026-04-20T23:19:54.055Z</time></trkpt><trkpt lat="39.3310154" lon="-121.2575922"><ele>542.0</ele><time>2026-04-20T23:19:55.054Z</time></trkpt><trkpt lat="39.3309161" lon="-121.257442"><ele>542.0</ele><time>2026-04-20T23:19:56.055Z</time></trkpt><trkpt lat="39.3308179" lon="-121.257286"><ele>542.0</ele><time>2026-04-20T23:19:57.055Z</time></trkpt><trkpt lat="39.3307052" lon="-121.2571404"><ele>540.6666666666666</ele><time>2026-04-20T23:19:58.055Z</time></trkpt><trkpt lat="39.3305873" lon="-121.2570099"><ele>539.3333333333334</ele><time>2026-04-20T23:19:59.054Z</time></trkpt><trkpt lat="39.330455" lon="-121.2568829"><ele>538.0</ele><time>2026-04-20T23:20:00.055Z</time></trkpt><trkpt lat="39.3303247" lon="-121.2567631"><ele>538.0</ele><time>2026-04-20T23:20:01.054Z</time></trkpt><trkpt lat="39.3302155" lon="-121.2566274"><ele>538.0</ele><time>2026-04-20T23:20:02.054Z</time></trkpt><trkpt lat="39.3301256" lon="-121.2564779"><ele>538.0</ele><time>2026-04-20T23:20:03.054Z</time></trkpt><trkpt lat="39.3300481" lon="-121.2563115"><ele>538.0</ele><time>2026-04-20T23:20:04.055Z</time></trkpt><trkpt lat="39.329988" lon="-121.256129"><ele>538.25</ele><time>2026-04-20T23:20:05.055Z</time></trkpt><trkpt lat="39.3299374" lon="-121.2559544"><ele>538.5</ele><time>2026-04-20T23:20:06.055Z</time></trkpt><trkpt lat="39.3298802" lon="-121.2557852"><ele>538.75</ele><time>2026-04-20T23:20:07.054Z</time></trkpt><trkpt lat="39.3298327" lon="-121.255604"><ele>539.0</ele><time>2026-04-20T23:20:08.055Z</time></trkpt><trkpt lat="39.3297915" lon="-121.2554327"><ele>540.0</ele><time>2026-04-20T23:20:09.055Z</time></trkpt><trkpt lat="39.3297385" lon="-121.2552621"><ele>541.0</ele><time>2026-04-20T23:20:10.055Z</time></trkpt><trkpt lat="39.329666" lon="-121.2551025"><ele>542.0</ele><time>2026-04-20T23:20:11.055Z</time></trkpt><trkpt lat="39.3295862" lon="-121.254965"><ele>543.0</ele><time>2026-04-20T23:20:12.055Z</time></trkpt><trkpt lat="39.3295099" lon="-121.2548307"><ele>544.5</ele><time>2026-04-20T23:20:13.055Z</time></trkpt><trkpt lat="39.3294432" lon="-121.25468"><ele>546.0</ele><time>2026-04-20T23:20:14.054Z</time></trkpt><trkpt lat="39.329389" lon="-121.2545276"><ele>547.5</ele><time>2026-04-20T23:20:15.054Z</time></trkpt><trkpt lat="39.3293732" lon="-121.2543738"><ele>549.0</ele><time>2026-04-20T23:20:16.054Z</time></trkpt><trkpt lat="39.3293619" lon="-121.2542058"><ele>549.0</ele><time>2026-04-20T23:20:17.054Z</time></trkpt><trkpt lat="39.3293597" lon="-121.2540477"><ele>549.0</ele><time>2026-04-20T23:20:18.055Z</time></trkpt><trkpt lat="39.3293816" lon="-121.2538997"><ele>549.0</ele><time>2026-04-20T23:20:19.055Z</time></trkpt><trkpt lat="39.3294173" lon="-121.2537609"><ele>549.0</ele><time>2026-04-20T23:20:20.055Z</time></trkpt><trkpt lat="39.3294471" lon="-121.2536237"><ele>550.4</ele><time>2026-04-20T23:20:21.054Z</time></trkpt><trkpt lat="39.3294798" lon="-121.2534752"><ele>551.8</ele><time>2026-04-20T23:20:22.054Z</time></trkpt><trkpt lat="39.3294906" lon="-121.2533438"><ele>553.2</ele><time>2026-04-20T23:20:23.054Z</time></trkpt><trkpt lat="39.3294762" lon="-121.2532279"><ele>554.6</ele><time>2026-04-20T23:20:24.054Z</time></trkpt><trkpt lat="39.3294349" lon="-121.2531234"><ele>556.0</ele><time>2026-04-20T23:20:25.055Z</time></trkpt><trkpt lat="39.3293949" lon="-121.2530327"><ele>556.4</ele><time>2026-04-20T23:20:26.054Z</time></trkpt><trkpt lat="39.329362" lon="-121.2529549"><ele>556.8</ele><time>2026-04-20T23:20:27.055Z</time></trkpt><trkpt lat="39.3294215" lon="-121.2528091"><ele>557.1999999999999</ele><time>2026-04-20T23:20:29.055Z</time></trkpt><trkpt lat="39.3295321" lon="-121.2527537"><ele>557.6</ele><time>2026-04-20T23:20:31.055Z</time></trkpt><trkpt lat="39.3296099" lon="-121.2527357"><ele>558.0</ele><time>2026-04-20T23:20:33.054Z</time></trkpt><trkpt lat="39.3296863" lon="-121.2527275"><ele>557.6666666666666</ele><time>2026-04-20T23:20:44.054Z</time></trkpt><trkpt lat="39.3297507" lon="-121.2527205"><ele>557.3333333333334</ele><time>2026-04-20T23:20:47.054Z</time></trkpt><trkpt lat="39.3298447" lon="-121.2527091"><ele>557.0</ele><time>2026-04-20T23:20:50.054Z</time></trkpt><trkpt lat="39.3299202" lon="-121.2526981"><ele>556.6666666666667</ele><time>2026-04-20T23:20:52.054Z</time></trkpt><trkpt lat="39.3300086" lon="-121.2526916"><ele>556.3333333333334</ele><time>2026-04-20T23:20:54.055Z</time></trkpt><trkpt lat="39.3301046" lon="-121.2526817"><ele>556.0</ele><time>2026-04-20T23:20:56.055Z</time></trkpt><trkpt lat="39.3301925" lon="-121.2527006"><ele>556.0</ele><time>2026-04-20T23:20:58.055Z</time></trkpt><trkpt lat="39.330255" lon="-121.2527844"><ele>556.0</ele><time>2026-04-20T23:21:00.054Z</time></trkpt><trkpt lat="39.3302644" lon="-121.252874"><ele>556.0</ele><time>2026-04-20T23:21:02.055Z</time></trkpt><trkpt lat="39.3302521" lon="-121.2529652"><ele>556.0</ele><time>2026-04-20T23:21:04.055Z</time></trkpt><trkpt lat="39.3302342" lon="-121.2530638"><ele>556.0</ele><time>2026-04-20T23:21:06.054Z</time></trkpt><trkpt lat="39.3302253" lon="-121.2531677"><ele>556.0</ele><time>2026-04-20T23:21:08.055Z</time></trkpt><trkpt lat="39.3302279" lon="-121.2532564"><ele>552.0</ele><time>2026-04-20T23:21:10.054Z</time></trkpt><trkpt lat="39.3302903" lon="-121.2532881"><ele>552.0</ele><time>2026-04-20T23:27:57.056Z</time></trkpt></trkseg></trk></gpx>